[[{"header":{"parameterUnit":"m.s-1","parameterCategory":1,"la1":30.6,"la2":29.2853,"lo1":-89.7004,"lo2":-87.6739,"dy":0.0162,"dx":0.0183,"nx":112,"ny":82,"refTime":"2024-09-10T06:00:00:Z","depth":0,"parameterNumber":2,"parameterNumberName":"U-component_of_WINDS"},"data":[0.0,0.0,0.0,0.0,0.0,0.0,0.0,0.0,0.0,0.0,0.0,0.0,0.0,0.0,0.0,0.0,0.0,0.0,0.0,0.0,0.0,0.0,0.0,0.0,0.0,0.0,0.0,0.0,0.0,0.0,0.0,0.0,0.0,0.0,0.0,0.0,0.0,0.0,0.0,0.0,0.0,0.0,0.0,0.0,0.0,0.0,0.0,0.0,0.0,0.0,0.0,0.0,0.0,0.0,0.0,0.0,0.0,0.0,0.0,0.0,0.0,0.0,0.0,0.0,0.0,0.0,0.0,0.0,0.0,0.0,0.0,0.0,0.0,0.0,0.0,0.0,0.0,0.0,0.0,0.0,0.0,0.0,0.0,0.0,0.0,0.0,0.0,0.0,0.0,0.0,1.7219,1.8986,2.0782,2.1844,2.1844,2.1246,2.0004,1.8065,0.0,0.0,0.0,0.0,0.0,0.0,0.0,0.0,0.0,0.0,0.0,0.0,0.0,0.0,0.0,0.0,0.0,0.0,0.0,0.0,0.0,0.0,0.0,0.0,0.0,0.0,0.0,0.0,0.0,0.0,0.0,0.0,0.0,0.0,0.0,0.0,0.0,0.0,0.0,0.0,0.0,0.0,0.0,0.0,0.0,0.0,0.0,0.0,0.0,0.0,0.0,0.0,0.0,0.0,0.0,0.0,0.0,0.0,0.0,0.0,0.0,0.0,0.0,0.0,0.0,0.0,0.0,0.0,0.0,0.0,0.0,0.0,0.0,0.0,0.0,0.0,0.0,0.0,0.0,0.0,0.0,0.0,0.0,0.0,0.0,0.0,0.0,0.0,0.0,0.0,0.0,0.0,0.0,0.0,0.0,0.0,0.0,0.0,0.0,0.0,0.0,0.0,0.0,0.0,1.7281,2.0857,2.2024,2.2532,2.2532,2.1919,2.0828,1.9078,0.0,0.0,0.0,0.0,0.0,0.0,0.0,0.0,0.0,0.0,0.0,0.0,0.0,0.0,0.0,0.0,0.0,0.0,0.0,0.0,0.0,0.0,0.0,0.0,0.0,0.0,0.0,0.0,0.0,0.0,0.0,0.0,0.0,0.0,0.0,0.0,0.0,0.0,0.0,0.0,0.0,0.0,0.0,0.0,0.0,0.0,0.0,0.0,0.0,0.0,0.0,0.0,0.0,0.0,0.0,0.0,0.0,0.0,0.0,0.0,0.0,0.0,0.0,0.0,0.0,0.0,0.0,0.0,0.0,0.0,0.0,0.0,0.0,0.0,0.0,0.0,0.0,0.0,0.0,0.0,0.0,0.0,0.0,0.0,0.0,0.0,0.0,0.0,0.0,0.0,0.0,0.0,0.0,0.0,0.0,0.0,0.0,0.0,0.0,0.0,0.0,0.0,0.0,1.6877,1.8901,2.1425,2.2577,2.3176,2.3176,2.2263,2.1068,1.9561,1.7116,0.0,0.0,0.0,0.0,0.0,0.0,0.0,0.0,0.0,0.0,0.0,0.0,0.0,0.0,0.0,0.0,0.0,0.0,0.0,0.0,0.0,0.0,0.0,0.0,0.0,0.0,0.0,0.0,0.0,0.0,0.0,0.0,0.0,0.0,0.0,0.0,0.0,0.0,0.0,0.0,0.0,0.0,0.0,0.0,0.0,0.0,0.0,0.0,0.0,0.0,0.0,0.0,0.0,0.0,0.0,0.0,0.0,0.0,0.0,0.0,0.0,0.0,0.0,0.0,0.0,0.0,0.0,0.0,0.0,0.0,0.0,0.0,0.0,0.0,0.0,0.0,0.0,0.0,0.0,0.0,0.0,0.0,0.0,0.0,0.0,0.0,0.0,0.0,0.0,0.0,0.0,0.0,0.0,0.0,0.0,0.0,0.0,0.0,0.0,0.0,0.0,0.0,1.8957,2.0543,2.159,2.2832,2.3535,2.3385,2.2203,2.0925,1.9667,1.6637,0.0,0.0,0.0,0.0,0.0,0.0,0.0,0.0,0.0,0.0,0.0,0.0,0.0,0.0,0.0,0.0,0.0,0.0,0.0,0.0,0.0,0.0,0.0,0.0,0.0,0.0,0.0,0.0,0.0,0.0,0.0,0.0,0.0,0.0,0.0,0.0,0.0,0.0,0.0,0.0,0.0,0.0,0.0,0.0,0.0,0.0,0.0,0.0,0.0,0.0,0.0,0.0,0.0,0.0,0.0,0.0,0.0,0.0,0.0,0.0,0.0,0.0,0.0,0.0,0.0,0.0,0.0,0.0,0.0,0.0,0.0,0.0,0.0,0.0,0.0,0.0,0.0,0.0,0.0,0.0,0.0,0.0,0.0,0.0,0.0,0.0,0.0,0.0,0.0,0.0,0.0,0.0,0.0,0.0,0.0,0.0,0.0,0.0,0.0,0.0,0.0,0.0,1.9211,2.159,2.168,2.2832,2.337,2.2787,2.1545,2.0346,1.9295,1.5588,0.0,0.0,0.0,0.0,0.0,0.0,0.0,0.0,0.0,0.0,0.0,0.0,0.0,0.0,0.0,0.0,0.0,0.0,0.0,0.0,0.0,0.0,0.0,0.0,0.0,0.0,0.0,0.0,0.0,0.0,0.0,0.0,0.0,0.0,0.0,0.0,0.0,0.0,0.0,0.0,0.0,0.0,0.0,0.0,0.0,0.0,0.0,0.0,0.0,0.0,0.0,0.0,0.0,0.0,0.0,0.0,0.0,0.0,0.0,0.0,0.0,0.0,0.0,0.0,0.0,0.0,0.0,0.0,0.0,0.0,0.0,0.0,0.0,0.0,0.0,0.0,0.0,0.0,0.0,0.0,0.0,0.0,0.0,0.0,0.0,0.0,0.0,0.0,0.0,0.0,0.0,0.0,0.0,0.0,0.0,0.0,0.0,0.0,0.0,0.0,0.0,0.0,1.8508,2.0767,2.1605,2.2832,2.3355,2.2727,2.1844,2.0526,1.8636,0.0,0.0,0.0,0.0,0.0,0.0,0.0,0.0,0.0,0.0,0.0,0.0,0.0,0.0,0.0,0.0,0.0,0.0,0.0,0.0,0.0,0.0,0.0,0.0,0.0,0.0,0.0,0.0,0.0,0.0,0.0,0.0,0.0,0.0,0.0,0.0,0.0,0.0,0.0,0.0,0.0,0.0,0.0,0.0,0.0,0.0,0.0,0.0,0.0,0.0,0.0,0.0,0.0,0.0,0.0,0.0,0.0,0.0,0.0,0.0,0.0,0.0,0.0,0.0,0.0,0.0,0.0,0.0,0.0,0.0,0.0,0.0,0.0,0.0,0.0,0.0,0.0,0.0,0.0,0.0,0.0,0.0,0.0,0.0,0.0,0.0,0.0,0.0,0.0,0.0,0.0,0.0,0.0,0.0,0.0,0.0,0.0,0.0,0.0,0.0,0.0,0.0,1.577,1.8568,2.0677,2.1605,2.2832,2.3266,2.2443,2.1754,2.0376,1.8007,0.0,0.0,0.0,0.0,0.0,0.0,0.0,0.0,0.0,0.0,0.0,0.0,0.0,0.0,0.0,0.0,0.0,0.0,0.0,0.0,0.0,0.0,0.0,0.0,0.0,0.0,0.0,0.0,0.0,0.0,0.0,0.0,0.0,0.0,0.0,0.0,0.0,0.0,0.0,0.0,0.0,0.0,0.0,0.0,0.0,0.0,0.0,0.0,0.0,0.0,0.0,0.0,0.0,0.0,0.0,0.0,0.0,0.0,0.0,0.0,0.0,0.0,0.0,0.0,0.0,0.0,0.0,0.0,0.0,0.0,0.0,0.0,0.0,0.0,0.0,0.0,0.0,0.0,0.0,0.0,0.0,0.0,0.0,0.0,0.0,0.0,0.0,0.0,0.0,0.0,0.0,0.0,0.0,0.0,0.0,0.0,0.0,0.0,0.0,0.0,0.0,0.0,1.6473,1.9645,2.1695,2.171,2.2832,2.3086,2.1799,2.1096,1.9713,0.0,0.0,0.0,0.0,0.0,0.0,0.0,0.0,0.0,0.0,0.0,0.0,0.0,0.0,0.0,0.0,0.0,0.0,0.0,0.0,0.0,0.0,0.0,0.0,0.0,0.0,0.0,0.0,0.0,0.0,0.0,0.0,0.0,0.0,0.0,0.0,0.0,0.0,0.0,0.0,0.0,0.0,0.0,0.0,0.0,0.0,0.0,0.0,0.0,0.0,0.0,0.0,0.0,0.0,0.0,0.0,0.0,0.0,0.0,0.0,0.0,0.0,0.0,0.0,0.0,0.0,0.0,0.0,0.0,0.0,0.0,0.0,0.0,0.0,0.0,0.0,0.0,0.0,0.0,0.0,0.0,0.0,0.0,0.0,0.0,0.0,0.0,0.0,0.0,0.0,0.0,0.0,0.0,0.0,0.0,0.0,0.0,0.0,0.0,0.0,0.0,0.0,0.0,1.7085,1.9929,2.1874,2.2338,2.3116,2.3086,2.1799,2.1515,2.0071,1.6921,0.0,0.0,0.0,0.0,0.0,0.0,0.0,0.0,0.0,0.0,0.0,0.0,0.0,0.0,0.0,0.0,0.0,0.0,0.0,0.0,0.0,0.0,0.0,0.0,0.0,0.0,0.0,0.0,0.0,0.0,0.0,0.0,0.0,0.0,0.0,0.0,0.0,0.0,0.0,0.0,0.0,0.0,0.0,0.0,0.0,0.0,0.0,0.0,0.0,0.0,0.0,0.0,0.0,0.0,0.0,0.0,0.0,0.0,0.0,0.0,0.0,0.0,0.0,0.0,0.0,0.0,0.0,0.0,0.0,0.0,0.0,0.0,0.0,0.0,0.0,0.0,0.0,0.0,0.0,0.0,0.0,0.0,0.0,0.0,0.0,0.0,0.0,0.0,0.0,0.0,0.0,0.0,0.0,0.0,0.0,0.0,0.0,0.0,0.0,0.0,0.0,0.0,1.7745,2.0213,2.1949,2.2649,2.3236,2.3086,2.1799,2.1695,2.024,1.6791,0.0,0.0,0.0,0.0,0.0,0.0,0.0,0.0,0.0,0.0,0.0,0.0,0.0,0.0,0.0,0.0,0.0,0.0,0.0,0.0,0.0,0.0,0.0,0.0,0.0,0.0,0.0,0.0,0.0,0.0,0.0,0.0,0.0,0.0,0.0,0.0,0.0,0.0,0.0,0.0,0.0,0.0,0.0,0.0,0.0,0.0,0.0,0.0,0.0,0.0,0.0,0.0,0.0,0.0,0.0,0.0,0.0,0.0,0.0,0.0,0.0,0.0,0.0,0.0,0.0,0.0,0.0,0.0,0.0,0.0,0.0,0.0,0.0,0.0,0.0,0.0,0.0,0.0,0.0,0.0,0.0,0.0,0.0,0.0,0.0,0.0,0.0,0.0,0.0,0.0,0.0,0.0,0.0,0.0,0.0,0.0,0.0,0.0,0.0,0.0,0.0,0.0,1.8373,2.0483,2.1964,2.2724,2.3266,2.3086,2.1799,2.1695,2.0303,1.7041,0.0,0.0,0.0,0.0,0.0,0.0,0.0,0.0,0.0,0.0,0.0,0.0,0.0,0.0,0.0,0.0,0.0,0.0,0.0,0.0,0.0,0.0,0.0,0.0,0.0,0.0,0.0,0.0,0.0,0.0,0.0,0.0,0.0,0.0,0.0,0.0,0.0,0.0,0.0,0.0,0.0,0.0,0.0,0.0,0.0,0.0,0.0,0.0,0.0,0.0,0.0,0.0,0.0,0.0,0.0,0.0,0.0,0.0,0.0,0.0,1.1695,1.1166,0.0,0.0,0.0,0.0,0.0,0.0,0.0,0.0,0.0,0.0,0.0,0.0,0.0,0.0,0.0,0.0,0.0,0.0,0.0,0.0,0.0,0.0,0.0,0.0,0.0,0.0,0.0,0.0,0.0,0.0,0.0,0.0,0.0,0.0,0.0,0.0,0.0,0.0,0.0,0.0,1.9046,2.0767,2.2143,2.3281,2.352,2.3086,2.1799,2.1695,2.0595,1.7974,1.66,0.0,0.0,0.0,0.0,0.0,0.0,0.0,0.0,0.0,0.0,0.0,0.0,0.0,0.0,0.0,0.0,0.0,0.0,0.0,0.0,0.0,0.0,0.0,0.0,0.0,0.0,0.0,0.0,0.0,0.0,0.0,0.0,0.0,0.0,0.0,0.0,0.0,0.0,0.0,0.0,0.0,0.0,0.0,0.0,0.0,0.0,0.0,0.0,0.0,0.0,0.0,0.0,0.0,0.0,0.0,0.0,0.0,0.0,0.0,1.3605,1.2961,0.0,0.0,0.0,0.0,0.0,0.0,0.0,0.0,0.0,0.0,0.0,0.0,0.0,0.0,0.0,0.0,0.0,0.0,0.0,0.0,0.0,0.0,0.0,0.0,0.0,0.0,0.0,0.0,0.0,0.0,0.0,0.0,0.0,0.0,0.0,0.0,0.0,0.0,0.0,0.0,1.972,2.1066,2.2188,2.346,2.3595,2.3206,2.2248,2.1874,2.0903,1.9,1.7715,0.0,0.0,0.0,0.0,0.0,0.0,0.0,0.0,0.0,0.0,0.0,0.0,0.0,0.0,0.0,0.0,0.0,0.0,0.0,0.0,0.0,0.0,0.0,0.0,0.0,0.0,0.0,0.0,0.0,0.0,0.0,0.0,0.0,0.0,0.0,0.0,0.0,0.0,0.0,0.0,0.0,0.0,0.0,0.0,0.0,0.0,0.0,0.0,0.0,0.0,0.0,0.0,0.0,1.4568,1.5314,1.6602,1.6162,1.65,1.7282,1.5502,1.5129,1.566,1.4392,0.0,0.0,0.0,0.0,0.0,0.0,0.0,0.0,0.0,0.0,0.0,0.0,0.0,0.0,0.0,0.0,0.0,0.0,0.0,0.0,0.0,0.0,1.9489,1.9216,2.0246,2.0498,1.7685,0.0,0.0,0.0,0.0,0.0,0.0,0.0,0.0,0.0,0.0,0.0,2.0109,2.1223,2.217,2.3475,2.3508,2.3255,2.2727,2.2173,2.1291,1.9944,1.894,1.7837,0.0,0.0,0.0,0.0,0.0,0.0,0.0,0.0,0.0,0.0,0.0,0.0,0.0,0.0,0.0,0.0,0.0,0.0,0.0,0.0,0.0,0.0,0.0,0.0,0.0,0.0,0.0,0.0,0.0,0.0,0.0,0.0,0.8563,0.9561,0.0,0.0,0.0,0.0,0.0,0.0,0.0,0.0,0.0,0.0,0.0,0.0,0.0,1.4385,1.4743,1.6536,1.7107,1.6537,1.7478,1.7699,1.7187,1.712,1.7154,1.7319,1.7036,0.0,1.7093,1.6176,0.0,0.0,0.0,0.0,0.0,0.0,0.0,0.0,0.0,0.0,0.0,0.0,0.0,0.0,0.0,0.0,0.0,0.0,0.0,0.0,0.0,0.0,2.1353,2.1302,2.1482,2.1503,2.1083,1.9398,1.7517,1.5885,1.5079,1.4393,0.0,0.0,0.0,0.0,0.0,0.0,1.9841,2.0992,2.2178,2.3477,2.3143,2.2776,2.2685,2.2607,2.1979,2.0662,1.9891,1.9284,1.8806,1.6979,0.0,0.0,0.0,0.0,0.0,0.0,0.0,0.0,0.0,0.0,0.0,0.0,0.0,0.0,0.0,0.0,0.0,0.0,0.0,0.0,0.0,0.0,0.0,0.0,0.0,0.0,0.0,0.0,0.0,0.8851,1.0159,1.1286,1.1559,1.1663,0.0,0.0,0.0,0.0,0.0,0.0,0.0,0.0,0.0,1.4021,1.4731,1.5203,1.5416,1.6461,1.7038,1.7104,1.7785,1.8173,1.822,1.822,1.822,1.822,1.822,1.8205,1.8137,1.705,1.6467,1.6237,0.0,0.0,0.0,0.0,1.7276,1.7997,1.8522,1.8863,1.9002,1.8722,0.0,0.0,0.0,0.0,0.0,0.0,0.0,2.0654,2.1031,2.2209,2.334,2.334,2.3625,2.3806,2.3362,2.2512,2.1152,1.8976,1.8313,1.767,1.6234,1.5684,0.0,0.0,0.0,1.8389,2.0161,2.0878,2.153,2.2443,2.2634,2.2684,2.2688,2.2708,2.2428,2.1859,2.1186,2.0587,2.0056,1.8982,1.7807,0.0,0.0,0.0,0.0,0.0,0.0,0.0,0.0,0.0,0.0,0.0,0.0,0.0,0.0,0.0,0.0,0.0,0.0,0.0,0.0,0.0,0.0,0.0,0.0,0.0,0.0,0.0,0.0,1.0067,1.1386,1.2567,1.3085,1.3304,0.0,0.0,0.0,0.0,0.0,0.0,1.3559,1.4387,1.4924,1.5202,1.5751,1.6036,1.6029,1.6698,1.7164,1.7538,1.7998,1.8322,1.8685,1.8685,1.8685,1.8685,1.8685,1.8685,1.8606,1.7596,1.7203,1.7224,1.7471,1.7651,1.7823,1.8742,1.9485,2.0193,2.1094,2.1445,2.1499,2.1147,2.0783,2.0286,1.9675,0.0,0.0,0.0,0.0,2.2562,2.3056,2.4029,2.4881,2.4881,2.5255,2.5396,2.4679,2.4666,2.406,2.1427,2.095,2.0395,1.8563,1.7526,0.0,1.8166,1.8219,1.8848,2.0737,2.1118,2.1404,2.187,2.2211,2.2484,2.2663,2.2688,2.2721,2.2682,2.2218,2.165,2.0991,2.0546,1.9531,1.7853,0.0,0.0,0.0,0.0,0.0,0.0,0.0,0.0,0.0,0.0,0.0,0.0,0.0,0.0,0.0,0.0,0.0,0.0,0.0,0.0,0.0,0.0,0.0,0.0,0.0,0.0,0.0,0.0,0.0,1.2939,1.3695,0.0,0.0,0.0,0.0,1.4003,1.4991,1.5526,1.5388,1.6332,1.6614,1.6087,1.7093,1.7707,1.7667,1.8902,1.9141,1.8426,1.895,1.8783,1.8075,1.8075,1.8075,1.8075,1.8075,1.8075,1.8034,1.8055,1.8021,1.808,1.8398,1.8799,1.9241,1.9584,2.0425,2.1342,2.0909,2.1107,2.1602,2.2128,2.2355,2.2457,2.3048,2.2908,0.0,0.0,2.3924,2.4448,2.4477,2.5046,2.5555,2.5555,2.5585,2.5396,2.4679,2.5066,2.4749,2.2052,2.1614,2.1212,1.9917,0.0,1.9636,1.9674,2.0644,2.1396,2.1533,2.1996,2.2391,2.2564,2.2008,2.193,2.2661,2.2711,2.2673,2.2712,2.2679,2.2338,2.168,2.1006,2.0473,2.0035,1.7991,0.0,0.0,0.0,0.0,0.0,0.0,0.0,0.0,0.0,0.0,0.0,0.0,0.0,0.0,0.0,0.0,0.0,0.0,0.0,0.0,0.0,0.0,0.0,0.0,0.0,0.0,0.0,0.0,1.4561,1.5008,0.0,1.5121,1.5415,1.5446,1.4972,1.5583,1.5941,1.5879,1.6735,1.7159,1.6914,1.7843,1.8335,1.8335,1.9039,1.9272,1.9004,1.9234,1.9173,1.8838,1.8838,1.8838,1.8838,1.8838,1.8838,1.887,1.8861,1.8661,1.843,1.9298,1.9713,1.998,2.0648,2.134,2.1987,2.1776,2.2142,2.2694,2.2937,2.3053,2.3202,2.392,2.4028,2.4092,2.5237,2.5342,2.5267,2.5689,2.5981,2.6192,2.6192,2.6559,2.6559,2.5335,2.5664,2.534,2.2562,2.2844,2.3075,2.1698,2.117,2.0957,2.0919,2.099,2.1173,2.1486,2.1674,2.1834,2.1887,2.2008,2.2087,2.1993,2.2766,2.2873,2.2093,2.2481,2.2188,2.1126,2.0842,2.0415,1.9904,1.8703,1.715,0.0,0.0,0.0,0.0,0.0,0.0,0.0,0.0,0.0,0.0,0.0,0.0,0.0,0.0,0.0,0.0,0.0,0.0,0.0,0.0,0.0,0.0,0.0,0.0,0.0,1.2797,1.4053,1.5494,1.5895,1.6117,1.626,1.6412,1.6397,1.6125,1.6475,1.6787,1.6924,1.7627,1.8027,1.8027,1.8564,1.8857,1.8857,1.9141,1.9287,1.9287,1.9287,1.9287,1.9287,1.9287,1.9287,1.9287,1.9287,1.9287,1.9287,1.9287,1.9052,1.889,1.9905,2.0336,2.0472,2.1656,2.2333,2.2702,2.303,2.3437,2.382,2.3874,2.4021,2.4327,2.4816,2.5138,2.5554,2.6457,2.6361,2.6125,2.6564,2.674,2.6745,2.6745,2.7195,2.7188,2.5728,2.596,2.5711,2.3103,2.3417,2.3723,2.2349,2.1799,2.1613,2.1753,2.1479,2.1418,2.197,2.2046,2.197,2.1782,2.2137,2.2146,2.1629,2.2223,2.2359,2.1724,2.18,2.1609,2.1068,2.0655,2.0294,2.0049,1.903,1.7653,1.5945,0.0,0.0,0.0,0.0,0.0,0.0,0.0,0.0,0.0,0.0,0.0,0.0,0.0,0.0,0.0,0.0,0.0,0.0,0.0,0.0,0.0,0.0,0.0,1.2946,1.4073,1.5048,1.5677,1.6327,1.6592,1.6182,1.6543,1.6973,1.7412,1.7822,1.8223,1.8562,1.9053,1.9287,1.9287,1.9297,1.9307,1.9307,1.9316,1.9326,1.9326,1.9326,1.9326,1.9326,1.9326,1.9326,1.9326,1.9326,1.9326,1.9326,1.9326,1.9326,1.9389,2.0267,2.0603,2.0815,2.2593,2.3278,2.3411,2.4471,2.482,2.482,2.482,2.5268,2.5844,2.5906,2.6384,2.6973,2.6973,2.6973,2.6973,2.6973,2.7129,2.7252,2.7252,2.7413,2.7196,2.5729,2.5962,2.5839,2.3582,2.3283,2.3041,2.18,2.1543,2.1719,2.2259,2.2334,0.0,2.3002,2.3078,2.2924,2.2397,2.2334,2.2153,2.1642,2.1128,2.1055,2.1574,2.0681,2.0569,2.157,2.0493,2.0138,2.0669,1.8973,1.7746,1.703,0.0,0.0,0.0,0.0,0.0,0.0,0.0,0.0,0.0,0.0,0.0,0.0,0.0,0.0,0.0,0.0,0.0,0.0,0.0,0.0,0.0,1.3531,1.4182,1.4262,1.511,1.6068,1.6832,1.7111,1.7393,1.7881,1.8037,1.8291,1.873,1.8867,1.8984,1.9102,1.9219,1.9287,1.9287,1.958,1.9746,1.9746,2.0059,2.0215,2.0215,2.0215,2.0215,2.0215,2.0215,2.0215,2.0215,2.0215,2.0215,2.0215,2.0215,2.0215,2.0299,2.0514,2.0603,2.0744,2.184,2.274,2.3411,2.4471,2.482,2.482,2.482,2.4936,2.5218,2.5733,2.603,2.6323,2.6854,2.6613,2.6201,2.6201,2.6264,2.625,2.625,2.672,2.6886,2.5975,2.5915,2.5748,2.4532,2.409,2.358,2.2774,2.2686,2.2736,2.2887,2.2852,2.2902,2.3053,2.3078,2.3015,2.2924,2.2852,2.2506,2.1619,2.1783,2.1315,1.9829,1.9863,1.9867,1.9746,1.9389,1.9428,1.9962,1.874,1.7991,0.0,0.0,0.0,0.0,0.0,0.0,0.0,0.0,0.0,0.0,0.0,0.0,0.0,0.0,0.0,0.0,0.0,0.0,0.0,0.0,0.0,0.0,1.4913,1.5664,1.585,1.6299,1.6875,1.7568,1.7803,1.8174,1.8848,1.8906,1.9014,1.9268,1.9453,1.9551,1.9551,1.9727,1.9824,1.9824,2.0059,2.0185,2.0185,2.0439,2.0566,2.0566,2.0566,2.0566,2.0566,2.0566,2.0566,2.0566,2.0566,2.0566,2.0566,2.0566,2.0566,2.0595,0.0,0.0,0.0,0.0,2.2581,2.3445,2.4077,2.4238,2.4306,2.4737,2.4884,2.5073,2.5895,2.6155,2.622,2.6643,2.6465,2.6155,2.6155,2.6218,2.6275,2.6275,2.662,2.6794,2.6078,2.5906,2.5683,2.4924,2.4569,0.0,2.3891,2.3452,2.3078,2.3078,2.3078,2.3078,2.3078,2.3078,2.3078,2.3078,2.3078,2.2786,2.1907,2.1712,0.0,0.0,0.0,1.9144,1.8989,1.9165,0.0,0.0,0.0,0.0,0.0,1.9672,0.0,0.0,1.8192,1.81,0.0,0.0,0.0,0.0,0.0,0.0,0.0,0.0,0.0,0.0,0.0,0.0,0.0,0.0,0.0,0.0,1.6055,1.7031,1.7461,1.7568,1.7715,1.8047,1.8457,1.8877,1.9316,1.9355,1.9375,1.9424,1.9775,1.999,1.999,2.0352,0.0,0.0,0.0,2.0566,2.0566,2.0566,2.0566,2.0566,2.0566,2.0566,2.0566,2.0566,2.0566,2.0566,2.0566,2.0566,2.0566,2.0566,2.0566,2.0566,2.0566,2.0566,2.0712,2.1669,2.2553,2.3368,2.3441,0.0,0.0,2.4564,2.4862,2.5004,2.5873,2.6164,2.6164,2.6164,2.6164,2.6164,2.6164,2.6362,2.6544,2.6544,2.6635,2.662,2.6104,2.5853,2.5613,2.5126,2.4958,2.4908,2.4908,2.4029,2.324,2.3238,2.3226,2.3153,2.3078,2.3078,2.3078,2.3078,2.3078,0.0,2.2359,2.1418,2.0857,2.0731,1.9284,1.8668,1.9047,1.9683,2.0205,2.0685,2.077,2.1079,2.1647,2.2438,2.2736,2.2617,2.085,2.0227,0.0,0.0,0.0,0.0,0.0,0.0,0.0,0.0,0.0,0.0,0.0,0.0,0.0,0.0,0.0,1.6143,1.7148,1.791,1.833,1.8701,1.8818,1.8545,1.8896,1.9326,1.9756,1.9795,1.9941,2.0293,2.0391,2.0439,2.0439,2.0518,2.0566,2.0566,2.0566,2.0566,2.0566,2.0566,2.0566,2.0566,2.0566,0.0,2.0566,2.0566,2.0566,2.0566,2.0566,2.0566,2.0566,2.0566,2.0566,2.0566,2.0566,2.0566,2.0712,2.1669,2.2103,2.2403,2.322,2.3514,2.3514,2.3745,2.3818,2.3818,2.4036,2.4097,0.0,2.4097,2.4097,2.4097,2.4097,2.4684,2.5329,2.5329,2.5371,2.5573,2.6236,2.5747,2.5391,2.6058,2.5774,2.5448,2.5448,2.4921,2.4343,2.3904,2.3841,2.3665,2.3128,2.3078,2.3078,2.3078,2.3078,2.2852,2.2359,2.2121,2.1606,2.0769,2.0429,2.0026,1.9649,2.0614,2.099,2.0611,2.1064,2.1346,2.1453,2.2737,2.2991,2.2282,2.2668,2.2506,0.0,0.0,0.0,0.0,0.0,0.0,0.0,0.0,0.0,0.0,0.0,1.3533,1.4883,0.0,1.6436,1.751,1.8223,1.8721,1.8936,1.9336,1.9521,1.9297,1.9473,1.9766,2.0195,2.0244,2.0332,2.0547,2.0566,2.0566,2.0566,2.0566,2.0664,2.0889,2.0898,2.1006,2.123,2.123,2.123,2.123,2.123,2.123,2.123,2.123,2.123,2.1211,2.0996,2.1025,2.123,2.123,2.123,2.1201,2.0986,2.0762,2.0644,2.1155,2.1298,2.1375,2.1897,2.2048,2.2124,2.2627,2.2776,2.285,2.3368,2.3514,2.3514,2.3514,2.3514,2.3514,2.3514,2.3891,2.4264,2.4264,2.4264,2.4409,2.4909,2.4624,2.4409,2.4909,2.4767,2.4576,2.4576,2.4305,2.4026,2.3697,2.4075,2.4103,2.3274,2.3641,2.3879,2.3602,2.3565,2.3339,2.2774,2.2472,2.1958,2.1129,2.1079,2.0953,2.0652,2.1174,2.1508,2.1524,2.1756,2.2062,2.2401,2.3459,2.3783,2.3529,2.4426,2.4168,0.0,0.0,0.0,0.0,0.0,0.0,0.0,1.2119,1.2676,1.3994,1.4531,1.5244,1.6753,1.7393,1.7881,1.8643,1.9121,1.9404,1.9404,1.9775,2.0039,2.0039,2.0039,2.0176,2.0527,2.0566,2.0566,2.0566,2.0566,2.0566,2.0566,2.0644,2.0859,2.1221,2.1318,2.1533,2.1885,2.1885,2.1885,2.1885,2.1885,2.1885,2.1885,2.1885,2.1885,2.1865,2.1514,2.1562,2.1885,2.1885,2.1885,2.1846,2.1504,2.1143,2.0801,2.0625,2.0566,2.0566,2.0566,2.0566,2.0712,2.1441,2.1735,2.1886,2.2702,2.2936,2.2936,2.2936,2.2936,2.2936,2.2936,2.3073,2.322,2.322,2.322,2.3294,2.3441,2.3368,2.3294,2.3441,2.3514,2.3514,2.3514,2.3514,2.344,2.3222,2.3857,2.4098,2.3356,2.3989,2.4439,2.4205,2.4155,2.3929,2.3351,2.2786,2.2284,2.1832,2.1807,2.1757,2.1656,2.1757,2.197,2.2382,2.2486,2.2799,2.3326,2.4109,2.4436,2.4463,2.5522,2.5378,0.9738,1.0037,1.0393,1.1304,1.178,1.2676,0.0,1.5225,1.5352,1.668,1.6992,1.7305,1.8252,1.8467,1.8652,1.9131,1.957,1.9844,1.9844,2.0215,2.0498,2.0498,2.0498,2.0508,2.0557,2.0566,2.0566,2.0566,2.0566,2.0566,2.0566,2.0947,2.1182,2.123,2.1611,2.1836,2.1885,2.1885,2.1885,2.1885,2.1885,2.1885,2.1885,2.1885,2.1885,2.1885,2.1836,2.1836,2.1885,2.1885,2.1885,2.1875,2.1836,2.1777,2.1641,2.0859,2.0566,2.0566,2.0566,2.0566,2.0644,2.0712,2.0789,2.0789,2.0867,2.0934,2.0934,2.0934,2.0934,2.0934,2.0934,2.1517,2.2178,2.2178,2.2178,2.2403,2.3294,2.2776,2.2403,2.3294,2.3514,2.3514,2.3514,2.3514,2.3335,2.2857,2.2838,2.3029,2.327,2.3411,2.3821,2.4603,2.4732,2.4506,2.3954,2.3376,2.2952,2.289,2.289,2.2736,2.2234,2.2686,2.2711,2.2337,2.2757,2.3056,2.3115,2.4118,2.4131,2.331,2.482,2.6057,1.119,1.1865,1.2354,1.2522,1.3095,1.4176,1.602,1.5847,1.5886,1.7707,1.8115,1.8369,1.9228,1.9385,1.9521,1.9961,2.0176,2.0293,2.0293,2.0449,2.0469,2.0215,2.041,2.0566,2.0566,2.0566,2.0566,2.0566,2.081,2.0957,2.0957,2.1377,2.1728,2.1973,2.2158,2.2373,2.2617,2.2617,2.2617,2.2617,2.2617,2.2617,2.2617,2.2617,2.248,2.2266,2.251,2.248,2.2266,2.251,2.2617,2.2598,2.2344,2.2246,2.2178,2.1562,2.1338,2.1338,2.1338,2.1338,2.1338,2.1338,2.1162,2.1006,2.126,2.0977,2.0674,2.1191,2.1152,2.1016,2.1269,2.164,2.1879,2.1617,2.1547,2.1555,2.1731,2.1451,2.1298,2.1745,2.1821,2.1821,2.1821,2.1821,2.1759,2.1497,2.241,2.2989,2.2634,2.3041,2.3432,2.3569,2.3276,2.3007,2.2784,2.303,2.2895,2.2063,2.2507,2.2404,2.1372,2.2005,2.242,2.2517,2.3257,2.3791,2.4117,2.4305,2.4293,2.4092,2.4054,2.5104,1.2017,1.274,1.3208,1.3012,1.3804,1.4939,1.6459,1.6391,1.6538,1.8556,1.8994,1.9219,1.9961,2.0088,2.0195,2.0508,2.0566,2.0566,2.0566,2.0459,2.0312,2.0117,2.0273,2.0439,2.0557,2.0566,2.0615,2.0742,2.1055,2.1289,2.1406,2.1826,2.2197,2.25,2.2627,2.2832,2.3135,2.3135,2.3135,2.3135,2.3135,2.3135,2.3135,2.3135,2.2969,2.2705,2.3008,2.2969,2.2705,2.3018,2.3135,2.3105,2.2803,2.2685,2.2646,2.2344,2.209,2.1885,2.1885,2.1885,2.1885,2.1885,2.167,2.1475,2.1787,2.1435,2.1064,2.1709,2.166,2.1484,2.1807,2.1885,2.1807,2.1484,2.1318,2.1143,2.082,2.0654,2.0566,2.0566,2.0566,2.0566,2.0566,2.0566,2.0566,2.0566,2.1821,2.2553,2.2027,2.285,2.338,2.295,2.241,2.2121,2.2121,2.2605,2.2511,2.1464,2.2065,2.2035,2.1005,2.159,2.2098,2.2561,2.3228,2.3922,2.4828,2.4189,2.4063,2.4304,2.412,2.49,1.1455,1.1727,1.1912,1.253,1.3512,1.4775,1.659,1.7286,1.8053,1.9551,1.9873,2.0019,2.0469,2.0547,2.0547,2.0566,2.0566,2.0566,2.0566,2.0195,2.0088,2.0498,2.0185,2.0098,2.0527,2.0566,2.0742,2.1182,2.123,2.1416,2.1846,2.2266,2.25,2.251,2.291,2.3125,2.3135,2.3135,2.3135,2.3135,2.3135,2.3135,2.3135,2.3135,2.3135,2.3125,2.3135,2.3135,2.3125,2.3135,2.3135,2.3135,2.3125,2.3125,2.3115,2.3105,2.2588,2.1885,2.1885,2.1885,2.1885,2.1885,2.1875,2.1865,2.1885,2.1865,2.1855,2.1875,2.1875,2.1865,2.1885,2.1885,2.1885,2.1865,2.1543,2.123,2.1221,2.0869,2.0566,2.0566,2.0566,2.0566,2.0566,2.0566,2.0566,2.0566,2.0644,2.1011,2.1886,2.285,2.3514,2.3492,2.2983,2.2693,2.2693,2.2257,2.1909,2.1898,2.1898,2.1887,2.1865,2.1876,2.2058,2.2297,2.233,2.314,2.4767,2.3706,2.316,2.3195,2.5351,2.6402,1.1725,1.2435,1.2922,1.358,1.4157,1.5087,1.7389,1.7523,1.7723,1.9487,1.9912,1.9873,1.9736,1.9717,1.9805,2.0088,2.0137,2.0234,2.0527,2.0439,2.0293,2.0146,2.0254,2.0293,2.0146,2.0391,2.0625,2.0781,2.1338,2.138,2.0643,2.1281,2.1377,2.0491,2.1416,2.1933,2.1933,2.2677,2.3135,2.3135,2.3135,2.3135,2.3135,2.3135,2.3135,2.3135,2.3135,2.3135,2.3135,2.3135,2.3135,2.3135,2.3135,2.3135,2.3135,2.3135,2.2959,2.2715,2.2715,2.2715,2.2715,2.2715,2.2529,2.2353,2.2637,2.2324,2.2002,2.2559,2.2519,2.2363,2.2646,2.2083,2.1652,2.2184,2.1569,2.0959,2.1186,2.0524,2.0085,2.0537,2.0001,1.9766,2.0479,2.0566,2.0566,2.0566,2.0566,2.0712,2.1001,2.1385,2.1603,2.1603,2.1394,2.1302,2.1302,2.1744,2.1586,2.0647,2.1197,2.1132,2.0206,2.0744,2.1338,2.1858,2.1974,2.3351,2.5922,2.5545,2.5363,2.5363,2.6171,2.6533,1.2065,1.2691,1.3019,1.3835,1.4128,1.4914,1.7378,1.7344,1.7364,1.9259,1.957,1.9326,1.8906,1.8828,1.9014,1.959,1.9697,1.9742,2.0003,2.0188,2.0188,1.9811,2.0246,2.0576,2.0615,2.0869,2.0967,2.082,2.1183,2.1128,2.0328,2.0501,2.0305,1.9497,2.0657,2.1293,2.1293,2.2492,2.3135,2.3135,2.3135,2.3135,2.3135,2.3135,2.3135,2.3135,2.3135,2.3135,2.3135,2.3135,2.3135,2.3135,2.3135,2.3135,2.3135,2.3135,2.3135,2.3135,2.3135,2.3135,2.3135,2.3135,2.2959,2.2783,2.3057,2.2399,2.1817,2.2339,2.1942,2.1452,2.1789,2.1212,2.0792,2.1277,2.0736,2.0052,2.0336,1.9683,1.9212,1.9567,1.9004,1.8717,1.9301,1.9756,2.0157,2.0566,2.0566,2.0566,2.0566,2.0566,2.0566,2.0566,2.0566,2.0566,2.0566,2.1155,2.11,2.0242,2.0732,2.0676,1.983,2.031,2.0821,2.1298,2.1418,2.2407,2.4357,2.4403,2.5099,2.651,2.6487,2.5718,1.2391,1.2409,1.2231,1.336,1.3572,1.4206,1.6668,1.6861,1.7098,1.8756,1.8767,1.8329,1.7959,1.791,1.8223,1.9082,1.9258,1.9274,1.9085,1.9591,1.9889,1.9697,2.0286,2.0957,2.1807,2.1904,2.1738,2.1218,2.0894,2.0716,2.0629,1.9838,1.9405,1.9314,2.0477,2.1114,2.1203,2.2492,2.3135,2.3135,2.3135,2.3135,2.3135,2.3135,2.3135,2.3135,2.3135,2.3135,2.3135,2.3135,2.3135,2.3135,2.3135,2.3047,2.3047,2.3047,2.3047,2.3047,2.3047,2.3047,2.3135,2.3135,2.3135,2.3057,2.3047,2.2217,2.1293,2.1203,2.0395,1.9497,1.9497,1.9488,1.9405,1.9497,1.9134,1.8791,1.8774,1.8417,1.8083,1.7902,1.7828,1.7721,1.7368,1.829,1.9329,2.0274,2.0596,2.0596,2.0566,2.0566,2.0566,2.0566,2.0566,2.0566,2.0566,2.0566,2.0566,2.0566,2.0566,2.0566,2.0566,2.0566,2.0566,2.0566,2.0599,2.0611,2.0611,2.0619,2.256,2.6223,2.621,2.4259,1.1995,1.2662,1.3267,1.3567,1.3808,1.4345,1.5544,1.5551,1.5591,1.6551,1.652,1.6225,1.6088,1.6611,1.7334,1.8193,1.8867,1.9506,2.013,2.0595,2.0818,2.079,2.1254,2.1641,2.1865,2.2168,2.1813,2.043,2.0522,2.0271,1.9306,1.8581,1.7677,1.6741,1.7948,1.9047,1.9943,2.2041,2.3135,2.3135,2.3135,2.3135,2.3135,2.3135,2.3135,2.3135,2.3135,2.3135,2.3135,2.3135,2.3135,2.3135,2.3135,2.258,2.1756,2.1756,2.1756,2.1756,2.1756,2.2306,2.3135,2.3135,2.3135,2.295,2.2031,2.1569,2.1114,2.0215,1.9761,1.9497,1.9497,1.8864,1.8411,1.9314,1.87,1.8125,1.8759,1.8168,1.7559,1.8005,1.8112,1.8079,1.7989,1.8979,1.9475,1.8616,1.9984,2.0947,2.0605,2.0566,2.0566,2.0566,2.0566,2.0566,2.0566,2.0566,2.0566,2.0566,2.0566,2.0566,2.0566,2.0566,2.0566,2.0566,2.0566,2.0613,2.0604,2.0621,2.1107,2.2126,2.2112,2.2371,1.2505,1.3133,1.3674,1.3808,1.3868,1.4104,1.4739,1.4713,1.4721,1.518,1.5201,1.51,1.4857,1.5566,1.6436,1.7305,1.832,1.9151,1.9525,2.0505,2.1057,2.0803,2.1627,2.2049,2.1703,2.1834,2.1332,1.9869,2.0043,1.9563,1.8061,1.7305,1.6574,1.5825,1.7037,1.8326,1.9497,2.0863,2.1498,2.1498,2.1498,2.1498,2.1498,2.2041,2.2306,2.2306,2.2862,2.3135,2.3135,2.3135,2.3135,2.3047,2.2492,2.1943,2.1203,2.0666,2.0477,2.0477,2.0477,2.0944,2.1587,2.2129,2.2306,2.212,2.0845,2.0124,1.9579,1.8864,1.8311,1.7848,1.7848,1.7397,1.7037,1.7762,1.7397,1.6987,1.7437,1.7026,1.6656,1.6877,1.6876,1.6953,1.7375,1.8062,1.8418,1.8058,1.899,1.9643,1.9407,2.0115,2.0566,2.0566,2.0167,2.0089,2.0566,2.0167,2.0079,2.0566,2.0566,2.0566,2.0566,2.0566,2.0566,2.0566,2.0566,2.0566,2.0566,2.0631,2.0559,2.0581,2.0571,2.1288,1.3307,1.3647,1.3768,1.4021,1.3834,1.3668,1.4026,1.4047,1.4032,1.4054,1.426,1.4373,1.399,1.4668,1.5547,1.6494,1.7666,1.8442,1.854,2.0027,2.1043,2.0504,2.158,2.2102,2.1355,2.1203,2.0576,1.9314,1.9222,1.8629,1.716,1.6234,1.5832,1.5832,1.7037,1.8234,1.9222,1.9405,1.9497,1.9497,1.9497,1.9497,1.9588,2.0576,2.1114,2.1382,2.2403,2.2862,2.2862,2.2862,2.2775,2.2501,2.148,2.0935,2.0666,1.9679,1.9222,1.9222,1.9222,1.9405,1.967,2.0755,2.1025,2.0845,1.9588,1.8503,1.7684,1.7505,1.6669,1.5832,1.5832,1.5832,1.5832,1.5832,1.5832,1.5832,1.5832,1.5832,1.5752,1.5504,1.5251,1.5424,1.6373,1.664,1.6971,1.7715,1.7884,1.7842,1.7709,1.9147,2.0157,2.0157,1.9353,1.9116,2.0079,1.9441,1.9362,2.0323,2.0489,2.0566,2.0566,2.0566,2.0566,2.0566,2.0566,2.0566,2.0566,2.0566,2.0594,2.0576,2.0635,2.0961,1.3227,1.3641,1.4021,1.4075,1.3687,1.3126,1.2736,1.2556,1.2337,1.2192,1.2471,1.2807,1.3074,1.3789,1.4756,1.5986,1.6982,1.8066,1.9464,2.0517,2.1306,2.1569,2.1568,2.1496,2.1284,2.0395,1.9314,1.8141,1.8048,1.7933,1.7602,1.6445,1.5832,1.5832,1.7037,1.7777,1.8048,1.9047,1.9497,1.9497,1.9497,1.9497,1.9497,1.9761,2.0395,2.1293,2.148,2.1569,2.1569,2.1569,2.1033,2.0124,1.9852,1.9222,1.8319,1.8048,1.8048,1.8048,1.8048,1.8688,1.9488,1.9761,1.9852,1.9588,1.8411,1.787,1.7505,1.6386,1.6015,1.5832,1.5832,1.5832,1.5832,1.5832,1.5832,1.5832,1.5832,1.5832,1.5812,1.5765,1.5712,1.5678,1.5953,1.6779,1.7147,1.6071,1.7497,1.8225,1.698,1.7406,1.79,1.79,1.7747,1.7658,1.7819,1.855,1.9116,1.9283,2.0089,2.0566,2.0566,2.0566,2.0566,2.0566,2.0566,2.0566,2.0566,2.0566,2.0615,2.0575,2.1056,2.1292,1.3394,1.3754,1.4048,1.3895,1.3407,1.2732,1.1824,1.1444,1.127,1.0966,1.1232,1.1718,1.2387,1.3232,1.4082,1.4922,1.5986,1.7217,1.8711,1.9863,2.0879,2.1777,2.1547,2.1025,2.0395,1.9314,1.8041,1.6756,1.6669,1.6669,1.6669,1.6109,1.5832,1.5832,1.6386,1.6669,1.6669,1.7304,1.7569,1.7569,1.7569,1.7569,1.7576,1.8226,1.8864,1.9497,2.0124,2.0395,2.0395,2.0395,2.0034,1.9405,1.8772,1.8234,1.7591,1.6943,1.6669,1.6669,1.6669,1.7124,1.7569,1.7569,1.8041,1.8319,1.7124,1.6669,1.6574,1.6015,1.5832,1.5832,1.5832,1.5832,1.5832,1.5832,1.5832,1.5832,1.5832,1.5832,1.5832,1.5832,1.5832,1.5832,1.5832,1.6298,1.6432,1.5732,1.6487,1.6769,1.6083,1.6009,1.6499,1.7482,1.6876,1.6683,1.7253,1.7253,1.7683,1.8656,1.9195,1.9766,2.0585,2.0635,1.9509,1.7274,1.9412,2.0625,2.0595,2.0625,2.0771,2.1026,2.1262,2.1595,1.3373,1.3667,1.3841,1.3607,1.3053,1.2352,1.1424,1.0966,1.0701,1.0491,1.0701,1.1245,1.2056,1.2783,1.3428,1.398,1.5068,1.6309,1.7793,1.9111,2.041,2.1728,2.1277,2.0576,1.9579,1.8133,1.6857,1.5927,1.5832,1.5832,1.5832,1.5832,1.5832,1.5832,1.5832,1.5832,1.5832,1.5832,1.5832,1.5832,1.5832,1.5832,1.5832,1.685,1.7412,1.7777,1.868,1.9131,1.9131,1.9131,1.8948,1.858,1.7677,1.7318,1.7131,1.6197,1.5832,1.5832,1.5832,1.5832,1.5832,1.5832,1.648,1.7131,1.6109,1.5832,1.5832,1.5832,1.5832,1.5832,1.5832,1.5832,1.5832,1.5832,1.5832,1.5832,1.5832,1.5832,1.5832,1.5832,1.5832,1.5832,1.5832,1.5832,1.5832,1.5832,1.5631,1.5491,1.5491,1.5237,1.5665,1.7126,1.6199,1.589,1.6637,1.6133,1.6397,1.7834,1.8078,1.8931,2.049,1.9734,1.762,1.4135,1.7618,1.972,2.0311,2.0385,2.0787,2.1497,2.1585,2.1977,1.2746,1.3053,1.3287,1.326,1.2592,1.1988,1.1904,1.1501,1.1096,1.1112,1.1341,1.1655,1.2102,1.2248,1.2686,1.3883,1.4561,1.5635,1.7715,1.9111,2.041,2.1728,2.057,1.9579,1.9488,1.739,1.592,1.5832,1.5832,1.5832,1.5832,1.5832,1.5832,1.5832,1.5832,1.5832,1.5832,1.5832,1.5832,1.5832,1.5832,1.5832,1.5832,1.592,1.6574,1.7692,1.7777,1.787,1.787,1.787,1.7217,1.6103,1.6015,1.6015,1.592,1.5825,1.5832,1.5832,1.5832,1.5832,1.5832,1.5832,1.5927,1.592,1.5832,1.5832,1.5832,1.5832,1.5832,1.5832,1.5832,1.5832,1.5832,1.5832,1.5832,1.5832,1.5832,1.5832,1.5832,1.5832,1.5832,1.5832,1.5832,1.5832,1.5832,1.5832,1.5805,1.5792,1.5792,1.5538,1.5436,1.5586,1.532,1.494,1.4756,1.5555,1.6117,1.6374,1.7041,1.8322,2.0485,1.6798,1.4515,1.4075,1.4993,1.6783,1.9462,1.9814,2.0634,2.1846,2.2227,2.2441,1.254,1.3279,1.3846,1.3128,1.2618,1.218,1.186,1.1133,1.0623,1.0818,1.0563,1.0662,1.1645,1.1826,1.2168,1.3213,1.3525,1.4209,1.584,1.6953,1.8369,2.0449,1.9353,1.8699,1.943,1.7296,1.5832,1.5832,1.5832,1.5832,1.5832,1.5832,1.5832,1.5832,1.5832,1.5832,1.5832,1.5832,1.5832,1.5832,1.5832,1.5832,1.5832,1.5832,1.6109,1.6574,1.6574,1.6574,1.6574,1.6574,1.6298,1.5832,1.5832,1.5832,1.5832,1.5832,1.5832,1.5832,1.5832,1.5832,1.5832,1.5832,1.5832,1.5832,1.5832,1.5832,1.5832,1.5832,1.5832,1.5832,1.5832,1.5832,1.5832,1.5832,1.5832,1.5832,1.5832,1.5832,1.5832,1.5832,1.5832,1.5832,1.5832,1.5832,1.5832,1.5832,1.5832,1.5832,1.5832,1.5732,1.5658,1.5658,1.5244,1.4917,1.4796,1.5109,1.514,1.4935,1.5218,1.5793,1.6656,1.5666,1.4989,1.4622,1.5801,1.6823,1.7656,1.9169,2.0416,2.1202,2.2072,2.2646,1.2572,1.3499,1.4306,1.3198,1.2854,1.2561,1.1896,1.1074,1.051,1.0831,1.028,1.0127,1.1353,1.1606,1.189,1.2734,1.2988,1.3455,1.4495,1.5441,1.6778,1.8685,1.7831,1.7507,1.8628,1.6908,1.5832,1.5832,1.5832,1.5832,1.5832,1.5832,1.5832,1.5832,1.5832,1.5832,1.5832,1.5832,1.5832,1.5832,1.5832,1.5832,1.5832,1.5832,1.5832,1.5832,1.5832,1.5832,1.5832,1.5832,1.5832,1.5832,1.5832,1.5832,1.5832,1.5832,1.5832,1.5832,1.5832,1.5832,1.5832,1.5832,1.5832,1.5832,1.5832,1.5832,1.5832,1.5832,1.5832,1.5832,1.5832,1.5832,1.5832,1.5832,1.5832,1.5832,1.5832,1.5832,1.5832,1.5832,1.5832,1.5832,1.5832,1.5832,1.5832,1.5832,1.5832,1.5832,1.5832,1.5832,1.5832,1.5832,1.5464,1.5184,1.5097,1.4889,1.4655,1.4171,1.4128,1.4256,1.4627,1.5198,1.5405,1.5043,1.6221,1.6772,1.6817,1.8846,2.0174,2.0887,2.215,2.2852,1.2874,1.3695,1.4292,1.3476,1.3361,1.3159,1.2309,1.1528,1.1129,1.1508,1.092,1.0547,1.1449,1.1606,1.189,1.2734,1.3232,1.3671,1.4159,1.5214,1.6051,1.6546,1.6246,1.6126,1.6798,1.6204,1.5832,1.5832,1.5832,1.5832,1.5832,1.5832,1.5832,1.5832,1.5832,1.5832,1.5832,1.5832,1.5832,1.5832,1.5832,1.5832,1.5832,1.5832,1.5832,1.5832,1.5832,1.5832,1.5832,1.5832,1.5832,1.5832,1.5832,1.5832,1.5832,1.5832,1.5832,1.5832,1.5832,1.5832,1.5832,1.5832,1.5832,1.5832,1.5832,1.5832,1.5832,1.5832,1.5832,1.5832,1.5832,1.5832,1.5832,1.5832,1.5832,1.5832,1.5832,1.5832,1.5832,1.5832,1.5832,1.5832,1.5832,1.5832,1.5832,1.5832,1.5832,1.5832,1.5832,1.5832,1.5832,1.5832,1.5825,1.5604,1.5213,1.5186,1.4852,1.4161,1.4142,1.4641,1.5763,1.5259,1.5053,1.5163,1.5342,1.6007,1.7244,1.8755,2.0116,2.1293,2.2492,2.3135,1.1361,1.2321,1.3265,1.2516,1.2658,1.2834,1.2586,1.1926,1.1452,1.1582,1.092,1.0587,1.1449,1.1606,1.2086,1.3496,1.3848,1.3901,1.3784,1.4702,1.546,1.588,1.662,1.6867,1.616,1.59,1.5832,1.5832,1.5832,1.5832,1.5832,1.5832,1.5832,1.5832,1.5832,1.5832,1.5832,1.5832,1.5832,1.5832,1.5832,1.5832,1.5832,1.5832,1.5832,1.5832,1.5832,1.5832,1.5832,1.5832,1.5832,1.5832,1.5832,1.5832,1.5832,1.5832,1.5832,1.5832,1.5832,1.5832,1.5832,1.5832,1.5832,1.5832,1.5832,1.5832,1.5832,1.5832,1.5832,1.5832,1.5832,1.5832,1.5832,1.5832,1.5832,1.5534,1.4657,1.4459,1.4268,1.3301,1.3108,1.3108,1.3108,1.3108,1.3108,1.3108,1.3884,1.4459,1.4459,1.5242,1.5832,1.5832,1.5832,1.5792,1.5597,1.5591,1.5471,1.5277,1.5257,1.5379,1.5784,1.5665,1.5572,1.5572,1.5651,1.5873,1.6227,1.7624,1.9314,2.1293,2.1667,2.2306,1.0913,1.2203,1.3238,1.2471,1.2645,1.2877,1.2396,1.1797,1.1351,1.1351,1.0762,1.0587,1.1449,1.1606,1.2067,1.3428,1.3789,1.3664,1.3129,1.3896,1.4653,1.4827,1.5955,1.6416,1.5591,1.5698,1.5832,1.5832,1.5832,1.5832,1.5832,1.5832,1.5832,1.5832,1.5832,1.5832,1.5832,1.5832,1.5832,1.5832,1.5832,1.5832,1.5832,1.5832,1.5832,1.5832,1.5832,1.5832,0.0,1.5832,1.5832,1.5832,1.5832,1.5832,1.5832,1.5832,1.5832,1.5832,1.5832,1.5832,1.5832,1.5832,1.5832,1.5832,1.5832,1.5832,1.5832,1.5832,1.5832,1.5832,1.5832,1.5832,1.5832,1.5832,1.5439,1.4854,1.407,1.3488,1.2909,1.2042,1.1945,1.1945,1.1945,1.1945,1.1945,1.1945,1.2624,1.3295,1.3872,1.4561,1.5242,1.573,1.5832,1.5832,1.5832,1.5832,1.5758,1.5785,1.5778,1.5797,1.5817,1.5783,1.5778,1.5778,1.5839,1.5832,1.5832,1.7037,1.868,2.0657,2.1114,2.1658,0.0,1.2739,1.3671,1.2932,1.3044,1.3051,1.1873,1.123,0.0,1.0908,1.0576,1.0596,1.1489,1.1626,1.193,1.2861,1.3319,1.3208,1.229,1.3092,1.3678,1.3723,1.4502,1.5023,1.5023,1.5511,1.5832,1.5832,1.5832,1.5832,1.5832,1.5832,1.5832,1.5832,1.5832,1.5832,1.5832,1.5832,1.5832,1.5832,1.5832,1.5832,1.5832,1.5832,1.5832,1.5832,1.5832,1.5832,1.5832,1.5832,1.5832,1.5832,1.5832,1.5832,1.5832,1.5832,1.5832,1.5832,1.5832,1.5832,1.5832,1.5832,1.5832,1.5832,1.5832,1.5832,1.5832,1.5832,1.5832,1.5832,1.5832,1.573,1.5635,1.5635,1.4657,1.368,1.368,1.2619,1.175,1.1653,1.1653,1.1653,1.1653,1.1653,1.1653,1.1653,1.1653,1.2237,1.3584,1.3878,1.4364,1.5635,1.5832,1.5832,1.5832,1.5832,1.5832,1.5832,1.5832,1.5832,1.5832,1.5832,1.5832,1.5832,1.5832,1.5832,1.5832,1.6943,1.8234,1.9405,2.0486,2.1114,0.9905,0.0,1.1426,1.1382,1.1701,1.1982,0.0,1.1228,1.0908,1.0908,1.0576,1.0654,1.1846,1.1787,1.2214,1.4033,1.411,1.3726,1.3153,1.3401,1.3897,1.4616,1.5231,1.5625,1.5625,1.5752,1.5832,1.5832,1.5832,1.5832,1.5832,1.5832,1.5832,1.5832,1.5832,1.5832,1.5832,1.5832,1.5832,1.5832,1.5832,1.5832,1.5832,1.5832,1.5832,1.5832,1.5832,1.5832,1.5832,1.5832,1.5832,1.5832,1.5832,1.5832,1.5832,1.5832,1.5832,1.5832,1.5832,1.5832,1.5832,1.5832,1.5832,1.5832,1.5832,1.5832,1.5832,1.5832,1.5832,1.5832,1.5832,1.5045,1.4364,1.4364,1.3301,1.2139,1.1165,1.0681,1.0096,0.9118,0.892,0.892,0.892,0.892,0.892,0.892,0.9801,1.0877,1.2231,1.3295,1.4364,1.5635,1.5832,1.5832,1.5832,1.5832,1.5832,1.5832,1.5832,1.5832,1.5832,1.5832,1.5832,1.5832,1.5832,1.5832,1.5832,1.6109,1.685,1.8141,1.8411,1.9588,0.8994,0.9858,1.0813,1.1136,1.143,1.1606,1.1606,1.1074,1.0625,1.0625,1.0596,1.085,1.1758,1.1757,1.2108,1.3569,1.3602,1.3489,1.365,1.386,1.4275,1.489,1.5478,1.5832,1.5832,1.5832,1.5832,1.5832,1.5832,1.5832,1.5832,1.5832,1.5832,1.5832,1.5832,1.5832,1.5832,1.5832,1.5832,1.5832,1.5832,1.5832,1.5832,1.5832,1.5832,1.5832,1.5832,1.5832,1.5832,1.5832,1.5832,1.5832,1.5832,1.5832,1.5832,1.5832,1.5832,1.5832,1.5832,1.5832,1.5832,1.5832,1.5832,1.5832,1.5832,1.5439,1.5045,1.5635,1.5343,1.4949,1.4949,1.3974,1.3011,1.3011,1.194,1.0877,1.0194,0.9509,0.8821,0.8137,0.8038,0.8038,0.8038,0.8038,0.8038,0.8038,0.863,0.9509,1.0877,1.1648,1.2727,1.4418,1.5313,1.581,1.581,1.581,1.5783,1.5832,1.5832,1.5832,1.5832,1.5832,1.5832,1.5832,1.5832,1.5832,1.5832,1.5832,1.6109,1.685,1.7412,1.8411,0.8516,0.9668,1.0898,1.1312,1.1508,1.1606,1.1606,1.1038,1.0518,1.0518,1.0762,1.1182,1.1792,1.1759,1.1963,1.2817,1.2947,1.3154,1.3812,1.4234,1.4629,1.493,1.5478,1.5832,1.5832,1.5832,1.5832,1.5832,1.5832,1.5832,1.5832,1.5832,1.5832,1.5832,1.5832,1.5832,1.5832,1.5832,1.5832,1.5832,1.5832,1.5832,1.5832,1.5832,1.5832,1.5832,1.5832,1.5832,1.5832,1.5832,1.5832,1.5832,1.5832,1.5832,1.5832,1.5832,1.5832,1.5832,1.5832,1.5832,1.5832,1.5832,1.5832,1.573,1.5534,1.4752,1.407,1.4949,1.4465,1.3584,1.3584,1.2619,1.1658,1.1658,1.0583,0.9706,0.9706,0.8825,0.8038,0.8038,0.8038,0.8038,0.8038,0.8038,0.8038,0.8038,0.8038,0.8531,0.9903,1.01,1.1002,1.3333,1.4908,1.58,1.58,1.5044,1.4783,1.5197,1.5534,1.5845,1.5832,1.5832,1.5832,1.5832,1.5832,1.5832,1.5832,1.5832,1.5832,1.5832,1.6943,1.7505,0.9106,0.9902,1.04,1.0459,1.1067,1.1606,1.1606,1.1498,1.141,1.141,1.1459,1.1816,1.2988,1.254,1.251,1.3994,1.3632,1.333,1.36,1.4173,1.4629,1.493,1.5478,1.5832,1.5832,1.5832,1.5832,1.5832,1.5832,1.5832,1.5832,1.5832,1.5832,1.5832,1.5832,1.5832,1.5832,1.5832,1.5832,1.5832,1.5832,1.5832,1.5832,1.5832,1.5832,1.5832,1.5832,1.5832,1.5832,1.5832,1.5832,1.5832,1.5832,1.5832,1.5832,1.5832,1.5832,1.5832,1.5832,1.5832,1.5832,1.5832,1.5832,1.5629,1.4561,1.407,1.368,1.2721,1.2334,1.2237,1.2237,1.1263,1.0288,1.0288,0.9312,0.8333,0.8333,0.8137,0.8038,0.8038,0.8038,0.8038,0.8038,0.8038,0.8038,0.8038,0.8038,0.8634,1.0314,1.0516,1.1737,1.5045,1.566,1.58,1.58,1.1788,1.0127,1.2373,1.4543,1.583,1.5832,1.5832,1.5832,1.5832,1.5832,1.5832,1.5832,1.5832,1.5832,1.5832,1.6015,1.6662,0.873,0.96,1.0342,1.0566,1.1279,1.1924,1.1924,1.1924,1.1924,1.1924,1.1959,1.215,1.2716,1.2303,1.213,1.3178,1.3395,1.3482,1.3587,1.4148,1.4569,1.471,1.5237,1.5591,1.5591,1.5732,1.5832,1.5832,1.5832,1.5832,1.5832,1.5832,1.5832,1.5832,1.5832,1.5832,1.5832,1.5832,1.5832,1.5832,1.5832,1.5832,1.5832,1.5832,1.5832,1.5832,1.5832,1.5832,1.5832,1.5832,1.5832,1.5832,1.5832,1.5832,1.5832,1.5832,1.5832,1.5832,1.5832,1.5832,1.5832,1.5832,1.5337,1.4657,1.407,1.2909,1.1648,1.1068,1.0877,1.0877,1.0877,0.9899,0.892,0.892,0.8432,0.8038,0.8038,0.8038,0.8038,0.8038,0.8038,0.8038,0.8038,0.8038,0.8038,0.8038,0.8038,0.8336,0.913,0.9229,0.9838,1.1368,1.159,1.1633,1.1633,0.9377,0.9328,1.2453,1.4632,1.5783,1.5832,1.5832,1.5832,1.5832,1.5832,1.5832,1.5832,1.5832,1.5832,1.5832,1.5832,1.6109,0.8496,0.9385,1.0283,1.0908,1.1728,1.2385,1.2579,1.2628,1.2686,1.289,1.2974,1.3004,1.2878,1.2482,1.2244,1.2499,1.3206,1.3748,1.3748,1.4195,1.4522,1.4522,1.4977,1.5317,1.5391,1.5598,1.5758,1.5825,1.5765,1.5758,1.5825,1.5765,1.5758,1.5825,1.5832,1.5832,1.5832,1.5832,1.5832,1.5832,1.5832,1.5832,1.5832,1.5832,1.5832,1.5832,1.5832,1.5832,1.5832,1.5832,1.5832,1.5832,1.5832,1.5832,1.5832,1.5832,1.5832,1.5832,1.5832,1.5832,1.573,1.5439,1.4657,1.3776,1.3199,1.1551,0.9899,0.9608,0.9509,0.9509,0.9509,0.8726,0.8038,0.8038,0.8038,0.8038,0.8038,0.8038,0.8038,0.8038,0.8038,0.8038,0.8038,0.8038,0.8038,0.8038,0.8038,0.8038,0.8038,0.8038,0.8038,0.8038,0.7987,0.7953,0.7953,0.8347,0.9722,1.2281,1.425,1.5343,1.5343,1.5635,1.5832,1.5832,1.5832,1.5832,1.5832,1.5832,1.5832,1.5832,1.5832,1.5832,0.9174,0.9573,0.9971,1.1243,1.2178,1.3037,1.3766,1.3941,1.4165,1.5019,1.5167,1.504,1.4635,1.4142,1.3683,1.3243,1.3654,1.4055,1.4055,1.4322,1.4522,1.4522,1.4803,1.5104,1.5371,1.5418,1.5538,1.5805,1.5578,1.5545,1.5812,1.5571,1.5551,1.5818,1.5832,1.5832,1.5832,1.5832,1.5832,1.5832,1.5832,1.5832,1.5832,1.5832,1.5832,1.5832,1.5832,1.5832,1.5832,1.5832,1.5832,1.5832,1.5832,1.5832,1.5832,1.5832,1.5832,1.5832,1.5832,1.5832,1.5635,1.4459,1.3974,1.3488,1.1068,1.0194,0.9702,0.8531,0.8137,0.8137,0.8137,0.8038,0.8038,0.8038,0.8038,0.8038,0.8038,0.8038,0.8038,0.8038,0.8038,0.8038,0.8038,0.8038,0.8038,0.8038,0.8038,0.8038,0.8038,0.8038,0.8038,0.8038,0.7987,0.7953,0.7953,0.9522,1.0334,1.0284,1.2614,1.407,1.407,1.5146,1.5832,1.5832,1.5832,1.5832,1.5832,1.5832,1.5832,1.5832,1.5832,1.5832,0.8652,0.9434,1.0215,1.0967,1.2021,1.3037,1.3613,1.416,1.4608,1.4911,1.4772,1.4226,1.3148,1.2963,1.301,1.3212,1.3547,1.3874,1.4062,1.4182,1.4249,1.4249,1.4509,1.473,1.4843,1.5017,1.517,1.5284,1.519,1.5177,1.5284,1.519,1.5177,1.5291,1.5464,1.5558,1.5558,1.5738,1.5832,1.5832,1.5832,1.5832,1.5832,1.5832,1.5832,1.5832,1.5832,1.5832,1.5832,1.5832,1.5832,1.5832,1.5832,1.5832,1.5832,1.5832,1.5832,1.5832,1.5832,1.5242,1.4555,1.407,1.2807,1.1258,1.0293,0.941,0.8627,0.8137,0.8038,0.8038,0.8038,0.8038,0.8038,0.8038,0.8038,0.8038,0.8038,0.8038,0.8038,0.8038,0.8038,0.8038,0.8038,0.8038,0.8038,0.8038,0.8038,0.8038,0.8038,0.8038,0.8038,0.8038,0.8021,0.8007,0.8007,0.8598,0.8905,0.8722,1.1161,1.3006,1.3878,1.4364,1.4949,1.5825,1.5832,1.5832,1.5832,1.5832,1.5832,1.5832,1.5832,1.5832,0.8652,0.9609,1.0576,1.1006,1.181,1.274,1.3698,1.4244,1.4606,1.4665,1.4305,1.3684,1.2671,1.2546,1.2726,1.314,1.3534,1.3854,1.4055,1.4088,1.4088,1.4088,1.4262,1.4422,1.4509,1.4703,1.4863,1.4957,1.4877,1.4863,1.4957,1.4877,1.487,1.4963,1.5157,1.5257,1.5257,1.5545,1.5691,1.5691,1.5785,1.5832,1.5832,1.5832,1.5832,1.5832,1.5832,1.5832,1.5832,1.5832,1.5832,1.5832,1.5832,1.5832,1.5832,1.5832,1.5832,1.573,1.5337,1.4657,1.3776,1.2904,1.1453,0.9899,0.9509,0.8726,0.8038,0.8038,0.8038,0.8038,0.8038,0.8038,0.8038,0.8038,0.8038,0.8038,0.8038,0.8038,0.8038,0.8038,0.8038,0.8038,0.8038,0.8038,0.8038,0.8038,0.8038,0.8038,0.8038,0.8038,0.8038,0.8038,0.8038,0.8038,0.8038,0.8038,0.8038,0.8038,0.9702,1.1458,1.3199,1.3686,1.4459,1.5737,1.5832,1.5832,1.5832,1.5832,1.5832,1.5832,1.5832,1.5832,0.9466,1.0215,1.1016,1.1498,1.1621,1.2199,1.4318,1.4408,1.4118,1.4597,1.4144,1.3673,1.368,1.3397,1.3206,1.3213,1.3707,1.4082,1.4088,1.4088,1.4088,1.4088,1.4088,1.4202,1.4489,1.4516,1.4636,1.4937,1.4683,1.4643,1.4937,1.4676,1.4649,1.4943,1.4957,1.4963,1.4963,1.5251,1.5391,1.5398,1.5685,1.5825,1.5832,1.5825,1.5825,1.5825,1.5818,1.5818,1.5818,1.5818,1.5818,1.5825,1.5825,1.5825,1.5832,1.5832,1.5832,1.5635,1.4364,1.3872,1.3488,1.0872,0.9998,0.9706,0.8432,0.8038,0.8038,0.8038,0.8038,0.8038,0.8038,0.8038,0.8038,0.8038,0.8038,0.8038,0.8038,0.8038,0.8038,0.8038,0.8038,0.8038,0.8038,0.8038,0.8038,0.8038,0.8038,0.8038,0.8038,0.8038,0.8038,0.8038,0.8038,0.8038,0.8038,0.8038,0.8038,0.8038,0.8038,0.9217,1.175,1.3199,1.4465,1.5737,1.5832,1.5832,1.5832,1.5832,1.5832,1.5832,1.5832,1.5832,0.8877,0.9805,1.1016,1.1498,1.2512,1.3516,1.4239,1.3978,1.3686,1.3948,1.331,1.2802,1.3016,1.2988,1.3019,1.3447,1.3661,1.3848,1.4055,1.4088,1.4088,1.4088,1.4088,1.4122,1.4208,1.4215,1.4249,1.4342,1.4262,1.4255,1.4342,1.4262,1.4255,1.4342,1.4543,1.4656,1.4656,1.4943,1.5197,1.5398,1.5277,1.5431,1.5818,1.5618,1.5524,1.5511,1.5311,1.5217,1.5217,1.5217,1.5344,1.5524,1.5524,1.5651,1.5832,1.5832,1.5832,1.5635,1.4364,1.3295,1.2237,1.0583,0.9312,0.8531,0.8137,0.8038,0.8038,0.8038,0.8038,0.8038,0.8038,0.8038,0.8038,0.8038,0.8038,0.8038,0.8038,0.8038,0.8038,0.8038,0.8038,0.8038,0.8038,0.8038,0.8038,0.8038,0.8038,0.8038,0.8038,0.8038,0.8038,0.8038,0.8038,0.8038,0.8038,0.8038,0.8038,0.8038,0.8924,1.019,1.1848,1.2237,1.3494,1.573,1.5832,1.5832,1.5832,1.5832,1.5832,1.5832,1.5832,1.5832,0.9639,1.0645,1.1797,1.2227,1.2982,1.3599,1.3638,1.3461,1.3336,1.3165,1.2659,1.2358,1.2532,1.2766,1.3053,1.3414,1.3667,1.3881,1.4062,1.4088,1.4088,1.4088,1.4088,1.4088,1.4088,1.4088,1.4088,1.4088,1.4088,1.4088,1.4088,1.4088,1.4088,1.4088,1.4255,1.4349,1.4349,1.4643,1.4877,1.5044,1.499,1.515,1.5478,1.5304,1.5224,1.5217,1.5037,1.4963,1.4963,1.4963,1.507,1.5224,1.5224,1.5331,1.5405,1.5029,1.4879,1.4609,1.2967,1.1843,1.0974,0.9608,0.8627,0.8038,0.8038,0.8038,0.8038,0.8038,0.8038,0.8038,0.8038,0.8038,0.8038,0.8038,0.8038,0.8038,0.8038,0.8038,0.8038,0.8038,0.8038,0.8038,0.8038,0.8038,0.8038,0.8038,0.8038,0.8038,0.8038,0.8038,0.8038,0.8038,0.8038,0.8038,0.8038,0.8038,0.8038,0.8038,0.8726,0.9998,1.1848,1.2431,1.3686,1.573,1.5832,1.5832,1.5832,1.5832,1.5832,1.5832,1.5832,1.5832,1.1126,1.2165,1.2988,1.3408,1.3343,1.3177,1.2937,1.321,1.3245,1.2464,1.2305,1.2311,1.2338,1.2792,1.318,1.3206,1.3661,1.4015,1.4041,1.4048,1.4055,1.4082,1.4088,1.4088,1.4088,1.4088,1.4088,1.4088,1.4088,1.4088,1.4088,1.4088,1.4088,1.4088,1.4088,1.4088,1.4088,1.4349,1.4496,1.4522,1.477,1.4897,1.4923,1.4923,1.491,1.4883,1.4883,1.4883,1.4883,1.4883,1.4897,1.4923,1.4923,1.4943,1.49,1.3749,1.3362,1.3017,1.0775,0.9972,0.978,0.8428,0.8038,0.8038,0.8038,0.8038,0.8038,0.8038,0.8038,0.8038,0.8038,0.8038,0.8038,0.8038,0.8038,0.8038,0.8038,0.8038,0.8038,0.8038,0.8038,0.8038,0.8038,0.8038,0.8038,0.8038,0.8038,0.8038,0.8038,0.8038,0.8038,0.8038,0.8038,0.8038,0.8038,0.8038,0.8038,0.8038,0.8233,0.941,1.1755,1.3102,1.4364,1.5737,1.5832,1.5832,1.5832,1.5832,1.5832,1.5832,1.5832,1.5832,1.0156,1.1436,1.2988,1.3408,1.4675,1.5582,1.4371,1.4437,1.4292,1.2652,1.2305,1.2371,1.2605,1.2835,1.2926,1.3173,1.332,1.348,1.3707,1.3741,1.3828,1.4055,1.4088,1.4088,1.4088,1.4088,1.4088,1.4088,1.4088,1.4088,1.4088,1.4088,1.4088,1.4088,1.4088,1.4088,1.4088,1.4148,1.4295,1.4516,1.4355,1.4396,1.4616,1.4616,1.4489,1.4275,1.4275,1.4275,1.4275,1.4275,1.4409,1.4616,1.4616,1.4756,1.488,1.3647,1.3203,1.2957,1.0659,0.987,0.961,0.8389,0.8038,0.8038,0.8038,0.8038,0.8038,0.8038,0.8038,0.8038,0.8038,0.8038,0.8038,0.8038,0.8038,0.8038,0.8038,0.8038,0.8038,0.8038,0.8038,0.8038,0.8038,0.8038,0.8038,0.8038,0.8038,0.8038,0.8038,0.8038,0.8038,0.8038,0.8038,0.8038,0.8038,0.8038,0.8038,0.8038,0.9899,1.1263,1.1853,1.2139,1.3397,1.573,1.5832,1.5832,1.5832,1.5832,1.5832,1.5832,1.5832,1.5832,1.0459,1.1543,1.2764,1.3603,1.5117,1.6081,1.485,1.506,1.496,1.3085,1.2497,1.2351,1.2505,1.2728,1.2876,1.2959,1.3113,1.3267,1.3414,1.344,1.3494,1.3647,1.3788,1.3874,1.3874,1.4001,1.4088,1.4088,1.4088,1.4088,1.4088,1.4088,1.4088,1.4088,1.4088,1.4088,1.4088,1.4088,1.4162,1.4309,1.4162,1.4168,1.4315,1.4315,1.4229,1.4088,1.4088,1.4088,1.4088,1.4088,1.4175,1.4315,1.4315,1.4043,1.3561,1.2439,1.1663,1.097,0.9337,0.8744,0.8676,0.8073,0.7929,0.7943,0.8018,0.8038,0.8038,0.8038,0.8038,0.8038,0.8038,0.8038,0.8038,0.8038,0.8038,0.8038,0.8038,0.8038,0.8038,0.8038,0.8038,0.8038,0.8038,0.8038,0.8038,0.8038,0.8038,0.8038,0.8038,0.8038,0.8038,0.8038,0.8038,0.8028,0.8001,0.8024,0.8326,0.9186,1.0373,1.1556,1.2818,1.2813,1.3788,1.573,1.5832,1.5832,1.5832,1.5832,1.5832,1.5832,1.5832,1.5832,1.0753,1.166,1.2511,1.3854,1.5107,1.5725,1.4914,1.5294,1.5347,1.3654,1.2956,1.2519,1.2305,1.2505,1.2741,1.2741,1.2886,1.3073,1.3126,1.3133,1.3153,1.32,1.3427,1.3567,1.3567,1.3834,1.4008,1.4008,1.4055,1.4088,1.4088,1.4088,1.4088,1.4088,1.4088,1.4088,1.4088,1.4088,1.4088,1.4088,1.4088,1.4088,1.4088,1.4088,1.4088,1.4088,1.4088,1.4088,1.4088,1.4088,1.4088,1.4088,1.4088,1.3379,1.218,1.117,0.9999,0.8955,0.787,0.756,0.7584,0.7729,0.7773,0.7801,0.7953,0.8001,0.8007,0.8031,0.8038,0.8038,0.8038,0.8038,0.8038,0.8038,0.8038,0.8038,0.8038,0.8038,0.8038,0.8038,0.8038,0.8038,0.8038,0.8038,0.8038,0.8038,0.8038,0.8038,0.8038,0.8038,0.8038,0.8038,0.8038,0.8014,0.796,0.8814,0.9723,1.0719,1.0654,1.1546,1.3782,1.407,1.4752,1.5737,1.5832,1.5832,1.5832,1.5832,1.5832,1.5832,1.5832,1.5832,0.9189,1.0752,1.2579,1.4287,1.5107,1.535,1.4789,1.5024,1.5164,1.4484,1.3861,1.3237,1.2445,1.2338,1.2365,1.2365,1.2398,1.2512,1.2772,1.2882,1.2906,1.318,1.324,1.3267,1.3267,1.3534,1.3701,1.3701,1.3941,1.4088,1.4088,1.4088,1.4088,1.4088,1.4088,1.4088,1.4088,1.4088,1.4088,1.4088,1.4088,1.4088,1.4088,1.4088,1.4088,1.4088,1.4088,1.4088,1.4088,1.4088,1.4088,1.4088,1.4088,1.3379,1.2157,1.1073,0.9878,0.8777,0.78,0.74,0.7428,0.758,0.7628,0.7655,0.7797,0.7841,0.7868,0.8001,0.8038,0.8038,0.8038,0.8038,0.8038,0.8038,0.8038,0.8038,0.8038,0.8038,0.8038,0.8038,0.8038,0.8038,0.8038,0.8038,0.8038,0.8038,0.8038,0.8038,0.8038,0.8038,0.8038,0.8038,0.8038,0.8014,0.796,1.2195,1.3866,1.1853,1.2394,1.3069,1.3872,1.4949,1.5635,1.5832,1.5832,1.5832,1.5832,1.5832,1.5832,1.5832,1.5832,1.5832,0.9697,1.1123,1.2482,1.376,1.457,1.4993,1.4819,1.5247,1.5557,1.4763,1.4572,1.4263,1.3245,1.3091,1.2879,1.2372,1.2305,1.2345,1.2478,1.2498,1.2545,1.2685,1.2852,1.2953,1.2953,1.322,1.34,1.34,1.352,1.3601,1.3601,1.3601,1.3601,1.3601,1.3754,1.3841,1.3841,1.4001,1.4088,1.4088,1.4088,1.4088,1.4088,1.4088,1.4088,1.4088,1.4088,1.4088,1.4088,1.4088,1.4088,1.4088,1.4088,1.2948,1.1295,1.0783,0.9488,0.7852,0.7396,0.7241,0.7268,0.7421,0.7472,0.7499,0.7648,0.7692,0.7723,0.7872,0.7913,0.7929,0.8018,0.8038,0.8038,0.8038,0.8038,0.8038,0.8038,0.8038,0.8038,0.8038,0.8038,0.8038,0.8038,0.8038,0.8038,0.8038,0.8038,0.8038,0.8038,0.8011,0.7991,0.7991,0.7963,0.8017,0.7952,1.2813,1.5344,1.4196,1.355,1.3741,1.4949,1.5534,1.5832,1.5832,1.5832,1.5832,1.5832,1.5832,1.5832,1.5832,1.5832,1.5832,0.9775,1.0908,1.1781,1.291,1.375,1.4385,1.4707,1.5273,1.5612,1.5142,1.5294,1.5254,1.4282,1.3772,1.3266,1.2337,1.2258,1.2305,1.2305,1.2305,1.2305,1.2305,1.2498,1.2632,1.2632,1.2913,1.3093,1.3093,1.3166,1.3213,1.3213,1.3213,1.3213,1.3213,1.342,1.3534,1.3534,1.3828,1.4015,1.4088,1.4088,1.4088,1.4088,1.4088,1.4088,1.4088,1.4088,1.4088,1.4088,1.4088,1.4088,1.4088,1.3737,1.2431,1.0524,1.0269,0.8882,0.7139,0.7139,0.7139,0.716,0.7275,0.7312,0.7339,0.7495,0.7543,0.757,0.7716,0.7784,0.7838,0.795,0.8011,0.8038,0.8038,0.8038,0.8038,0.8038,0.8038,0.8038,0.8038,0.8038,0.8038,0.8038,0.8038,0.8038,0.8038,0.8038,0.8038,0.8038,0.7991,0.8463,0.9792,0.9934,0.9955,0.9966,1.3539,1.5757,1.5838,1.4626,1.4429,1.573,1.5832,1.5832,1.5832,1.5832,1.5832,1.5832,1.5832,1.5832,1.5832,1.5832,1.5832,0.8262,0.9121,1.0137,1.183,1.2646,1.3301,1.4512,1.4824,1.5078,1.5889,1.6013,1.5913,1.5303,1.4082,1.2875,1.2033,1.2124,1.2305,1.2305,1.2305,1.2305,1.2305,1.2318,1.2325,1.2325,1.2592,1.2849,1.2849,1.3046,1.3213,1.3213,1.3213,1.3213,1.3213,1.3227,1.3233,1.3233,1.352,1.3808,1.4088,1.4088,1.4088,1.4088,1.4088,1.4088,1.4088,1.4088,1.4088,1.4088,1.4088,1.4088,1.3997,1.2851,1.1638,1.0438,0.941,0.8189,0.7139,0.7139,0.7139,0.7143,0.7149,0.7153,0.718,0.7336,0.7383,0.7414,0.7567,0.7706,0.7814,0.7821,0.7929,0.8038,0.8038,0.8038,0.8038,0.8038,0.8038,0.8038,0.8038,0.8038,0.8038,0.8038,0.8038,0.8038,0.8038,0.8038,0.8038,0.8038,0.7991,0.9895,1.4869,1.542,1.5409,1.5377,1.5595,1.5761,1.5838,1.573,1.573,1.5832,1.5832,1.5832,1.5832,1.5832,1.5832,1.5832,1.5832,1.5832,1.5832,1.5832,1.5832,0.8097,0.8799,0.957,1.1025,1.1924,1.2656,1.3398,1.3975,1.4531,1.5117,1.5244,1.5129,1.4687,1.4135,1.3481,1.2542,1.2019,1.1804,1.1997,1.2024,1.2091,1.2278,1.2305,1.2305,1.2305,1.2398,1.2458,1.2458,1.2565,1.2625,1.2625,1.2625,1.2625,1.2625,1.2812,1.3006,1.3206,1.3313,1.3514,1.3801,1.3801,1.3901,1.4088,1.4088,1.4088,1.4088,1.4088,1.4088,1.4088,1.4088,1.3646,1.2942,1.2498,1.1128,0.9492,0.9065,0.8101,0.7139,0.7139,0.7139,0.7139,0.7139,0.7139,0.7149,0.7207,0.7224,0.7255,0.7411,0.7489,0.7573,0.7763,0.7851,0.7919,0.8018,0.8038,0.8038,0.8038,0.8038,0.8038,0.8038,0.8038,0.8038,0.8038,0.8038,0.8038,0.8038,0.8038,0.8024,0.7991,0.8034,1.0006,1.519,1.5827,1.5843,1.5797,1.579,1.5777,1.5832,1.5832,1.5832,1.5832,1.5832,1.5832,1.5832,1.5832,1.5832,1.5832,1.5832,1.5832,1.5832,1.5832,1.5832,0.748,0.8242,0.9102,1.0381,1.1143,1.1846,1.2861,1.3418,1.3877,1.4453,1.457,1.4521,1.4408,1.4135,1.3683,1.3026,1.2296,1.1902,1.211,1.1934,1.179,1.1984,1.2098,1.2158,1.2158,1.2245,1.2305,1.2305,1.2305,1.2305,1.2305,1.2305,1.2305,1.2305,1.2492,1.2746,1.3053,1.3053,1.3206,1.35,1.35,1.3601,1.3794,1.3794,1.3794,1.3801,1.3895,1.3995,1.4088,1.3646,1.3027,1.2237,1.1466,1.0269,0.889,0.8452,0.7753,0.7139,0.7139,0.7139,0.7139,0.7139,0.7139,0.7139,0.7139,0.7139,0.7163,0.7265,0.7329,0.7417,0.7611,0.7736,0.7838,0.794,0.8001,0.8038,0.8038,0.8038,0.8038,0.8038,0.8038,0.8038,0.8038,0.8038,0.8031,0.8014,0.8011,0.7991,0.8031,0.9486,1.1971,1.5479,1.5797,1.5832,1.5832,1.5832,1.5832,1.5832,1.5832,1.5832,1.5832,1.5832,1.5832,1.5832,1.5832,1.5832,1.5832,1.5832,1.5832,1.5832,1.5832,1.6015,0.0,0.0,0.0,0.9922,1.0234,1.0801,1.293,1.3105,1.3066,1.3926,1.4048,1.4238,1.4687,1.4129,1.357,1.3443,1.3037,1.2691,1.2699,1.1955,1.1416,1.1423,1.1677,1.1857,1.1857,1.2111,1.2278,1.2285,1.2285,1.2291,1.2305,1.2305,1.2305,1.2305,1.2305,1.2438,1.2808,1.2808,1.2886,1.32,1.32,1.32,1.3213,1.3213,1.3213,1.3227,1.3426,1.3712,1.3971,1.276,1.2242,1.198,0.9753,0.889,0.8715,0.7489,0.7139,0.7139,0.7139,0.7139,0.7139,0.7139,0.7139,0.7139,0.7139,0.7139,0.7139,0.7139,0.7248,0.7366,0.737,0.7587,0.7804,0.7804,0.7923,0.8031,0.8031,0.8035,0.8038,0.8038,0.8038,0.8038,0.8038,0.8038,0.812,0.8062,0.8153,0.8231,0.8272,1.2684,1.58,1.5794,1.5797,1.5832,1.5832,1.5832,1.5832,1.5832,1.5832,1.5832,1.5832,1.5832,1.5832,1.5832,1.5832,1.5832,1.5832,1.5832,1.5832,1.5832,1.5825,1.648,0.6992,0.0,0.0,0.0,0.0,0.0,1.0898,1.1318,1.1787,1.2978,1.3232,1.3447,1.418,1.409,1.3948,1.3886,1.3374,1.2956,1.3147,1.253,1.2094,1.228,1.184,1.155,1.155,1.1623,1.1757,1.1971,1.1991,1.2084,1.2291,1.2305,1.2305,1.2305,1.2305,1.2345,1.2425,1.2425,1.2579,1.2872,1.2872,1.2993,1.3213,1.3213,1.3213,1.3134,1.2475,1.2302,1.2319,1.2349,1.13,0.9749,0.9148,0.8364,0.7577,0.7228,0.7139,0.7139,0.7139,0.7139,0.7139,0.7139,0.7139,0.7139,0.7139,0.7139,0.7139,0.7139,0.717,0.7227,0.7343,0.7512,0.7658,0.7658,0.777,0.7875,0.7875,0.796,0.8038,0.8038,0.8038,0.8038,0.8038,0.9549,1.0645,0.9998,1.2026,1.3636,1.3624,1.4954,1.5767,1.5783,1.575,1.5832,1.5832,1.5832,1.5832,1.5832,1.5832,1.5832,1.5832,1.5832,1.5832,1.5832,1.5832,1.5832,1.5832,1.5832,1.5832,1.5825,1.6763,1.7318,0.7529,0.7988,0.873,0.9116,0.0,0.0,1.0577,1.0723,1.1025,1.2334,1.2607,1.2871,1.3721,1.3877,1.3873,1.4048,1.3756,1.3444,1.3467,1.2967,1.2513,1.2333,1.1947,1.1632,1.1243,1.1356,1.1496,1.167,1.1683,1.181,1.2104,1.2124,1.2178,1.2298,1.2305,1.2305,1.2305,1.2305,1.2392,1.2559,1.2559,1.2659,1.2832,1.2832,1.2595,1.2202,1.1691,1.1016,1.0162,1.0512,0.9965,0.8772,0.8261,0.7698,0.7139,0.7665,0.7489,0.7139,0.7665,0.7492,0.7139,0.7139,0.7139,0.7139,0.7139,0.7139,0.7139,0.7139,0.7139,0.7163,0.7251,0.7387,0.7506,0.7506,0.7662,0.7811,0.7811,0.7929,0.8038,0.8038,0.8844,0.9541,0.9133,1.0623,1.2114,1.2699,1.4455,1.577,1.5843,1.583,1.5803,1.5838,1.5832,1.5832,1.5832,1.5832,1.5832,1.5832,1.5832,1.5832,1.5832,1.5832,1.5832,1.5832,1.5832,1.6015,1.6574,1.6015,1.6109,1.6662,1.7863,1.868,0.8201,0.8603,0.9375,1.0039,0.9668,0.0,1.0989,1.0802,1.0605,1.1777,1.2005,1.2334,1.3145,1.334,1.3467,1.3799,1.3912,1.394,1.3679,1.3277,1.2704,1.2027,1.207,1.1897,1.1084,1.1289,1.1404,1.1376,1.141,1.1543,1.1804,1.1824,1.1957,1.2245,1.2258,1.2271,1.2305,1.2305,1.2305,1.2305,1.2305,1.2305,1.2305,1.2305,1.1768,1.0795,1.1042,0.9969,0.8028,0.8273,0.8383,0.8408,0.7406,0.7159,0.7464,0.8595,0.8348,0.7489,0.854,0.8105,0.7139,0.7139,0.7139,0.7139,0.7139,0.7139,0.7139,0.7139,0.7139,0.7139,0.7139,0.7241,0.7346,0.7346,0.765,0.7955,0.7973,0.8195,0.8407,0.8428,1.0242,1.1452,1.0623,1.1375,1.2942,1.5274,1.5684,1.5843,1.5838,1.5832,1.5832,1.5832,1.5832,1.5832,1.5832,1.5832,1.5832,1.5832,1.5832,1.5832,1.5832,1.5832,1.5832,1.5832,1.592,1.6574,1.7692,1.6574,1.6662,1.7963,1.9131,2.0305,0.9922,1.0146,1.041,0.9855,0.9893,0.0,0.959,0.9902,1.0352,1.0605,1.0937,1.1328,1.189,1.2236,1.2383,1.2109,1.2949,1.3727,1.3984,1.3378,1.2867,1.2698,1.2514,1.2022,1.117,1.1461,1.1575,1.1122,1.1289,1.145,1.151,1.151,1.165,1.1944,1.1951,1.2064,1.2298,1.2305,1.2305,1.2305,1.2305,1.2305,1.2305,1.2305,1.1768,1.0789,1.0842,0.9727,0.7837,0.7871,0.7609,0.7156,0.7729,0.8166,0.8491,0.9587,0.9357,0.854,0.8803,0.8105,0.7139,0.7139,0.7139,0.7139,0.7139,0.7139,0.7139,0.7139,0.7139,0.7139,0.7139,0.7163,0.7183,0.7183,0.8035,0.8938,0.908,1.0004,1.0861,1.1132,1.069,1.031,1.0105,1.2037,1.3692,1.4196,1.5172,1.5757,1.5832,1.5832,1.5832,1.5832,1.5832,1.5832,1.5832,1.5832,1.5832,1.5832,1.5832,1.5832,1.5832,1.5832,1.5832,1.5832,1.6857,1.7404,1.7692,1.7412,1.7956,1.9222,2.0395,2.1114,1.0518,1.0752,1.1133,1.0703,1.0439,0.0,0.0,0.9961,1.0137,1.0832,1.0752,1.0859,1.1738,1.1895,1.1895,1.1895,1.2627,1.3193,1.3184,1.3356,1.3368,1.2922,1.2758,1.2305,1.1487,1.1443,1.1243,1.0813,1.0915,1.1056,1.1202,1.1209,1.1343,1.1637,1.179,1.1937,1.2084,1.2231,1.2305,1.2305,1.2305,1.2305,1.2305,1.2305,1.1768,1.0783,1.0783,0.9965,0.8542,0.8542,0.8349,0.7986,0.8074,0.8543,0.9294,1.0444,0.9927,0.8751,0.9348,0.8459,0.7139,0.7139,0.7139,0.7139,0.7139,0.7139,0.7139,0.7139,0.7139,0.7139,0.7139,0.7577,0.8017,0.8017,0.9025,1.0016,1.0311,1.0978,1.1572,1.1803,1.194,1.194,1.194,1.359,1.4854,1.4854,1.5439,1.5832,1.5832,1.5832,1.5832,1.5832,1.5832,1.5832,1.5832,1.5832,1.5832,1.5832,1.5832,1.5832,1.5832,1.5832,1.6109,1.6763,1.7948,1.8864,1.9497,1.9497,1.9761,2.0395,2.1667,2.2217,1.1074,1.1332,1.1822,1.1645,1.1145,1.0654,0.0,0.0,0.0,1.1047,1.0744,1.0605,1.166,1.1621,1.1504,1.1655,1.2305,1.2549,1.1943,1.2881,1.3403,1.2839,1.2932,1.2698,1.1906,1.1272,1.0878,1.0671,1.0512,1.0521,1.0808,1.0875,1.1042,1.1329,1.1577,1.1757,1.187,1.2098,1.2245,1.2305,1.2305,1.2305,1.2305,1.2305,1.1768,1.0783,1.1013,1.0415,0.9296,0.9523,0.9593,0.9539,0.8787,0.9132,1.0129,1.1329,1.0432,0.8809,0.9853,0.8785,0.7102,0.7132,0.7139,0.7228,0.7661,0.7489,0.7139,0.7404,0.7489,0.7489,0.7489,0.836,0.9235,0.9235,1.0143,1.1206,1.153,1.1939,1.2267,1.2512,1.3459,1.4166,1.3974,1.4949,1.5832,1.5832,1.5832,1.5832,1.5832,1.5832,1.5832,1.5832,1.5832,1.5832,1.5832,1.5832,1.5832,1.5832,1.6116,1.6116,1.5832,1.6015,1.6756,1.8048,1.9222,2.0305,2.1293,2.1569,2.1667,2.1667,2.2677,2.3135,1.2627,1.2656,1.2586,1.1802,1.1787,1.1577,1.0079,0.0,1.0586,0.9933,0.0,1.0332,1.0478,0.0,0.0,1.0001,1.1227,1.1885,1.0674,1.1332,1.2002,1.2252,1.2966,1.3101,1.2299,1.1104,1.0442,1.0653,1.0117,0.9907,1.02,1.0468,1.0742,1.1035,1.1076,1.1343,1.1864,1.1904,1.2044,1.2305,1.2305,1.2305,1.2305,1.2305,1.1768,1.0864,1.1768,1.1025,0.9372,1.0265,1.064,1.064,1.0513,1.069,1.1158,1.2248,1.1382,0.9764,1.0128,0.8789,0.6973,0.7099,0.7139,0.7489,0.957,0.879,0.7316,0.8364,0.8715,0.8715,0.8715,0.9579,1.0438,1.0438,1.1316,1.2181,1.2528,1.3696,1.4721,1.4916,1.5363,1.5242,1.407,1.4949,1.5832,1.5832,1.5832,1.5832,1.5832,1.5832,1.5832,1.5832,1.5832,1.5832,1.5832,1.5832,1.5832,1.5832,1.7174,1.7369,1.5832,1.685,1.8048,1.9314,2.0486,2.1203,2.1293,2.2394,2.2862,2.2862,2.3047,2.3135,1.2578,1.2378,1.2203,1.1998,1.1614,1.1132,1.0475,1.0459,1.0508,1.04,0.0,0.0,0.0,0.0,0.0,0.0,1.0625,1.082,1.002,1.043,1.1116,1.1758,1.1934,1.1959,1.1912,1.1104,1.0601,1.0699,0.9903,0.9626,1.0094,1.0234,1.0434,1.0735,1.0909,1.1109,1.1356,1.153,1.1757,1.2051,1.2051,1.2138,1.2305,1.2305,1.207,1.1694,1.215,1.1848,1.1099,1.1471,1.1694,1.1694,1.1694,1.177,1.1803,1.1721,1.0804,0.9622,0.9196,0.8518,0.8048,0.8905,0.9139,0.9309,1.0265,0.9918,0.9222,0.9749,0.9923,0.9923,0.9923,1.0697,1.1552,1.1552,1.251,1.3455,1.3735,1.4252,1.4843,1.5304,1.5491,1.5437,1.5114,1.5439,1.5832,1.5832,1.5832,1.5832,1.5832,1.5832,1.5832,1.5832,1.5832,1.5832,1.5832,1.5832,1.6427,1.7841,1.8589,1.8711,1.794,1.9123,2.0034,2.0567,2.1756,2.2306,2.2315,2.2862,2.3135,2.3135,2.3135,2.3135,1.2187,1.1955,1.1853,1.1984,1.1429,1.0832,1.0777,1.0586,1.0537,1.085,1.0508,0.0,0.0,0.0,1.0146,1.0107,0.0,1.0215,0.9515,0.9736,1.0293,1.1145,1.1133,1.1228,1.1561,1.0871,1.0431,1.0554,0.9594,0.9259,0.9846,1.0027,1.0214,1.0434,1.0722,1.0915,1.0995,1.1202,1.1456,1.175,1.175,1.1897,1.2184,1.2184,1.2225,1.2305,1.2305,1.2305,1.2305,1.2305,1.2305,1.2305,1.1996,1.1922,1.1768,1.1087,1.0068,0.9018,0.8725,0.8897,0.9469,1.0641,1.0869,1.0697,1.1386,1.1128,1.0697,1.0956,1.1037,1.1037,1.1037,1.1901,1.2766,1.2766,1.347,1.4142,1.4355,1.4462,1.4649,1.5077,1.5224,1.5371,1.5658,1.5772,1.5832,1.5832,1.5832,1.5832,1.5832,1.5832,1.5832,1.5832,1.5832,1.5812,1.5758,1.5758,1.7145,2.0272,1.9895,1.977,2.0494,2.1025,2.148,2.1756,2.2677,2.3135,2.3135,2.3135,2.3135,2.3135,2.3135,2.3135,1.1805,1.1805,1.178,1.1644,1.1572,1.1338,1.0498,1.0605,1.0889,1.0908,1.1221,1.1547,1.1577,1.1557,1.1136,0.9816,1.0342,0.0,0.0,0.9043,0.9365,1.0225,1.1087,1.1596,1.1592,1.0214,0.9603,1.0188,0.9083,0.8657,0.9183,0.9806,1.012,1.0134,1.0421,1.0708,1.0989,1.1002,1.1149,1.1443,1.1443,1.1597,1.1884,1.1884,1.2037,1.2305,1.2305,1.2305,1.2305,1.2305,1.2305,1.2224,1.1242,1.0864,1.0858,1.0783,0.9513,0.8073,0.9392,1.0148,1.0773,1.1895,1.1472,1.1042,1.33,1.2431,1.0869,1.1901,1.2242,1.2242,1.2242,1.3118,1.3997,1.3997,1.4088,1.4088,1.4095,1.4322,1.4529,1.4543,1.4783,1.507,1.5357,1.5645,1.5832,1.5832,1.5832,1.5832,1.5832,1.5832,1.5832,1.5832,1.5832,1.5758,1.5778,1.5771,1.7819,2.2636,2.0797,2.0584,2.2872,2.1933,2.1845,2.3047,2.3047,2.3135,2.3135,2.3135,2.3135,2.3135,2.3135,2.3135,1.1814,1.1166,1.0597,1.1165,1.0749,1.0286,1.0615,1.0811,1.0908,1.0908,1.126,1.1606,1.1606,1.1371,1.0898,1.0176,1.0068,0.9717,0.0,0.8594,0.8701,0.9028,1.0067,1.0605,1.0312,1.0004,1.0022,1.0449,0.9283,0.9005,0.989,0.9644,0.9713,1.0107,1.0214,1.0408,1.0701,1.0708,1.0855,1.1142,1.1142,1.1296,1.1583,1.1784,1.1924,1.2031,1.2218,1.2305,1.2305,1.2305,1.2305,1.2305,1.1922,1.1391,1.0634,0.9286,0.8385,0.7987,0.9557,1.0223,1.0837,1.2802,1.3209,1.3039,1.3828,1.3561,1.3039,1.3385,1.347,1.347,1.347,1.3822,1.4088,1.4088,1.4088,1.4088,1.4088,1.4162,1.4289,1.4482,1.4603,1.4763,1.5057,1.519,1.5384,1.5772,1.5779,1.5825,1.5805,1.5832,1.5785,1.5765,1.5846,1.5771,1.5766,1.8795,2.1302,2.3032,2.2358,2.2227,2.3057,2.2677,2.2677,2.3047,2.3135,2.3135,2.3135,2.3135,2.3135,2.3135,2.3135,2.3135,1.1065,1.0466,0.9987,1.0657,1.0292,0.9885,1.031,1.0545,1.0655,1.0655,1.1021,1.1306,1.1306,1.1153,1.0776,1.0075,0.9762,0.9252,0.0,0.8313,0.8352,0.8164,0.9141,0.9775,0.9612,0.9271,0.931,1.0031,0.8857,0.8547,0.9559,0.9337,0.9409,0.9947,1.006,1.0261,1.0618,1.0624,1.0719,1.0835,1.0835,1.0989,1.1276,1.147,1.167,1.1877,1.2064,1.2204,1.2305,1.2305,1.2305,1.2224,1.1922,1.1391,1.0634,0.8912,0.8358,0.8608,0.9662,1.0686,1.181,1.3438,1.4001,1.4088,1.4088,1.4088,1.4088,1.4088,1.4088,1.4088,1.4088,1.4088,1.4088,1.4088,1.4088,1.4088,1.4088,1.4088,1.4142,1.4329,1.4362,1.4462,1.4756,1.4723,1.485,1.5431,1.5663,1.5756,1.5765,1.5765,1.5765,1.5769,1.7342,1.8425,1.8387,2.1311,2.3104,2.3104,2.3135,2.3135,2.3135,2.3135,2.3135,2.3135,2.3135,2.3135,2.3135,2.3135,2.3135,2.3135,2.3135,2.3281]},{"header":{"parameterUnit":"m.s-1","parameterCategory":1,"la1":30.6,"la2":29.2853,"lo1":-89.7004,"lo2":-87.6739,"dy":0.0162,"dx":0.0183,"nx":112,"ny":82,"refTime":"2024-09-10T06:00:00:Z","depth":0,"parameterNumber":3,"parameterNumberName":"V-component_of_WINDS"},"data":[0.0,0.0,0.0,0.0,0.0,0.0,0.0,0.0,0.0,0.0,0.0,0.0,0.0,0.0,0.0,0.0,0.0,0.0,0.0,0.0,0.0,0.0,0.0,0.0,0.0,0.0,0.0,0.0,0.0,0.0,0.0,0.0,0.0,0.0,0.0,0.0,0.0,0.0,0.0,0.0,0.0,0.0,0.0,0.0,0.0,0.0,0.0,0.0,0.0,0.0,0.0,0.0,0.0,0.0,0.0,0.0,0.0,0.0,0.0,0.0,0.0,0.0,0.0,0.0,0.0,0.0,0.0,0.0,0.0,0.0,0.0,0.0,0.0,0.0,0.0,0.0,0.0,0.0,0.0,0.0,0.0,0.0,0.0,0.0,0.0,0.0,0.0,0.0,0.0,0.0,-1.4513,-1.5932,-1.7438,-1.8329,-1.8329,-1.7827,-1.6785,-1.5024,0.0,0.0,0.0,0.0,0.0,0.0,0.0,0.0,0.0,0.0,0.0,0.0,0.0,0.0,0.0,0.0,0.0,0.0,0.0,0.0,0.0,0.0,0.0,0.0,0.0,0.0,0.0,0.0,0.0,0.0,0.0,0.0,0.0,0.0,0.0,0.0,0.0,0.0,0.0,0.0,0.0,0.0,0.0,0.0,0.0,0.0,0.0,0.0,0.0,0.0,0.0,0.0,0.0,0.0,0.0,0.0,0.0,0.0,0.0,0.0,0.0,0.0,0.0,0.0,0.0,0.0,0.0,0.0,0.0,0.0,0.0,0.0,0.0,0.0,0.0,0.0,0.0,0.0,0.0,0.0,0.0,0.0,0.0,0.0,0.0,0.0,0.0,0.0,0.0,0.0,0.0,0.0,0.0,0.0,0.0,0.0,0.0,0.0,0.0,0.0,0.0,0.0,0.0,0.0,-1.45,-1.7501,-1.848,-1.8907,-1.8907,-1.8392,-1.7169,-1.5108,0.0,0.0,0.0,0.0,0.0,0.0,0.0,0.0,0.0,0.0,0.0,0.0,0.0,0.0,0.0,0.0,0.0,0.0,0.0,0.0,0.0,0.0,0.0,0.0,0.0,0.0,0.0,0.0,0.0,0.0,0.0,0.0,0.0,0.0,0.0,0.0,0.0,0.0,0.0,0.0,0.0,0.0,0.0,0.0,0.0,0.0,0.0,0.0,0.0,0.0,0.0,0.0,0.0,0.0,0.0,0.0,0.0,0.0,0.0,0.0,0.0,0.0,0.0,0.0,0.0,0.0,0.0,0.0,0.0,0.0,0.0,0.0,0.0,0.0,0.0,0.0,0.0,0.0,0.0,0.0,0.0,0.0,0.0,0.0,0.0,0.0,0.0,0.0,0.0,0.0,0.0,0.0,0.0,0.0,0.0,0.0,0.0,0.0,0.0,0.0,0.0,0.0,0.0,-1.4161,-1.579,-1.7978,-1.8945,-1.9447,-1.9447,-1.8681,-1.7522,-1.5911,-1.3433,0.0,0.0,0.0,0.0,0.0,0.0,0.0,0.0,0.0,0.0,0.0,0.0,0.0,0.0,0.0,0.0,0.0,0.0,0.0,0.0,0.0,0.0,0.0,0.0,0.0,0.0,0.0,0.0,0.0,0.0,0.0,0.0,0.0,0.0,0.0,0.0,0.0,0.0,0.0,0.0,0.0,0.0,0.0,0.0,0.0,0.0,0.0,0.0,0.0,0.0,0.0,0.0,0.0,0.0,0.0,0.0,0.0,0.0,0.0,0.0,0.0,0.0,0.0,0.0,0.0,0.0,0.0,0.0,0.0,0.0,0.0,0.0,0.0,0.0,0.0,0.0,0.0,0.0,0.0,0.0,0.0,0.0,0.0,0.0,0.0,0.0,0.0,0.0,0.0,0.0,0.0,0.0,0.0,0.0,0.0,0.0,0.0,0.0,0.0,0.0,0.0,0.0,-1.5906,-1.7237,-1.8116,-1.9158,-1.9748,-1.9623,-1.8631,-1.748,-1.6213,-1.2999,0.0,0.0,0.0,0.0,0.0,0.0,0.0,0.0,0.0,0.0,0.0,0.0,0.0,0.0,0.0,0.0,0.0,0.0,0.0,0.0,0.0,0.0,0.0,0.0,0.0,0.0,0.0,0.0,0.0,0.0,0.0,0.0,0.0,0.0,0.0,0.0,0.0,0.0,0.0,0.0,0.0,0.0,0.0,0.0,0.0,0.0,0.0,0.0,0.0,0.0,0.0,0.0,0.0,0.0,0.0,0.0,0.0,0.0,0.0,0.0,0.0,0.0,0.0,0.0,0.0,0.0,0.0,0.0,0.0,0.0,0.0,0.0,0.0,0.0,0.0,0.0,0.0,0.0,0.0,0.0,0.0,0.0,0.0,0.0,0.0,0.0,0.0,0.0,0.0,0.0,0.0,0.0,0.0,0.0,0.0,0.0,0.0,0.0,0.0,0.0,0.0,0.0,-1.612,-1.8116,-1.8191,-1.9158,-1.961,-1.912,-1.8078,-1.6772,-1.5211,-1.1961,0.0,0.0,0.0,0.0,0.0,0.0,0.0,0.0,0.0,0.0,0.0,0.0,0.0,0.0,0.0,0.0,0.0,0.0,0.0,0.0,0.0,0.0,0.0,0.0,0.0,0.0,0.0,0.0,0.0,0.0,0.0,0.0,0.0,0.0,0.0,0.0,0.0,0.0,0.0,0.0,0.0,0.0,0.0,0.0,0.0,0.0,0.0,0.0,0.0,0.0,0.0,0.0,0.0,0.0,0.0,0.0,0.0,0.0,0.0,0.0,0.0,0.0,0.0,0.0,0.0,0.0,0.0,0.0,0.0,0.0,0.0,0.0,0.0,0.0,0.0,0.0,0.0,0.0,0.0,0.0,0.0,0.0,0.0,0.0,0.0,0.0,0.0,0.0,0.0,0.0,0.0,0.0,0.0,0.0,0.0,0.0,0.0,0.0,0.0,0.0,0.0,0.0,-1.553,-1.7426,-1.8129,-1.9158,-1.9597,-1.907,-1.8329,-1.6921,-1.4691,0.0,0.0,0.0,0.0,0.0,0.0,0.0,0.0,0.0,0.0,0.0,0.0,0.0,0.0,0.0,0.0,0.0,0.0,0.0,0.0,0.0,0.0,0.0,0.0,0.0,0.0,0.0,0.0,0.0,0.0,0.0,0.0,0.0,0.0,0.0,0.0,0.0,0.0,0.0,0.0,0.0,0.0,0.0,0.0,0.0,0.0,0.0,0.0,0.0,0.0,0.0,0.0,0.0,0.0,0.0,0.0,0.0,0.0,0.0,0.0,0.0,0.0,0.0,0.0,0.0,0.0,0.0,0.0,0.0,0.0,0.0,0.0,0.0,0.0,0.0,0.0,0.0,0.0,0.0,0.0,0.0,0.0,0.0,0.0,0.0,0.0,0.0,0.0,0.0,0.0,0.0,0.0,0.0,0.0,0.0,0.0,0.0,0.0,0.0,0.0,0.0,0.0,-1.3232,-1.558,-1.735,-1.8129,-1.9158,-1.9522,-1.8832,-1.8254,-1.6796,-1.4132,0.0,0.0,0.0,0.0,0.0,0.0,0.0,0.0,0.0,0.0,0.0,0.0,0.0,0.0,0.0,0.0,0.0,0.0,0.0,0.0,0.0,0.0,0.0,0.0,0.0,0.0,0.0,0.0,0.0,0.0,0.0,0.0,0.0,0.0,0.0,0.0,0.0,0.0,0.0,0.0,0.0,0.0,0.0,0.0,0.0,0.0,0.0,0.0,0.0,0.0,0.0,0.0,0.0,0.0,0.0,0.0,0.0,0.0,0.0,0.0,0.0,0.0,0.0,0.0,0.0,0.0,0.0,0.0,0.0,0.0,0.0,0.0,0.0,0.0,0.0,0.0,0.0,0.0,0.0,0.0,0.0,0.0,0.0,0.0,0.0,0.0,0.0,0.0,0.0,0.0,0.0,0.0,0.0,0.0,0.0,0.0,0.0,0.0,0.0,0.0,0.0,0.0,-1.3883,-1.6484,-1.8204,-1.8216,-1.9158,-1.9371,-1.8292,-1.7702,-1.625,0.0,0.0,0.0,0.0,0.0,0.0,0.0,0.0,0.0,0.0,0.0,0.0,0.0,0.0,0.0,0.0,0.0,0.0,0.0,0.0,0.0,0.0,0.0,0.0,0.0,0.0,0.0,0.0,0.0,0.0,0.0,0.0,0.0,0.0,0.0,0.0,0.0,0.0,0.0,0.0,0.0,0.0,0.0,0.0,0.0,0.0,0.0,0.0,0.0,0.0,0.0,0.0,0.0,0.0,0.0,0.0,0.0,0.0,0.0,0.0,0.0,0.0,0.0,0.0,0.0,0.0,0.0,0.0,0.0,0.0,0.0,0.0,0.0,0.0,0.0,0.0,0.0,0.0,0.0,0.0,0.0,0.0,0.0,0.0,0.0,0.0,0.0,0.0,0.0,0.0,0.0,0.0,0.0,0.0,0.0,0.0,0.0,0.0,0.0,0.0,0.0,0.0,0.0,-1.44,-1.6722,-1.8355,-1.8744,-1.9397,-1.9371,-1.8292,-1.8053,-1.6398,-1.2693,0.0,0.0,0.0,0.0,0.0,0.0,0.0,0.0,0.0,0.0,0.0,0.0,0.0,0.0,0.0,0.0,0.0,0.0,0.0,0.0,0.0,0.0,0.0,0.0,0.0,0.0,0.0,0.0,0.0,0.0,0.0,0.0,0.0,0.0,0.0,0.0,0.0,0.0,0.0,0.0,0.0,0.0,0.0,0.0,0.0,0.0,0.0,0.0,0.0,0.0,0.0,0.0,0.0,0.0,0.0,0.0,0.0,0.0,0.0,0.0,0.0,0.0,0.0,0.0,0.0,0.0,0.0,0.0,0.0,0.0,0.0,0.0,0.0,0.0,0.0,0.0,0.0,0.0,0.0,0.0,0.0,0.0,0.0,0.0,0.0,0.0,0.0,0.0,0.0,0.0,0.0,0.0,0.0,0.0,0.0,0.0,0.0,0.0,0.0,0.0,0.0,0.0,-1.489,-1.6961,-1.8417,-1.892,-1.9497,-1.9371,-1.8292,-1.8204,-1.6685,-1.3119,0.0,0.0,0.0,0.0,0.0,0.0,0.0,0.0,0.0,0.0,0.0,0.0,0.0,0.0,0.0,0.0,0.0,0.0,0.0,0.0,0.0,0.0,0.0,0.0,0.0,0.0,0.0,0.0,0.0,0.0,0.0,0.0,0.0,0.0,0.0,0.0,0.0,0.0,0.0,0.0,0.0,0.0,0.0,0.0,0.0,0.0,0.0,0.0,0.0,0.0,0.0,0.0,0.0,0.0,0.0,0.0,0.0,0.0,0.0,0.0,0.0,0.0,0.0,0.0,0.0,0.0,0.0,0.0,0.0,0.0,0.0,0.0,0.0,0.0,0.0,0.0,0.0,0.0,0.0,0.0,0.0,0.0,0.0,0.0,0.0,0.0,0.0,0.0,0.0,0.0,0.0,0.0,0.0,0.0,0.0,0.0,0.0,0.0,0.0,0.0,0.0,0.0,-1.5417,-1.7187,-1.843,-1.8983,-1.9522,-1.9371,-1.8292,-1.8204,-1.7036,-1.4299,0.0,0.0,0.0,0.0,0.0,0.0,0.0,0.0,0.0,0.0,0.0,0.0,0.0,0.0,0.0,0.0,0.0,0.0,0.0,0.0,0.0,0.0,0.0,0.0,0.0,0.0,0.0,0.0,0.0,0.0,0.0,0.0,0.0,0.0,0.0,0.0,0.0,0.0,0.0,0.0,0.0,0.0,0.0,0.0,0.0,0.0,0.0,0.0,0.0,0.0,0.0,0.0,0.0,0.0,0.0,0.0,0.0,0.0,0.0,0.0,-1.2542,-1.1563,0.0,0.0,0.0,0.0,0.0,0.0,0.0,0.0,0.0,0.0,0.0,0.0,0.0,0.0,0.0,0.0,0.0,0.0,0.0,0.0,0.0,0.0,0.0,0.0,0.0,0.0,0.0,0.0,0.0,0.0,0.0,0.0,0.0,0.0,0.0,0.0,0.0,0.0,0.0,0.0,-1.5982,-1.7426,-1.8581,-1.9535,-1.9736,-1.9371,-1.8292,-1.8204,-1.7053,-1.4426,-1.3204,0.0,0.0,0.0,0.0,0.0,0.0,0.0,0.0,0.0,0.0,0.0,0.0,0.0,0.0,0.0,0.0,0.0,0.0,0.0,0.0,0.0,0.0,0.0,0.0,0.0,0.0,0.0,0.0,0.0,0.0,0.0,0.0,0.0,0.0,0.0,0.0,0.0,0.0,0.0,0.0,0.0,0.0,0.0,0.0,0.0,0.0,0.0,0.0,0.0,0.0,0.0,0.0,0.0,0.0,0.0,0.0,0.0,0.0,0.0,-1.4978,-1.3899,0.0,0.0,0.0,0.0,0.0,0.0,0.0,0.0,0.0,0.0,0.0,0.0,0.0,0.0,0.0,0.0,0.0,0.0,0.0,0.0,0.0,0.0,0.0,0.0,0.0,0.0,0.0,0.0,0.0,0.0,0.0,0.0,0.0,0.0,0.0,0.0,0.0,0.0,0.0,0.0,-1.6547,-1.7677,-1.8618,-1.9685,-1.9798,-1.9472,-1.8668,-1.8355,-1.7385,-1.5455,-1.4218,0.0,0.0,0.0,0.0,0.0,0.0,0.0,0.0,0.0,0.0,0.0,0.0,0.0,0.0,0.0,0.0,0.0,0.0,0.0,0.0,0.0,0.0,0.0,0.0,0.0,0.0,0.0,0.0,0.0,0.0,0.0,0.0,0.0,0.0,0.0,0.0,0.0,0.0,0.0,0.0,0.0,0.0,0.0,0.0,0.0,0.0,0.0,0.0,0.0,0.0,0.0,0.0,0.0,-1.9421,-1.9958,-2.0685,-2.0137,-2.0466,-2.1341,-1.807,-1.71,-1.77,-1.5501,0.0,0.0,0.0,0.0,0.0,0.0,0.0,0.0,0.0,0.0,0.0,0.0,0.0,0.0,0.0,0.0,0.0,0.0,0.0,0.0,0.0,0.0,-1.5502,-1.4612,-1.5676,-1.6304,-1.413,0.0,0.0,0.0,0.0,0.0,0.0,0.0,0.0,0.0,0.0,0.0,-1.7175,-1.8126,-1.8852,-1.9698,-1.9901,-1.9687,-1.907,-1.8606,-1.7865,-1.6735,-1.5406,-1.4252,0.0,0.0,0.0,0.0,0.0,0.0,0.0,0.0,0.0,0.0,0.0,0.0,0.0,0.0,0.0,0.0,0.0,0.0,0.0,0.0,0.0,0.0,0.0,0.0,0.0,0.0,0.0,0.0,0.0,0.0,0.0,0.0,-1.2999,-1.4377,0.0,0.0,0.0,0.0,0.0,0.0,0.0,0.0,0.0,0.0,0.0,0.0,0.0,-1.9264,-1.9924,-2.0788,-2.1506,-2.2045,-2.3195,-2.4029,-2.466,-2.4564,-2.4612,-2.4734,-2.4217,0.0,-2.0102,-1.8364,0.0,0.0,0.0,0.0,0.0,0.0,0.0,0.0,0.0,0.0,0.0,0.0,0.0,0.0,0.0,0.0,0.0,0.0,0.0,0.0,0.0,0.0,-1.7759,-1.7638,-1.7787,-1.7884,-1.7535,-1.5708,-1.3871,-1.3094,-1.2597,-1.2077,0.0,0.0,0.0,0.0,0.0,0.0,-1.7865,-1.9068,-1.9794,-1.9787,-2.0295,-2.0239,-1.912,-1.897,-1.8442,-1.7338,-1.6616,-1.5756,-1.4759,-1.3385,0.0,0.0,0.0,0.0,0.0,0.0,0.0,0.0,0.0,0.0,0.0,0.0,0.0,0.0,0.0,0.0,0.0,0.0,0.0,0.0,0.0,0.0,0.0,0.0,0.0,0.0,0.0,0.0,0.0,-1.2758,-1.4441,-1.6345,-1.6057,-1.5691,0.0,0.0,0.0,0.0,0.0,0.0,0.0,0.0,0.0,-2.1798,-2.2361,-2.3079,-2.3966,-2.4753,-2.5142,-2.5121,-2.6121,-2.6566,-2.651,-2.651,-2.651,-2.651,-2.651,-2.5759,-2.4288,-2.1725,-2.0518,-2.0051,0.0,0.0,0.0,0.0,-1.758,-1.8076,-1.893,-1.8618,-1.7797,-1.7382,0.0,0.0,0.0,0.0,0.0,0.0,0.0,-1.695,-1.726,-1.8471,-1.9585,-1.9585,-1.9823,-2.0153,-2.0578,-1.9143,-1.7359,-1.5853,-1.5367,-1.4827,-1.3682,-1.3634,0.0,0.0,0.0,-1.7451,-1.9469,-2.0161,-2.061,-2.0837,-2.0832,-2.0604,-2.0073,-1.9395,-1.8819,-1.8342,-1.7777,-1.7122,-1.6386,-1.5167,-1.385,0.0,0.0,0.0,0.0,0.0,0.0,0.0,0.0,0.0,0.0,0.0,0.0,0.0,0.0,0.0,0.0,0.0,0.0,0.0,0.0,0.0,0.0,0.0,0.0,0.0,0.0,0.0,0.0,-1.4648,-1.649,-1.8285,-1.8687,-1.8651,0.0,0.0,0.0,0.0,0.0,0.0,-2.0584,-2.2049,-2.3539,-2.493,-2.5578,-2.6297,-2.7076,-2.7654,-2.7873,-2.7663,-2.8388,-2.8622,-2.8364,-2.8364,-2.8364,-2.8364,-2.8364,-2.8364,-2.8111,-2.4898,-2.3569,-2.3384,-2.1288,-2.0395,-2.0323,-2.0364,-2.0713,-2.1279,-2.2229,-2.1918,-2.1035,-2.0781,-1.9296,-1.7479,-1.6509,0.0,0.0,0.0,0.0,-1.8932,-1.9346,-2.0162,-2.0878,-2.0878,-2.1192,-2.169,-2.2417,-2.1727,-2.0458,-1.8874,-1.8292,-1.7651,-1.6423,-1.6201,0.0,-1.7851,-1.8379,-1.9349,-2.138,-2.1773,-2.1876,-2.1965,-2.1732,-2.1336,-2.0858,-1.9984,-1.932,-1.9032,-1.8643,-1.8166,-1.7614,-1.6712,-1.5605,-1.4264,0.0,0.0,0.0,0.0,0.0,0.0,0.0,0.0,0.0,0.0,0.0,0.0,0.0,0.0,0.0,0.0,0.0,0.0,0.0,0.0,0.0,0.0,0.0,0.0,0.0,0.0,0.0,0.0,0.0,-2.0311,-2.1705,0.0,0.0,0.0,0.0,-2.1157,-2.2329,-2.3568,-2.4746,-2.6137,-2.7111,-2.7585,-2.7894,-2.8064,-2.8136,-2.8289,-2.8647,-2.9204,-2.9889,-3.0501,-3.0993,-3.0993,-3.0993,-3.0993,-3.0993,-3.0993,-3.0769,-2.7539,-2.6221,-2.6062,-2.4751,-2.3953,-2.3549,-2.3443,-2.3496,-2.3702,-2.4266,-2.4068,-2.3677,-2.4255,-2.2749,-2.0851,-2.1305,-2.0178,0.0,0.0,-2.0075,-2.0605,-2.063,-2.1016,-2.1443,-2.1443,-2.1468,-2.169,-2.2417,-2.1982,-2.1514,-2.1671,-2.0691,-1.9867,-1.983,0.0,-2.0245,-2.147,-2.166,-2.2156,-2.3396,-2.411,-2.4012,-2.2762,-2.3192,-2.2808,-2.0947,-2.072,-2.0237,-1.9058,-1.8945,-1.8744,-1.8191,-1.7626,-1.6801,-1.5724,-1.4311,0.0,0.0,0.0,0.0,0.0,0.0,0.0,0.0,0.0,0.0,0.0,0.0,0.0,0.0,0.0,0.0,0.0,0.0,0.0,0.0,0.0,0.0,0.0,0.0,0.0,0.0,0.0,0.0,-2.319,-2.3901,0.0,-2.4199,-2.4314,-2.448,-2.4795,-2.5681,-2.64,-2.6824,-2.8269,-2.913,-2.9296,-3.0292,-3.0818,-3.0818,-3.1375,-3.1759,-3.1942,-3.2169,-3.2387,-3.2628,-3.2628,-3.2628,-3.2628,-3.2628,-3.2628,-3.2519,-3.139,-2.9864,-2.811,-2.6441,-2.5691,-2.5459,-2.5048,-2.5207,-2.5631,-2.5836,-2.5471,-2.4875,-2.4276,-2.3459,-2.2702,-2.2404,-2.1826,-2.1315,-2.1365,-2.1933,-2.2551,-2.2929,-2.3189,-2.3275,-2.3275,-2.2885,-2.2885,-2.4148,-2.3827,-2.363,-2.4731,-2.3145,-2.1706,-2.1888,-2.2211,-2.2572,-2.3031,-2.3414,-2.3931,-2.4826,-2.5153,-2.5118,-2.463,-2.4442,-2.3894,-2.2774,-2.1889,-2.1236,-2.0783,-1.9628,-1.8951,-1.8773,-1.788,-1.7055,-1.6262,-1.5417,-1.3642,0.0,0.0,0.0,0.0,0.0,0.0,0.0,0.0,0.0,0.0,0.0,0.0,0.0,0.0,0.0,0.0,0.0,0.0,0.0,0.0,0.0,0.0,0.0,0.0,0.0,-2.0883,-2.3045,-2.4795,-2.5811,-2.643,-2.6664,-2.6914,-2.7289,-2.7789,-2.8535,-2.9076,-2.9313,-3.0531,-3.1224,-3.1224,-3.2154,-3.2662,-3.2662,-3.3152,-3.3406,-3.3406,-3.3406,-3.3406,-3.3406,-3.3406,-3.3406,-3.3406,-3.3406,-3.3406,-3.3406,-3.3406,-3.2345,-3.0526,-2.9097,-2.851,-2.8437,-2.7595,-2.758,-2.791,-2.769,-2.7321,-2.6805,-2.594,-2.5536,-2.5191,-2.4708,-2.4381,-2.4144,-2.4032,-2.4368,-2.4791,-2.5208,-2.4936,-2.4614,-2.4614,-2.385,-2.3531,-2.5063,-2.4851,-2.4829,-2.6577,-2.5112,-2.362,-2.3757,-2.4105,-2.4429,-2.4696,-2.5038,-2.5525,-2.6183,-2.6273,-2.6183,-2.5959,-2.5579,-2.4922,-2.3811,-2.2714,-2.1972,-2.1724,-2.0152,-1.9287,-1.939,-1.8274,-1.7409,-1.6823,-1.5757,-1.4232,-1.2235,0.0,0.0,0.0,0.0,0.0,0.0,0.0,0.0,0.0,0.0,0.0,0.0,0.0,0.0,0.0,0.0,0.0,0.0,0.0,0.0,0.0,0.0,0.0,-1.9467,-2.2965,-2.5546,-2.5211,-2.7444,-2.8738,-2.8027,-2.8653,-2.9397,-3.0159,-3.0869,-3.1562,-3.2313,-3.3,-3.3406,-3.3406,-3.3423,-3.344,-3.344,-3.3457,-3.3474,-3.3474,-3.3474,-3.3474,-3.3474,-3.3474,-3.3474,-3.3474,-3.3474,-3.3474,-3.3474,-3.3474,-3.3474,-3.3415,-3.2752,-3.2496,-3.236,-3.1097,-3.0612,-3.051,-2.9818,-2.9579,-2.9579,-2.9579,-2.9068,-2.8452,-2.8396,-2.7925,-2.7329,-2.7329,-2.7329,-2.7329,-2.7329,-2.6312,-2.5302,-2.5302,-2.4253,-2.3641,-2.5174,-2.4962,-2.5061,-2.7248,-2.6549,-2.5589,-2.5637,-2.5674,-2.5884,-2.6527,-2.6617,0.0,-2.7535,-2.7625,-2.732,-2.6692,-2.6617,-2.5823,-2.3931,-2.3158,-2.248,-2.1763,-2.0502,-1.9863,-2.0027,-1.8861,-1.7974,-1.742,-1.5364,-1.4116,-1.3729,0.0,0.0,0.0,0.0,0.0,0.0,0.0,0.0,0.0,0.0,0.0,0.0,0.0,0.0,0.0,0.0,0.0,0.0,0.0,0.0,0.0,-2.2744,-2.4197,-2.3854,-2.5781,-2.7552,-2.8575,-2.934,-3.0125,-3.097,-3.1241,-3.1681,-3.2442,-3.2679,-3.2882,-3.3085,-3.3288,-3.3406,-3.3406,-3.3914,-3.4201,-3.4201,-3.4742,-3.5013,-3.5013,-3.5013,-3.5013,-3.5013,-3.5013,-3.5013,-3.5013,-3.5013,-3.5013,-3.5013,-3.5013,-3.5013,-3.4806,-3.315,-3.2496,-3.2406,-3.163,-3.1013,-3.051,-2.9818,-2.9579,-2.9579,-2.9579,-2.9456,-2.9138,-2.8579,-2.8282,-2.7982,-2.7446,-2.768,-2.8097,-2.8097,-2.7797,-2.7541,-2.7541,-2.6837,-2.6421,-2.7371,-2.7428,-2.7611,-2.8851,-2.833,-2.7609,-2.7141,-2.7036,-2.7096,-2.7275,-2.7355,-2.7415,-2.7595,-2.7625,-2.755,-2.732,-2.7355,-2.6703,-2.5201,-2.4513,-2.3673,-2.2512,-2.084,-2.0128,-2.0627,-1.9474,-1.8598,-1.8053,-1.5586,-1.4247,0.0,0.0,0.0,0.0,0.0,0.0,0.0,0.0,0.0,0.0,0.0,0.0,0.0,0.0,0.0,0.0,0.0,0.0,0.0,0.0,0.0,0.0,-2.5444,-2.7131,-2.7452,-2.823,-2.9228,-3.0429,-3.0835,-3.1478,-3.2645,-3.2747,-3.2933,-3.3372,-3.3694,-3.3863,-3.3863,-3.4167,-3.4336,-3.4336,-3.4742,-3.4962,-3.4962,-3.5402,-3.5622,-3.5622,-3.5622,-3.5622,-3.5622,-3.5622,-3.5622,-3.5622,-3.5622,-3.5622,-3.5622,-3.5622,-3.5622,-3.5493,0.0,0.0,0.0,0.0,-3.2399,-3.1829,-3.1378,-3.1303,-3.125,-3.096,-3.0867,-3.0688,-2.9921,-2.9693,-2.9636,-2.9204,-2.9392,-2.9693,-2.9693,-2.9246,-2.88,-2.88,-2.8052,-2.7505,-2.8211,-2.8396,-2.865,-2.9441,-2.928,0.0,-2.8472,-2.7949,-2.7625,-2.7625,-2.7625,-2.7625,-2.7625,-2.7625,-2.7625,-2.7625,-2.7625,-2.7156,-2.6108,-2.5198,0.0,0.0,0.0,-2.071,-2.0905,-2.002,0.0,0.0,0.0,0.0,0.0,-1.5648,0.0,0.0,-1.4213,-1.4141,0.0,0.0,0.0,0.0,0.0,0.0,0.0,0.0,0.0,0.0,0.0,0.0,0.0,0.0,0.0,0.0,-2.7807,-2.9499,-3.0243,-3.0429,-3.0683,-3.1258,-3.1968,-3.2696,-3.3457,-3.3525,-3.3558,-3.3643,-3.4252,-3.4624,-3.4624,-3.525,0.0,0.0,0.0,-3.5622,-3.5622,-3.5622,-3.5622,-3.5622,-3.5622,-3.5622,-3.5622,-3.5622,-3.5622,-3.5622,-3.5622,-3.5622,-3.5622,-3.5622,-3.5622,-3.5622,-3.5622,-3.5622,-3.5515,-3.4847,-3.4235,-3.3684,-3.3633,0.0,0.0,-3.2895,-3.2695,-3.2586,-3.1951,-3.1739,-3.1739,-3.1739,-3.1739,-3.1739,-3.1739,-3.073,-2.974,-2.974,-2.8813,-2.8052,-2.8612,-2.8839,-2.9078,-2.968,-2.9744,-2.9684,-2.9684,-2.8637,-2.782,-2.7694,-2.7679,-2.7715,-2.7625,-2.7625,-2.7625,-2.7625,-2.7625,0.0,-2.6647,-2.5525,-2.4746,-2.4597,-2.2981,-2.1762,-2.1247,-2.0741,-2.0205,-1.9543,-1.9453,-1.9147,-1.8652,-1.9079,-1.9332,-1.9231,-1.6363,-1.6017,0.0,0.0,0.0,0.0,0.0,0.0,0.0,0.0,0.0,0.0,0.0,0.0,0.0,0.0,0.0,-2.796,-2.9702,-3.1021,-3.1749,-3.2391,-3.2594,-3.2121,-3.273,-3.3474,-3.4218,-3.4286,-3.4539,-3.5148,-3.5318,-3.5402,-3.5402,-3.5537,-3.5622,-3.5622,-3.5622,-3.5622,-3.5622,-3.5622,-3.5622,-3.5622,-3.5622,0.0,-3.5622,-3.5622,-3.5622,-3.5622,-3.5622,-3.5622,-3.5622,-3.5622,-3.5622,-3.5622,-3.5622,-3.5622,-3.5515,-3.4847,-3.4528,-3.4333,-3.3786,-3.3582,-3.3582,-3.3443,-3.3391,-3.3391,-3.3235,-3.3166,0.0,-3.3166,-3.3166,-3.3166,-3.3166,-3.2609,-3.1986,-3.1986,-3.1753,-3.144,-3.0991,-3.1373,-3.1637,-3.1192,-3.0717,-3.0328,-3.0328,-2.9699,-2.9011,-2.8487,-2.8412,-2.8203,-2.7685,-2.7625,-2.7625,-2.7625,-2.7625,-2.7355,-2.6647,-2.6363,-2.5749,-2.4642,-2.4238,-2.3761,-2.3108,-2.3096,-2.2807,-2.22,-2.1717,-2.1439,-2.136,-2.1295,-2.1252,-2.1237,-1.9532,-1.8969,0.0,0.0,0.0,0.0,0.0,0.0,0.0,0.0,0.0,0.0,0.0,-2.3558,-2.5778,0.0,-2.8467,-3.0328,-3.1562,-3.2425,-3.2797,-3.3491,-3.3812,-3.3423,-3.3728,-3.4235,-3.4979,-3.5064,-3.5216,-3.5588,-3.5622,-3.5622,-3.5622,-3.5622,-3.5791,-3.618,-3.6197,-3.6383,-3.6772,-3.6772,-3.6772,-3.6772,-3.6772,-3.6772,-3.6772,-3.6772,-3.6772,-3.6738,-3.6366,-3.6417,-3.6772,-3.6772,-3.6772,-3.6721,-3.6349,-3.596,-3.5577,-3.5207,-3.5098,-3.5052,-3.4704,-3.4609,-3.456,-3.4186,-3.4087,-3.4037,-3.3684,-3.3582,-3.3582,-3.3582,-3.3582,-3.3582,-3.3582,-3.3339,-3.3093,-3.3093,-3.3093,-3.2986,-3.261,-3.2826,-3.2986,-3.261,-3.2276,-3.2028,-3.2028,-3.1818,-3.117,-2.9791,-2.9335,-2.9109,-2.9129,-2.8807,-2.8457,-2.8128,-2.8083,-2.7814,-2.7141,-2.6782,-2.6168,-2.5181,-2.5121,-2.4971,-2.4612,-2.4682,-2.4417,-2.38,-2.3536,-2.3249,-2.2895,-2.3053,-2.3169,-2.3122,-2.2778,-2.2049,0.0,0.0,0.0,0.0,0.0,0.0,0.0,-2.0991,-2.1955,-2.4239,-2.5169,-2.6404,-2.9163,-3.0125,-3.097,-3.229,-3.3119,-3.3609,-3.3609,-3.4252,-3.4709,-3.4709,-3.4709,-3.4945,-3.5554,-3.5622,-3.5622,-3.5622,-3.5622,-3.5622,-3.5622,-3.5757,-3.6129,-3.6755,-3.6924,-3.7297,-3.7905,-3.7905,-3.7905,-3.7905,-3.7905,-3.7905,-3.7905,-3.7905,-3.7905,-3.7872,-3.7263,-3.7347,-3.7905,-3.7905,-3.7905,-3.7838,-3.7246,-3.662,-3.6028,-3.5723,-3.5622,-3.5622,-3.5622,-3.5622,-3.5515,-3.4988,-3.4783,-3.4688,-3.4137,-3.4003,-3.4003,-3.4003,-3.4003,-3.4003,-3.4003,-3.3887,-3.3786,-3.3786,-3.3786,-3.3735,-3.3633,-3.3684,-3.3735,-3.3633,-3.3582,-3.3582,-3.3582,-3.3582,-3.3013,-3.124,-3.0535,-3.0295,-3.0576,-3.0158,-2.9516,-2.8846,-2.8786,-2.8517,-2.7829,-2.7156,-2.6557,-2.6019,-2.5989,-2.5929,-2.5809,-2.5929,-2.5723,-2.5077,-2.5194,-2.499,-2.4473,-2.4857,-2.5084,-2.5112,-2.5522,-2.4722,-1.9216,-1.8486,-1.8558,-2.1485,-2.1584,-2.1955,0.0,-2.637,-2.659,-2.889,-2.9431,-2.9973,-3.1613,-3.1985,-3.2307,-3.3136,-3.3897,-3.437,-3.437,-3.5013,-3.5504,-3.5504,-3.5504,-3.552,-3.5605,-3.5622,-3.5622,-3.5622,-3.5622,-3.5622,-3.5622,-3.6282,-3.6688,-3.6772,-3.7432,-3.7821,-3.7905,-3.7905,-3.7905,-3.7905,-3.7905,-3.7905,-3.7905,-3.7905,-3.7905,-3.7905,-3.7821,-3.7821,-3.7905,-3.7905,-3.7905,-3.7889,-3.7821,-3.7719,-3.7483,-3.6129,-3.5622,-3.5622,-3.5622,-3.5622,-3.5577,-3.5515,-3.547,-3.547,-3.5424,-3.5362,-3.5362,-3.5362,-3.5362,-3.5362,-3.5362,-3.4941,-3.4479,-3.4479,-3.4479,-3.4333,-3.3735,-3.4087,-3.4333,-3.3735,-3.3582,-3.3582,-3.3582,-3.3582,-3.3326,-3.2492,-3.2315,-3.1842,-3.074,-3.051,-3.0216,-2.9582,-2.9475,-2.9205,-2.8547,-2.7859,-2.7475,-2.74,-2.74,-2.7096,-2.6497,-2.7036,-2.7066,-2.6385,-2.7001,-2.7235,-2.7184,-2.7141,-2.7156,-2.7172,-2.7086,-2.6285,-2.1962,-2.2315,-2.2873,-2.3801,-2.4758,-2.5973,-2.803,-2.8442,-2.8956,-3.098,-3.1376,-3.1816,-3.3305,-3.3575,-3.3812,-3.4573,-3.4945,-3.5148,-3.5148,-3.5419,-3.5453,-3.5013,-3.5351,-3.5622,-3.5622,-3.5622,-3.5622,-3.5622,-3.6045,-3.6299,-3.6299,-3.7026,-3.7635,-3.8058,-3.8379,-3.8751,-3.9174,-3.9174,-3.9174,-3.9174,-3.9174,-3.9174,-3.9174,-3.9174,-3.8937,-3.8565,-3.8988,-3.8937,-3.8565,-3.8988,-3.9174,-3.914,-3.87,-3.8531,-3.8413,-3.7347,-3.6958,-3.6958,-3.6958,-3.6958,-3.6958,-3.6958,-3.6654,-3.6383,-3.6823,-3.6332,-3.5808,-3.6705,-3.6637,-3.64,-3.684,-3.6737,-3.6413,-3.5978,-3.586,-3.5696,-3.4947,-3.5005,-3.5098,-3.48,-3.4752,-3.4752,-3.4752,-3.4752,-3.4653,-3.4402,-3.3697,-3.3139,-3.2933,-3.2602,-3.2104,-3.142,-3.1029,-3.067,-3.0373,-2.9743,-2.9304,-2.9278,-2.8938,-2.8547,-2.8233,-2.8165,-2.8186,-2.8308,-2.8212,-2.8353,-2.8742,-2.8711,-2.8696,-2.8712,-2.8667,-2.825,-2.4235,-2.514,-2.6063,-2.6532,-2.7992,-2.9478,-3.0,-3.0504,-3.1267,-3.2632,-3.2899,-3.3288,-3.4573,-3.4793,-3.4979,-3.552,-3.5622,-3.5622,-3.5622,-3.5436,-3.5182,-3.4844,-3.5115,-3.5402,-3.5605,-3.5622,-3.5707,-3.5926,-3.6468,-3.6874,-3.7077,-3.7804,-3.8447,-3.8971,-3.9191,-3.9546,-4.007,-4.007,-4.007,-4.007,-4.007,-4.007,-4.007,-4.007,-3.9783,-3.9326,-3.9851,-3.9783,-3.9326,-3.9868,-4.007,-4.002,-3.9495,-3.9292,-3.9225,-3.87,-3.8261,-3.7905,-3.7905,-3.7905,-3.7905,-3.7905,-3.7533,-3.7195,-3.7736,-3.7127,-3.6485,-3.7601,-3.7516,-3.7212,-3.777,-3.7905,-3.777,-3.7212,-3.6924,-3.662,-3.6062,-3.5774,-3.5622,-3.5622,-3.5622,-3.5622,-3.5622,-3.5622,-3.5622,-3.5622,-3.4752,-3.4235,-3.4576,-3.4037,-3.339,-3.2928,-3.2304,-3.1887,-3.1887,-3.1257,-3.0842,-3.0797,-3.037,-3.0053,-2.9998,-2.958,-2.9593,-3.0076,-2.9465,-2.941,-2.9853,-2.9871,-2.9848,-2.9879,-3.0053,-3.0072,-2.543,-2.5585,-2.6445,-2.9881,-3.1076,-3.1685,-3.2735,-3.3564,-3.4133,-3.4381,-3.4421,-3.4675,-3.5453,-3.5588,-3.5588,-3.5622,-3.5622,-3.5622,-3.5622,-3.4979,-3.4793,-3.5504,-3.4962,-3.481,-3.5554,-3.5622,-3.5926,-3.6688,-3.6772,-3.7094,-3.7838,-3.8565,-3.8971,-3.8988,-3.9681,-4.0054,-4.007,-4.007,-4.007,-4.007,-4.007,-4.007,-4.007,-4.007,-4.007,-4.0054,-4.007,-4.007,-4.0054,-4.007,-4.007,-4.007,-4.0054,-4.0054,-4.0037,-4.002,-3.9123,-3.7905,-3.7905,-3.7905,-3.7905,-3.7905,-3.7889,-3.7872,-3.7905,-3.7872,-3.7855,-3.7889,-3.7889,-3.7872,-3.7905,-3.7905,-3.7905,-3.7872,-3.7313,-3.6772,-3.6755,-3.6146,-3.5622,-3.5622,-3.5622,-3.5622,-3.5622,-3.5622,-3.5622,-3.5622,-3.5577,-3.5316,-3.4688,-3.4037,-3.3582,-3.355,-3.2976,-3.256,-3.256,-3.1935,-3.1582,-3.1566,-3.1566,-3.155,-3.1518,-3.1534,-3.1502,-3.1549,-3.0877,-3.0569,-3.0585,-3.0479,-3.0456,-3.0503,-3.1167,-3.1465,-2.6336,-2.8094,-3.0076,-3.1047,-3.2755,-3.4288,-3.4498,-3.4955,-3.5161,-3.4619,-3.4489,-3.4421,-3.4184,-3.415,-3.4303,-3.4793,-3.4878,-3.5047,-3.5554,-3.5402,-3.5148,-3.4895,-3.5081,-3.5148,-3.4895,-3.5318,-3.5723,-3.5994,-3.6958,-3.7789,-3.8418,-3.9606,-4.0417,-4.0874,-4.0706,-4.0607,-4.0607,-4.0286,-4.007,-4.007,-4.007,-4.007,-4.007,-4.007,-4.007,-4.007,-4.007,-4.007,-4.007,-4.007,-4.007,-4.007,-4.007,-4.007,-4.007,-4.007,-3.9766,-3.9343,-3.9343,-3.9343,-3.9343,-3.9343,-3.9022,-3.8717,-3.9208,-3.8667,-3.8108,-3.9073,-3.9005,-3.8734,-3.9225,-3.9634,-3.9671,-3.8814,-3.8713,-3.8403,-3.7068,-3.6836,-3.661,-3.5751,-3.5898,-3.6028,-3.565,-3.5622,-3.5622,-3.5622,-3.5622,-3.5515,-3.5299,-3.5068,-3.4911,-3.4911,-3.4742,-3.4592,-3.4592,-3.3968,-3.3559,-3.3528,-3.3113,-3.2853,-3.2813,-3.2406,-3.2392,-3.2868,-3.2272,-3.2139,-3.2588,-3.2114,-3.1885,-3.1885,-3.1607,-3.1482,-2.8424,-3.045,-3.2426,-3.34,-3.4969,-3.623,-3.6028,-3.5957,-3.5601,-3.4389,-3.3897,-3.3474,-3.2747,-3.2611,-3.2933,-3.3931,-3.4117,-3.4541,-3.5718,-3.5501,-3.5321,-3.5557,-3.5603,-3.5639,-3.5707,-3.6146,-3.6315,-3.6062,-3.7631,-3.8711,-3.9049,-4.0453,-4.1402,-4.181,-4.1206,-4.0903,-4.0903,-4.0368,-4.007,-4.007,-4.007,-4.007,-4.007,-4.007,-4.007,-4.007,-4.007,-4.007,-4.007,-4.007,-4.007,-4.007,-4.007,-4.007,-4.007,-4.007,-4.007,-4.007,-4.007,-4.007,-4.007,-4.007,-3.9766,-3.9462,-3.9935,-3.9591,-3.9157,-4.0095,-4.0203,-4.0134,-4.0552,-4.0967,-4.1028,-4.0227,-4.0047,-3.9783,-3.8449,-3.8217,-3.791,-3.6801,-3.6898,-3.6934,-3.6301,-3.6011,-3.581,-3.5622,-3.5622,-3.5622,-3.5622,-3.5622,-3.5622,-3.5622,-3.5622,-3.5622,-3.5622,-3.5207,-3.4944,-3.4884,-3.4504,-3.4242,-3.4175,-3.3801,-3.381,-3.425,-3.362,-3.3535,-3.399,-3.3282,-3.2858,-3.2591,-3.2131,-3.1901,-3.1456,-3.2538,-3.3605,-3.6707,-3.7544,-3.7497,-3.7219,-3.6574,-3.5447,-3.3663,-3.2669,-3.1907,-3.1106,-3.1021,-3.1562,-3.3051,-3.3355,-3.4066,-3.6084,-3.5343,-3.5334,-3.7241,-3.641,-3.6299,-3.777,-3.7939,-3.7652,-3.6937,-3.8683,-3.9794,-3.9839,-4.1129,-4.1853,-4.1895,-4.1296,-4.0995,-4.0949,-4.0368,-4.007,-4.007,-4.007,-4.007,-4.007,-4.007,-4.007,-4.007,-4.007,-4.007,-4.007,-4.007,-4.007,-4.007,-4.007,-4.0121,-4.0121,-4.0121,-4.0121,-4.0121,-4.0121,-4.0121,-4.007,-4.007,-4.007,-4.0138,-4.0121,-4.0497,-4.0903,-4.0949,-4.1358,-4.181,-4.181,-4.1793,-4.1853,-4.181,-4.1268,-4.076,-4.0724,-4.0179,-3.9451,-3.861,-3.8451,-3.822,-3.7458,-3.6886,-3.6353,-3.5834,-3.5673,-3.5673,-3.5622,-3.5622,-3.5622,-3.5622,-3.5622,-3.5622,-3.5622,-3.5622,-3.5622,-3.5622,-3.5622,-3.5622,-3.5622,-3.5622,-3.5622,-3.5622,-3.497,-3.4645,-3.4645,-3.3979,-3.329,-3.2673,-3.2658,-3.2635,-3.2297,-3.4321,-3.645,-3.7276,-3.7936,-3.8112,-3.7068,-3.6195,-3.4813,-3.1965,-3.0745,-2.9728,-2.8149,-2.8772,-3.0023,-3.1512,-3.2679,-3.3956,-3.5579,-3.6034,-3.6424,-3.6933,-3.7187,-3.7483,-3.7872,-3.8396,-3.8554,-3.8222,-3.9212,-4.0,-4.0475,-4.1734,-4.2675,-4.3051,-4.2541,-4.2038,-4.1578,-4.0594,-4.007,-4.007,-4.007,-4.007,-4.007,-4.007,-4.007,-4.007,-4.007,-4.007,-4.007,-4.007,-4.007,-4.007,-4.007,-4.0319,-4.0703,-4.0703,-4.0703,-4.0703,-4.0703,-4.0449,-4.007,-4.007,-4.007,-4.0154,-4.0577,-4.078,-4.0995,-4.1446,-4.1664,-4.181,-4.181,-4.2121,-4.2342,-4.1895,-4.2002,-4.1934,-4.0925,-4.0806,-4.0625,-3.9509,-3.9288,-3.9217,-3.9022,-3.8485,-3.8017,-3.7749,-3.6999,-3.6282,-3.569,-3.5622,-3.5622,-3.5622,-3.5622,-3.5622,-3.5622,-3.5622,-3.5622,-3.5622,-3.5622,-3.5622,-3.5622,-3.5622,-3.5622,-3.5622,-3.5442,-3.5346,-3.5329,-3.4662,-3.4276,-3.4071,-3.3567,-3.3324,-3.4357,-3.6083,-3.7569,-3.7936,-3.8102,-3.7723,-3.6027,-3.4663,-3.287,-2.9793,-2.8438,-2.7382,-2.5995,-2.6962,-2.8467,-2.9973,-3.1732,-3.3507,-3.5224,-3.6242,-3.7029,-3.753,-3.8031,-3.8577,-3.9153,-3.9593,-3.991,-4.0071,-4.0421,-4.0785,-4.1046,-4.23,-4.3178,-4.3479,-4.2976,-4.24,-4.181,-4.1168,-4.0861,-4.0861,-4.0861,-4.0861,-4.0861,-4.0594,-4.0449,-4.0449,-4.0204,-4.007,-4.007,-4.007,-4.007,-4.0121,-4.0368,-4.0625,-4.0949,-4.1223,-4.1296,-4.1296,-4.1296,-4.1105,-4.0814,-4.0546,-4.0449,-4.0528,-4.1133,-4.149,-4.175,-4.2121,-4.2364,-4.2562,-4.2562,-4.279,-4.2976,-4.2619,-4.279,-4.2849,-4.2098,-4.214,-4.2014,-4.0998,-4.0491,-4.0183,-3.996,-3.9633,-3.9274,-3.8947,-3.8087,-3.7335,-3.6886,-3.6103,-3.5622,-3.5622,-3.5827,-3.5871,-3.5622,-3.5827,-3.5854,-3.5622,-3.5622,-3.5622,-3.5622,-3.5622,-3.5622,-3.5622,-3.5622,-3.5622,-3.5622,-3.52,-3.4903,-3.4594,-3.4236,-3.4233,-3.656,-3.7496,-3.7826,-3.8524,-3.801,-3.6802,-3.4715,-3.2696,-3.0437,-2.7583,-2.6127,-2.5147,-2.4354,-2.5406,-2.6928,-2.8569,-3.0598,-3.2764,-3.4869,-3.6129,-3.7194,-3.836,-3.8931,-3.9668,-4.0804,-4.0949,-4.1268,-4.1895,-4.1937,-4.1841,-4.1684,-4.2848,-4.3497,-4.3497,-4.2976,-4.244,-4.1937,-4.1853,-4.181,-4.181,-4.181,-4.181,-4.1768,-4.1268,-4.0995,-4.0856,-4.0417,-4.0204,-4.0204,-4.0204,-4.0254,-4.0385,-4.0827,-4.1087,-4.1223,-4.1725,-4.1937,-4.1937,-4.1937,-4.1853,-4.1707,-4.1178,-4.1041,-4.1133,-4.1768,-4.2302,-4.2693,-4.2788,-4.3142,-4.3497,-4.3497,-4.3497,-4.3497,-4.3497,-4.3497,-4.3497,-4.3497,-4.3497,-4.3277,-4.2598,-4.1901,-4.1254,-4.0781,-4.0673,-4.0472,-4.0024,-3.9242,-3.8702,-3.8635,-3.6977,-3.581,-3.581,-3.6207,-3.6333,-3.5854,-3.6182,-3.6224,-3.5739,-3.5667,-3.5622,-3.5622,-3.5622,-3.5622,-3.5622,-3.5622,-3.5622,-3.5622,-3.5622,-3.5313,-3.4757,-3.4858,-3.5232,-3.634,-3.7477,-3.8524,-3.867,-3.7606,-3.6064,-3.4293,-3.1874,-2.9242,-2.6446,-2.5013,-2.396,-2.2875,-2.3883,-2.5558,-2.7689,-2.9414,-3.145,-3.4228,-3.5898,-3.7089,-3.7929,-3.9517,-4.0642,-4.0886,-4.1358,-4.1895,-4.248,-4.2519,-4.2505,-4.2495,-4.3123,-4.3497,-4.3497,-4.2976,-4.2655,-4.2519,-4.2038,-4.181,-4.181,-4.181,-4.181,-4.181,-4.1664,-4.1358,-4.0903,-4.0827,-4.078,-4.078,-4.078,-4.1059,-4.149,-4.1621,-4.1937,-4.2382,-4.2519,-4.2519,-4.2519,-4.2519,-4.2221,-4.1793,-4.1664,-4.1621,-4.1768,-4.2342,-4.2616,-4.2788,-4.325,-4.341,-4.3497,-4.3497,-4.3497,-4.3497,-4.3497,-4.3497,-4.3497,-4.3497,-4.3497,-4.3442,-4.3314,-4.3167,-4.3075,-4.2953,-4.2596,-4.2175,-4.1865,-4.0971,-4.0224,-4.0002,-3.8193,-3.6904,-3.6904,-3.6999,-3.702,-3.6943,-3.6603,-3.6333,-3.6266,-3.5871,-3.5622,-3.5622,-3.5622,-3.5622,-3.5622,-3.5622,-3.5622,-3.5622,-3.5622,-3.5526,-3.5459,-3.6106,-3.651,-3.6798,-3.779,-3.8597,-3.8175,-3.6835,-3.4981,-3.2485,-2.9813,-2.7042,-2.4343,-2.2902,-2.2039,-2.1783,-2.2919,-2.4391,-2.5845,-2.7689,-2.982,-3.2408,-3.4404,-3.6163,-3.7719,-3.9684,-4.1041,-4.1358,-4.1895,-4.2501,-4.3087,-4.3142,-4.3142,-4.3142,-4.3375,-4.3497,-4.3497,-4.325,-4.3142,-4.3142,-4.2828,-4.2678,-4.2678,-4.2678,-4.2678,-4.2696,-4.2422,-4.2121,-4.181,-4.149,-4.1358,-4.1358,-4.1358,-4.1534,-4.1853,-4.2162,-4.244,-4.2732,-4.3014,-4.3142,-4.3142,-4.3142,-4.2921,-4.2678,-4.2678,-4.2501,-4.2382,-4.2921,-4.3142,-4.3178,-4.341,-4.3497,-4.3497,-4.3497,-4.3497,-4.3497,-4.3497,-4.3497,-4.3497,-4.3497,-4.3497,-4.3497,-4.3497,-4.3497,-4.3497,-4.3497,-4.3304,-4.3086,-4.2931,-4.2123,-4.1506,-4.1358,-4.0127,-3.887,-3.7922,-3.7683,-3.747,-3.721,-3.721,-3.7073,-3.6812,-3.6291,-3.6028,-3.6017,-3.574,-3.5745,-3.6013,-3.5753,-3.5723,-3.6034,-3.5723,-3.5797,-3.6236,-3.6641,-3.7216,-3.6743,-3.7551,-3.8028,-3.7386,-3.5862,-3.3707,-3.0759,-2.784,-2.5057,-2.2498,-2.1115,-2.0497,-2.1094,-2.2141,-2.3257,-2.4337,-2.6099,-2.8247,-3.0818,-3.3102,-3.5351,-3.7635,-3.9807,-4.1268,-4.175,-4.2462,-4.3069,-4.3463,-4.3497,-4.3497,-4.3497,-4.3497,-4.3497,-4.3497,-4.3497,-4.3497,-4.3497,-4.3497,-4.3497,-4.3497,-4.3497,-4.3497,-4.3497,-4.305,-4.2826,-4.2655,-4.2203,-4.1979,-4.1979,-4.1979,-4.2062,-4.2226,-4.2675,-4.2864,-4.2939,-4.3321,-4.3497,-4.3497,-4.3497,-4.3497,-4.3497,-4.3497,-4.3214,-4.2939,-4.3375,-4.3497,-4.3497,-4.3497,-4.3497,-4.3497,-4.3497,-4.3497,-4.3497,-4.3497,-4.3497,-4.3497,-4.3497,-4.3497,-4.3497,-4.3497,-4.3497,-4.3497,-4.3497,-4.3497,-4.3497,-4.3497,-4.2947,-4.2561,-4.2561,-4.1864,-4.0808,-3.9387,-3.8869,-3.8363,-3.781,-3.8007,-3.7936,-3.739,-3.686,-3.6561,-3.6587,-3.6157,-3.6127,-3.6583,-3.6324,-3.632,-3.6642,-3.6399,-3.6554,-3.7047,-3.7199,-3.7874,-3.5018,-3.5862,-3.6505,-3.6431,-3.4596,-3.2279,-3.022,-2.7094,-2.4069,-2.2045,-2.0779,-2.0289,-2.1068,-2.1322,-2.2084,-2.4167,-2.522,-2.708,-3.0683,-3.3102,-3.5351,-3.7635,-4.0155,-4.175,-4.1793,-4.2772,-4.3444,-4.3497,-4.3497,-4.3497,-4.3497,-4.3497,-4.3497,-4.3497,-4.3497,-4.3497,-4.3497,-4.3497,-4.3497,-4.3497,-4.3497,-4.3497,-4.3497,-4.3444,-4.3178,-4.2711,-4.2655,-4.2616,-4.2616,-4.2616,-4.2884,-4.3356,-4.341,-4.341,-4.3444,-4.3479,-4.3497,-4.3497,-4.3497,-4.3497,-4.3497,-4.3497,-4.3463,-4.3444,-4.3497,-4.3497,-4.3497,-4.3497,-4.3497,-4.3497,-4.3497,-4.3497,-4.3497,-4.3497,-4.3497,-4.3497,-4.3497,-4.3497,-4.3497,-4.3497,-4.3497,-4.3497,-4.3497,-4.3497,-4.3497,-4.3497,-4.3424,-4.3387,-4.3387,-4.269,-4.2124,-4.1965,-4.1251,-4.0496,-3.9731,-3.9236,-3.867,-3.7882,-3.7394,-3.7154,-3.7148,-3.7075,-3.7085,-3.715,-3.782,-3.7917,-3.7386,-3.8062,-3.8201,-3.7838,-3.8497,-3.887,-3.3991,-3.5049,-3.5836,-3.5585,-3.3524,-3.1119,-2.9355,-2.5913,-2.2652,-2.1231,-1.9866,-1.9235,-2.0272,-2.0483,-2.1075,-2.2885,-2.3427,-2.4611,-2.7435,-2.9364,-3.1816,-3.5419,-3.8188,-4.0329,-4.1669,-4.281,-4.3497,-4.3497,-4.3497,-4.3497,-4.3497,-4.3497,-4.3497,-4.3497,-4.3497,-4.3497,-4.3497,-4.3497,-4.3497,-4.3497,-4.3497,-4.3497,-4.3497,-4.3497,-4.3375,-4.3178,-4.3178,-4.3178,-4.3178,-4.3178,-4.3304,-4.3497,-4.3497,-4.3497,-4.3497,-4.3497,-4.3497,-4.3497,-4.3497,-4.3497,-4.3497,-4.3497,-4.3497,-4.3497,-4.3497,-4.3497,-4.3497,-4.3497,-4.3497,-4.3497,-4.3497,-4.3497,-4.3497,-4.3497,-4.3497,-4.3497,-4.3497,-4.3497,-4.3497,-4.3497,-4.3497,-4.3497,-4.3497,-4.3497,-4.3497,-4.3497,-4.3497,-4.3497,-4.3497,-4.3222,-4.302,-4.302,-4.1882,-4.0983,-4.0653,-4.0412,-3.9962,-3.9163,-3.8634,-3.8128,-3.7631,-3.7821,-3.8053,-3.8342,-3.8864,-3.9156,-3.9195,-3.887,-3.8805,-3.9049,-3.9013,-3.9225,-3.2538,-3.3622,-3.4326,-3.416,-3.2218,-2.9953,-2.8368,-2.4873,-2.1668,-2.0586,-1.9132,-1.8459,-1.9764,-2.0002,-2.0491,-2.2057,-2.2496,-2.3422,-2.5751,-2.7572,-3.0114,-3.4059,-3.6763,-3.9091,-4.1113,-4.265,-4.3497,-4.3497,-4.3497,-4.3497,-4.3497,-4.3497,-4.3497,-4.3497,-4.3497,-4.3497,-4.3497,-4.3497,-4.3497,-4.3497,-4.3497,-4.3497,-4.3497,-4.3497,-4.3497,-4.3497,-4.3497,-4.3497,-4.3497,-4.3497,-4.3497,-4.3497,-4.3497,-4.3497,-4.3497,-4.3497,-4.3497,-4.3497,-4.3497,-4.3497,-4.3497,-4.3497,-4.3497,-4.3497,-4.3497,-4.3497,-4.3497,-4.3497,-4.3497,-4.3497,-4.3497,-4.3497,-4.3497,-4.3497,-4.3497,-4.3497,-4.3497,-4.3497,-4.3497,-4.3497,-4.3497,-4.3497,-4.3497,-4.3497,-4.3497,-4.3497,-4.3497,-4.3497,-4.3497,-4.3497,-4.3497,-4.3497,-4.2488,-4.1717,-4.1479,-4.147,-4.1098,-4.0296,-3.9896,-3.9436,-3.8862,-3.9082,-3.9358,-3.9707,-4.0148,-4.0492,-4.06,-3.9958,-3.9809,-4.0123,-3.9552,-3.958,-3.033,-3.1124,-3.1542,-3.1941,-3.0545,-2.871,-2.7166,-2.4169,-2.1378,-2.0238,-1.8819,-1.8268,-1.9731,-2.0002,-2.0491,-2.2057,-2.2919,-2.4288,-2.6913,-2.9226,-3.1673,-3.4304,-3.6488,-3.8455,-4.0058,-4.2212,-4.3497,-4.3497,-4.3497,-4.3497,-4.3497,-4.3497,-4.3497,-4.3497,-4.3497,-4.3497,-4.3497,-4.3497,-4.3497,-4.3497,-4.3497,-4.3497,-4.3497,-4.3497,-4.3497,-4.3497,-4.3497,-4.3497,-4.3497,-4.3497,-4.3497,-4.3497,-4.3497,-4.3497,-4.3497,-4.3497,-4.3497,-4.3497,-4.3497,-4.3497,-4.3497,-4.3497,-4.3497,-4.3497,-4.3497,-4.3497,-4.3497,-4.3497,-4.3497,-4.3497,-4.3497,-4.3497,-4.3497,-4.3497,-4.3497,-4.3497,-4.3497,-4.3497,-4.3497,-4.3497,-4.3497,-4.3497,-4.3497,-4.3497,-4.3497,-4.3497,-4.3497,-4.3497,-4.3497,-4.3497,-4.3497,-4.3497,-4.3479,-4.3164,-4.2371,-4.2298,-4.194,-4.1126,-4.1071,-4.1061,-4.1063,-4.1086,-4.1079,-4.1101,-4.1867,-4.1973,-4.1375,-4.1635,-4.1473,-4.0903,-4.0368,-4.007,-2.7259,-2.8336,-2.8941,-2.8613,-2.7457,-2.6314,-2.5805,-2.3033,-2.0449,-2.0061,-1.8819,-1.8245,-1.9731,-2.0002,-2.0829,-2.3376,-2.3985,-2.4696,-2.6338,-2.8546,-3.1008,-3.367,-3.8223,-4.1487,-4.2375,-4.3098,-4.3497,-4.3497,-4.3497,-4.3497,-4.3497,-4.3497,-4.3497,-4.3497,-4.3497,-4.3497,-4.3497,-4.3497,-4.3497,-4.3497,-4.3497,-4.3497,-4.3497,-4.3497,-4.3497,-4.3497,-4.3497,-4.3497,-4.3497,-4.3497,-4.3497,-4.3497,-4.3497,-4.3497,-4.3497,-4.3497,-4.3497,-4.3497,-4.3497,-4.3497,-4.3497,-4.3497,-4.3497,-4.3497,-4.3497,-4.3497,-4.3497,-4.3497,-4.3497,-4.3497,-4.3497,-4.3497,-4.3497,-4.3497,-4.3497,-4.3563,-4.3804,-4.3849,-4.3912,-4.4194,-4.4252,-4.4252,-4.4252,-4.4252,-4.4252,-4.4252,-4.4035,-4.3849,-4.3849,-4.3646,-4.3497,-4.3497,-4.3497,-4.3387,-4.3146,-4.3128,-4.2797,-4.1974,-4.1919,-4.1687,-4.1118,-4.1622,-4.1928,-4.1928,-4.2711,-4.3025,-4.283,-4.2549,-4.1895,-4.0903,-4.075,-4.0449,-2.4367,-2.5729,-2.6551,-2.6294,-2.5362,-2.4475,-2.4329,-2.1842,-1.9562,-1.9562,-1.864,-1.8245,-1.9731,-2.0002,-2.0795,-2.3257,-2.3883,-2.465,-2.619,-2.8491,-3.1246,-3.472,-3.9244,-4.2213,-4.2546,-4.313,-4.3497,-4.3497,-4.3497,-4.3497,-4.3497,-4.3497,-4.3497,-4.3497,-4.3497,-4.3497,-4.3497,-4.3497,-4.3497,-4.3497,-4.3497,-4.3497,-4.3497,-4.3497,-4.3497,-4.3497,-4.3497,-4.3497,0.0,-4.3497,-4.3497,-4.3497,-4.3497,-4.3497,-4.3497,-4.3497,-4.3497,-4.3497,-4.3497,-4.3497,-4.3497,-4.3497,-4.3497,-4.3497,-4.3497,-4.3497,-4.3497,-4.3497,-4.3497,-4.3497,-4.3497,-4.3497,-4.3497,-4.3497,-4.3597,-4.3758,-4.3955,-4.4117,-4.429,-4.4553,-4.458,-4.458,-4.458,-4.458,-4.458,-4.458,-4.4392,-4.4175,-4.3998,-4.3836,-4.3646,-4.3513,-4.3497,-4.3497,-4.3497,-4.3497,-4.3296,-4.2787,-4.2768,-4.2532,-4.2024,-4.2496,-4.2768,-4.2768,-4.3224,-4.3497,-4.3497,-4.2976,-4.2203,-4.1206,-4.0995,-4.0733,0.0,-2.322,-2.4288,-2.4579,-2.3899,-2.3068,-2.2686,-2.0683,0.0,-1.8894,-1.8318,-1.8262,-1.9799,-2.0035,-2.0559,-2.2276,-2.3185,-2.4454,-2.6659,-2.9233,-3.2619,-3.7198,-3.9845,-4.1277,-4.1277,-4.2616,-4.3497,-4.3497,-4.3497,-4.3497,-4.3497,-4.3497,-4.3497,-4.3497,-4.3497,-4.3497,-4.3497,-4.3497,-4.3497,-4.3497,-4.3497,-4.3497,-4.3497,-4.3497,-4.3497,-4.3497,-4.3497,-4.3497,-4.3497,-4.3497,-4.3497,-4.3497,-4.3497,-4.3497,-4.3497,-4.3497,-4.3497,-4.3497,-4.3497,-4.3497,-4.3497,-4.3497,-4.3497,-4.3497,-4.3497,-4.3497,-4.3497,-4.3497,-4.3497,-4.3497,-4.3497,-4.3513,-4.3548,-4.3548,-4.3804,-4.4058,-4.4058,-4.4373,-4.4631,-4.4657,-4.4657,-4.4657,-4.4657,-4.4657,-4.4657,-4.4657,-4.4657,-4.4501,-4.4087,-4.4016,-4.3881,-4.3548,-4.3497,-4.3497,-4.3497,-4.3497,-4.3497,-4.3497,-4.3497,-4.3497,-4.3497,-4.3497,-4.3497,-4.3497,-4.3497,-4.3497,-4.3497,-4.3014,-4.244,-4.1853,-4.1313,-4.0995,-1.7778,0.0,-2.1265,-2.0533,-2.0577,-2.0754,0.0,-1.9745,-1.8894,-1.8894,-1.8318,-1.8454,-2.0517,-2.0416,-2.1049,-2.4306,-2.572,-2.6939,-2.8369,-3.2755,-3.6924,-3.9887,-4.1846,-4.2928,-4.2928,-4.3277,-4.3497,-4.3497,-4.3497,-4.3497,-4.3497,-4.3497,-4.3497,-4.3497,-4.3497,-4.3497,-4.3497,-4.3497,-4.3497,-4.3497,-4.3497,-4.3497,-4.3497,-4.3497,-4.3497,-4.3497,-4.3497,-4.3497,-4.3497,-4.3497,-4.3497,-4.3497,-4.3497,-4.3497,-4.3497,-4.3497,-4.3497,-4.3497,-4.3497,-4.3497,-4.3497,-4.3497,-4.3497,-4.3497,-4.3497,-4.3497,-4.3497,-4.3497,-4.3497,-4.3497,-4.3497,-4.3693,-4.3881,-4.3881,-4.4194,-4.4527,-4.4781,-4.4919,-4.5074,-4.5322,-4.5362,-4.5362,-4.5362,-4.5362,-4.5362,-4.5362,-4.514,-4.4872,-4.4482,-4.4175,-4.3881,-4.3548,-4.3497,-4.3497,-4.3497,-4.3497,-4.3497,-4.3497,-4.3497,-4.3497,-4.3497,-4.3497,-4.3497,-4.3497,-4.3497,-4.3497,-4.3497,-4.3375,-4.305,-4.248,-4.2342,-4.1768,-1.5578,-1.7693,-1.9709,-1.9484,-1.9697,-2.0002,-2.0002,-1.9181,-1.8403,-1.8403,-1.8352,-1.8792,-2.0365,-2.0994,-2.2184,-2.4991,-2.6695,-2.86,-3.1208,-3.5642,-3.9221,-4.091,-4.2525,-4.3497,-4.3497,-4.3497,-4.3497,-4.3497,-4.3497,-4.3497,-4.3497,-4.3497,-4.3497,-4.3497,-4.3497,-4.3497,-4.3497,-4.3497,-4.3497,-4.3497,-4.3497,-4.3497,-4.3497,-4.3497,-4.3497,-4.3497,-4.3497,-4.3497,-4.3497,-4.3497,-4.3497,-4.3497,-4.3497,-4.3497,-4.3497,-4.3497,-4.3497,-4.3497,-4.3497,-4.3497,-4.3497,-4.3497,-4.3497,-4.3497,-4.3497,-4.3597,-4.3693,-4.3548,-4.3631,-4.3726,-4.3726,-4.3986,-4.428,-4.428,-4.4561,-4.4872,-4.5052,-4.5222,-4.5381,-4.5568,-4.5586,-4.5586,-4.5586,-4.5586,-4.5586,-4.5586,-4.5457,-4.5222,-4.4872,-4.4638,-4.4383,-4.4048,-4.3848,-4.3734,-4.3734,-4.3734,-4.366,-4.3497,-4.3497,-4.3497,-4.3497,-4.3497,-4.3497,-4.3497,-4.3497,-4.3497,-4.3497,-4.3497,-4.3375,-4.305,-4.2826,-4.2342,-1.4749,-1.6745,-1.8877,-1.9495,-1.9833,-2.0002,-2.0002,-1.9022,-1.8126,-1.8126,-1.864,-1.9367,-2.0322,-2.1885,-2.3606,-2.5429,-2.7452,-3.0252,-3.4401,-3.782,-4.0194,-4.102,-4.2525,-4.3497,-4.3497,-4.3497,-4.3497,-4.3497,-4.3497,-4.3497,-4.3497,-4.3497,-4.3497,-4.3497,-4.3497,-4.3497,-4.3497,-4.3497,-4.3497,-4.3497,-4.3497,-4.3497,-4.3497,-4.3497,-4.3497,-4.3497,-4.3497,-4.3497,-4.3497,-4.3497,-4.3497,-4.3497,-4.3497,-4.3497,-4.3497,-4.3497,-4.3497,-4.3497,-4.3497,-4.3497,-4.3497,-4.3497,-4.3497,-4.3513,-4.3563,-4.3772,-4.3955,-4.3726,-4.3868,-4.4087,-4.4087,-4.4373,-4.4676,-4.4676,-4.4943,-4.518,-4.518,-4.54,-4.5586,-4.5586,-4.5586,-4.5586,-4.5586,-4.5586,-4.5586,-4.5586,-4.5586,-4.5476,-4.5137,-4.5094,-4.4962,-4.4653,-4.4235,-4.4007,-4.4007,-4.4003,-4.3865,-4.3517,-4.3563,-4.3534,-4.3497,-4.3497,-4.3497,-4.3497,-4.3497,-4.3497,-4.3497,-4.3497,-4.3497,-4.3497,-4.3014,-4.2788,-1.5852,-1.7151,-1.8014,-1.8115,-1.9072,-2.0002,-2.0002,-1.9816,-1.9664,-1.9664,-1.9748,-2.0467,-2.2496,-2.346,-2.4818,-2.7613,-3.0618,-3.3626,-3.6618,-3.8676,-4.0194,-4.102,-4.2525,-4.3497,-4.3497,-4.3497,-4.3497,-4.3497,-4.3497,-4.3497,-4.3497,-4.3497,-4.3497,-4.3497,-4.3497,-4.3497,-4.3497,-4.3497,-4.3497,-4.3497,-4.3497,-4.3497,-4.3497,-4.3497,-4.3497,-4.3497,-4.3497,-4.3497,-4.3497,-4.3497,-4.3497,-4.3497,-4.3497,-4.3497,-4.3497,-4.3497,-4.3497,-4.3497,-4.3497,-4.3497,-4.3497,-4.3497,-4.3497,-4.3529,-4.3836,-4.3955,-4.4058,-4.4364,-4.4474,-4.4501,-4.4501,-4.4757,-4.5011,-4.5011,-4.5263,-4.5513,-4.5513,-4.5568,-4.5586,-4.5586,-4.5586,-4.5586,-4.5586,-4.5586,-4.5586,-4.5586,-4.5586,-4.5477,-4.5125,-4.5099,-4.4978,-4.4642,-4.4223,-4.4007,-4.4007,-4.3995,-4.3866,-4.3509,-4.3781,-4.3789,-4.3497,-4.3497,-4.3497,-4.3497,-4.3497,-4.3497,-4.3497,-4.3497,-4.3497,-4.3497,-4.341,-4.3124,-1.5122,-1.6627,-1.7912,-1.8302,-1.9536,-2.0653,-2.0653,-2.0653,-2.0653,-2.0653,-2.1464,-2.2495,-2.3543,-2.5226,-2.7567,-3.0859,-3.3789,-3.6058,-3.7331,-3.8872,-4.0029,-4.0414,-4.1864,-4.2837,-4.2837,-4.3222,-4.3497,-4.3497,-4.3497,-4.3497,-4.3497,-4.3497,-4.3497,-4.3497,-4.3497,-4.3497,-4.3497,-4.3497,-4.3497,-4.3497,-4.3497,-4.3497,-4.3497,-4.3497,-4.3497,-4.3497,-4.3497,-4.3497,-4.3497,-4.3497,-4.3497,-4.3497,-4.3497,-4.3497,-4.3497,-4.3497,-4.3497,-4.3497,-4.3497,-4.3497,-4.3497,-4.3497,-4.3612,-4.3804,-4.3955,-4.429,-4.4638,-4.4806,-4.4872,-4.4872,-4.4872,-4.5118,-4.5362,-4.5362,-4.5495,-4.5586,-4.5586,-4.5586,-4.5586,-4.5586,-4.5586,-4.5586,-4.5586,-4.5586,-4.5586,-4.5586,-4.5586,-4.5532,-4.538,-4.536,-4.5311,-4.5174,-4.4815,-4.4581,-4.4581,-4.4591,-4.4362,-4.3791,-4.373,-4.366,-4.3497,-4.3497,-4.3497,-4.3497,-4.3497,-4.3497,-4.3497,-4.3497,-4.3497,-4.3497,-4.3497,-4.3375,-1.4716,-1.6255,-1.7811,-1.8894,-2.0314,-2.1559,-2.1898,-2.1983,-2.2084,-2.244,-2.3648,-2.4717,-2.5004,-2.7709,-3.0884,-3.3881,-3.6285,-3.7771,-3.7771,-3.9001,-3.99,-3.99,-4.1148,-4.2084,-4.2286,-4.2855,-4.3296,-4.3479,-4.3314,-4.3296,-4.3479,-4.3314,-4.3296,-4.3479,-4.3497,-4.3497,-4.3497,-4.3497,-4.3497,-4.3497,-4.3497,-4.3497,-4.3497,-4.3497,-4.3497,-4.3497,-4.3497,-4.3497,-4.3497,-4.3497,-4.3497,-4.3497,-4.3497,-4.3497,-4.3497,-4.3497,-4.3497,-4.3497,-4.3497,-4.3497,-4.3513,-4.3597,-4.3804,-4.4028,-4.4204,-4.4663,-4.5118,-4.5201,-4.5222,-4.5222,-4.5222,-4.5419,-4.5586,-4.5586,-4.5586,-4.5586,-4.5586,-4.5586,-4.5586,-4.5586,-4.5586,-4.5586,-4.5586,-4.5586,-4.5586,-4.5586,-4.5586,-4.5586,-4.5586,-4.5586,-4.5586,-4.5586,-4.5297,-4.5105,-4.5105,-4.5034,-4.4777,-4.4285,-4.3856,-4.3631,-4.3631,-4.3548,-4.3497,-4.3497,-4.3497,-4.3497,-4.3497,-4.3497,-4.3497,-4.3497,-4.3497,-4.3497,-1.597,-1.6665,-1.727,-1.9376,-2.1092,-2.2581,-2.3964,-2.4269,-2.4659,-2.6015,-2.6403,-2.6856,-2.7964,-3.1395,-3.4516,-3.5897,-3.7514,-3.8615,-3.8615,-3.935,-3.99,-3.99,-4.0671,-4.1497,-4.2231,-4.2359,-4.269,-4.3424,-4.28,-4.2708,-4.3442,-4.2782,-4.2727,-4.3461,-4.3497,-4.3497,-4.3497,-4.3497,-4.3497,-4.3497,-4.3497,-4.3497,-4.3497,-4.3497,-4.3497,-4.3497,-4.3497,-4.3497,-4.3497,-4.3497,-4.3497,-4.3497,-4.3497,-4.3497,-4.3497,-4.3497,-4.3497,-4.3497,-4.3497,-4.3497,-4.3548,-4.3849,-4.3986,-4.4117,-4.4806,-4.5052,-4.5161,-4.5476,-4.5568,-4.5568,-4.5568,-4.5586,-4.5586,-4.5586,-4.5586,-4.5586,-4.5586,-4.5586,-4.5586,-4.5586,-4.5586,-4.5586,-4.5586,-4.5586,-4.5586,-4.5586,-4.5586,-4.5586,-4.5586,-4.5586,-4.5586,-4.5586,-4.5297,-4.5105,-4.5105,-4.48,-4.476,-4.4992,-4.4354,-4.3955,-4.3955,-4.3679,-4.3497,-4.3497,-4.3497,-4.3497,-4.3497,-4.3497,-4.3497,-4.3497,-4.3497,-4.3497,-1.4986,-1.6339,-1.7693,-1.8995,-2.0822,-2.2581,-2.3579,-2.4526,-2.5688,-2.7463,-2.8377,-2.933,-3.0787,-3.27,-3.4566,-3.6054,-3.7221,-3.812,-3.8634,-3.8964,-3.9148,-3.9148,-3.9863,-4.0469,-4.0781,-4.1258,-4.168,-4.1992,-4.1735,-4.1699,-4.1992,-4.1735,-4.1699,-4.2011,-4.2488,-4.2745,-4.2745,-4.324,-4.3497,-4.3497,-4.3497,-4.3497,-4.3497,-4.3497,-4.3497,-4.3497,-4.3497,-4.3497,-4.3497,-4.3497,-4.3497,-4.3497,-4.3497,-4.3497,-4.3497,-4.3497,-4.3497,-4.3497,-4.3497,-4.3646,-4.3818,-4.3955,-4.4299,-4.4738,-4.503,-4.5243,-4.5438,-4.5568,-4.5586,-4.5586,-4.5586,-4.5586,-4.5586,-4.5586,-4.5586,-4.5586,-4.5586,-4.5586,-4.5586,-4.5586,-4.5586,-4.5586,-4.5586,-4.5586,-4.5586,-4.5586,-4.5586,-4.5586,-4.5586,-4.5586,-4.5586,-4.5586,-4.549,-4.5413,-4.5413,-4.5285,-4.5285,-4.54,-4.4762,-4.4261,-4.4016,-4.3881,-4.3726,-4.3479,-4.3497,-4.3497,-4.3497,-4.3497,-4.3497,-4.3497,-4.3497,-4.3497,-1.4986,-1.6644,-1.8318,-1.9063,-2.0875,-2.275,-2.3846,-2.5176,-2.6762,-2.8937,-3.0331,-3.147,-3.2584,-3.3781,-3.4963,-3.6101,-3.7184,-3.8065,-3.8615,-3.8707,-3.8707,-3.8707,-3.9184,-3.9625,-3.9863,-4.0396,-4.0836,-4.1093,-4.0873,-4.0836,-4.1093,-4.0873,-4.0855,-4.1111,-4.1644,-4.1919,-4.1919,-4.2708,-4.3112,-4.3112,-4.3369,-4.3497,-4.3497,-4.3497,-4.3497,-4.3497,-4.3497,-4.3497,-4.3497,-4.3497,-4.3497,-4.3497,-4.3497,-4.3497,-4.3497,-4.3497,-4.3497,-4.3513,-4.3612,-4.3804,-4.4028,-4.4271,-4.4688,-4.5118,-4.5222,-4.5419,-4.5586,-4.5586,-4.5586,-4.5586,-4.5586,-4.5586,-4.5586,-4.5586,-4.5586,-4.5586,-4.5586,-4.5586,-4.5586,-4.5586,-4.5586,-4.5586,-4.5586,-4.5586,-4.5586,-4.5586,-4.5586,-4.5586,-4.5586,-4.5586,-4.5586,-4.5586,-4.5586,-4.5586,-4.5586,-4.5586,-4.5586,-4.5586,-4.5161,-4.4707,-4.4204,-4.4076,-4.3849,-4.3532,-4.3497,-4.3497,-4.3497,-4.3497,-4.3497,-4.3497,-4.3497,-4.3497,-1.6479,-1.7783,-1.908,-1.9816,-2.1404,-2.3309,-2.5178,-2.6536,-2.8163,-3.0776,-3.2335,-3.3214,-3.3232,-3.49,-3.6285,-3.6303,-3.7661,-3.8689,-3.8707,-3.8707,-3.8707,-3.8707,-3.8707,-3.9019,-3.9808,-3.9882,-4.0212,-4.1038,-4.0341,-4.023,-4.1038,-4.0322,-4.0249,-4.1056,-4.1093,-4.1111,-4.1111,-4.1901,-4.2286,-4.2304,-4.3094,-4.3479,-4.3497,-4.3479,-4.3479,-4.3479,-4.3461,-4.3461,-4.3461,-4.3461,-4.3461,-4.3479,-4.3479,-4.3479,-4.3497,-4.3497,-4.3497,-4.3548,-4.3881,-4.3998,-4.4117,-4.4853,-4.5096,-4.518,-4.5495,-4.5586,-4.5586,-4.5586,-4.5586,-4.5586,-4.5586,-4.5586,-4.5586,-4.5586,-4.5586,-4.5586,-4.5586,-4.5586,-4.5586,-4.5586,-4.5586,-4.5586,-4.5586,-4.5586,-4.5586,-4.5586,-4.5586,-4.5586,-4.5586,-4.5586,-4.5586,-4.5586,-4.5586,-4.5586,-4.5586,-4.5586,-4.5586,-4.5586,-4.5586,-4.5302,-4.4631,-4.4204,-4.3868,-4.3532,-4.3497,-4.3497,-4.3497,-4.3497,-4.3497,-4.3497,-4.3497,-4.3497,-1.5375,-1.6982,-1.908,-1.9816,-2.2004,-2.4509,-2.6361,-2.7731,-2.9349,-3.2079,-3.3151,-3.3789,-3.4355,-3.4971,-3.5771,-3.6945,-3.7533,-3.8046,-3.8615,-3.8707,-3.8707,-3.8707,-3.8707,-3.8799,-3.9038,-3.9056,-3.9148,-3.9405,-3.9184,-3.9166,-3.9405,-3.9184,-3.9166,-3.9405,-3.9955,-4.0267,-4.0267,-4.1056,-4.1754,-4.2304,-4.1974,-4.2396,-4.3461,-4.291,-4.2653,-4.2616,-4.2066,-4.1809,-4.1809,-4.1809,-4.2158,-4.2653,-4.2653,-4.3002,-4.3497,-4.3497,-4.3497,-4.3548,-4.3881,-4.4175,-4.4501,-4.4943,-4.5263,-4.5476,-4.5568,-4.5586,-4.5586,-4.5586,-4.5586,-4.5586,-4.5586,-4.5586,-4.5586,-4.5586,-4.5586,-4.5586,-4.5586,-4.5586,-4.5586,-4.5586,-4.5586,-4.5586,-4.5586,-4.5586,-4.5586,-4.5586,-4.5586,-4.5586,-4.5586,-4.5586,-4.5586,-4.5586,-4.5586,-4.5586,-4.5586,-4.5586,-4.5586,-4.5586,-4.5381,-4.5033,-4.4606,-4.4501,-4.4136,-4.3513,-4.3497,-4.3497,-4.3497,-4.3497,-4.3497,-4.3497,-4.3497,-4.3497,-1.6695,-1.8437,-2.0433,-2.1177,-2.3062,-2.5441,-2.8117,-2.9538,-3.0854,-3.2998,-3.3634,-3.3954,-3.4431,-3.5073,-3.5862,-3.6853,-3.7551,-3.8138,-3.8634,-3.8707,-3.8707,-3.8707,-3.8707,-3.8707,-3.8707,-3.8707,-3.8707,-3.8707,-3.8707,-3.8707,-3.8707,-3.8707,-3.8707,-3.8707,-3.9166,-3.9423,-3.9423,-4.023,-4.0873,-4.1332,-4.1185,-4.1625,-4.2525,-4.2047,-4.1827,-4.1809,-4.1313,-4.1111,-4.1111,-4.1111,-4.1405,-4.1827,-4.1827,-4.2121,-4.2613,-4.3037,-4.3213,-4.3347,-4.413,-4.4587,-4.4849,-4.5201,-4.5438,-4.5586,-4.5586,-4.5586,-4.5586,-4.5586,-4.5586,-4.5586,-4.5586,-4.5586,-4.5586,-4.5586,-4.5586,-4.5586,-4.5586,-4.5586,-4.5586,-4.5586,-4.5586,-4.5586,-4.5586,-4.5586,-4.5586,-4.5586,-4.5586,-4.5586,-4.5586,-4.5586,-4.5586,-4.5586,-4.5586,-4.5586,-4.5586,-4.5586,-4.5586,-4.5586,-4.5419,-4.5096,-4.4606,-4.4447,-4.4076,-4.3513,-4.3497,-4.3497,-4.3497,-4.3497,-4.3497,-4.3497,-4.3497,-4.3497,-1.9174,-2.0964,-2.2496,-2.3224,-2.4447,-2.6428,-3.0112,-3.1502,-3.2376,-3.3561,-3.3807,-3.3825,-3.3899,-3.5147,-3.6211,-3.6285,-3.7533,-3.8505,-3.8579,-3.8597,-3.8615,-3.8689,-3.8707,-3.8707,-3.8707,-3.8707,-3.8707,-3.8707,-3.8707,-3.8707,-3.8707,-3.8707,-3.8707,-3.8707,-3.8707,-3.8707,-3.8707,-3.9423,-3.9827,-3.99,-4.0579,-4.0928,-4.1001,-4.1001,-4.0965,-4.0891,-4.0891,-4.0891,-4.0891,-4.0891,-4.0928,-4.1001,-4.1001,-4.1056,-4.1217,-4.2314,-4.2704,-4.2913,-4.4455,-4.4982,-4.5044,-4.5475,-4.5586,-4.5586,-4.5586,-4.5586,-4.5586,-4.5586,-4.5586,-4.5586,-4.5586,-4.5586,-4.5586,-4.5586,-4.5586,-4.5586,-4.5586,-4.5586,-4.5586,-4.5586,-4.5586,-4.5586,-4.5586,-4.5586,-4.5586,-4.5586,-4.5586,-4.5586,-4.5586,-4.5586,-4.5586,-4.5586,-4.5586,-4.5586,-4.5586,-4.5586,-4.5586,-4.5586,-4.5531,-4.5243,-4.465,-4.4233,-4.3881,-4.3532,-4.3497,-4.3497,-4.3497,-4.3497,-4.3497,-4.3497,-4.3497,-4.3497,-1.7591,-1.9807,-2.2496,-2.3224,-2.5807,-2.8699,-3.0818,-3.1862,-3.2675,-3.3616,-3.3807,-3.399,-3.4633,-3.5027,-3.5514,-3.6193,-3.6597,-3.7037,-3.7661,-3.7753,-3.7991,-3.8615,-3.8707,-3.8707,-3.8707,-3.8707,-3.8707,-3.8707,-3.8707,-3.8707,-3.8707,-3.8707,-3.8707,-3.8707,-3.8707,-3.8707,-3.8707,-3.8872,-3.9276,-3.9882,-3.9441,-3.9551,-4.0157,-4.0157,-3.9808,-3.9221,-3.9221,-3.9221,-3.9221,-3.9221,-3.9588,-4.0157,-4.0157,-4.0543,-4.1162,-4.169,-4.1874,-4.2053,-4.3559,-4.4064,-4.4262,-4.5264,-4.5586,-4.5586,-4.5586,-4.5586,-4.5586,-4.5586,-4.5586,-4.5586,-4.5586,-4.5586,-4.5586,-4.5586,-4.5586,-4.5586,-4.5586,-4.5586,-4.5586,-4.5586,-4.5586,-4.5586,-4.5586,-4.5586,-4.5586,-4.5586,-4.5586,-4.5586,-4.5586,-4.5586,-4.5586,-4.5586,-4.5586,-4.5586,-4.5586,-4.5586,-4.5586,-4.5586,-4.5118,-4.4757,-4.4624,-4.4527,-4.4165,-4.3513,-4.3497,-4.3497,-4.3497,-4.3497,-4.3497,-4.3497,-4.3497,-4.3497,-1.8115,-1.9993,-2.2107,-2.3562,-2.6184,-2.8714,-2.9784,-3.0878,-3.1901,-3.2799,-3.3424,-3.3935,-3.4357,-3.4734,-3.5137,-3.5605,-3.6028,-3.645,-3.6853,-3.6927,-3.7074,-3.7496,-3.7881,-3.812,-3.812,-3.8469,-3.8707,-3.8707,-3.8707,-3.8707,-3.8707,-3.8707,-3.8707,-3.8707,-3.8707,-3.8707,-3.8707,-3.8707,-3.8909,-3.9313,-3.8909,-3.8927,-3.9331,-3.9331,-3.9093,-3.8707,-3.8707,-3.8707,-3.8707,-3.8707,-3.8946,-3.9331,-3.9331,-3.9657,-4.0237,-4.1006,-4.1355,-4.1666,-4.3002,-4.3465,-4.3618,-4.4647,-4.497,-4.5047,-4.547,-4.5586,-4.5586,-4.5586,-4.5586,-4.5586,-4.5586,-4.5586,-4.5586,-4.5586,-4.5586,-4.5586,-4.5586,-4.5586,-4.5586,-4.5586,-4.5586,-4.5586,-4.5586,-4.5586,-4.5586,-4.5586,-4.5586,-4.5586,-4.5586,-4.5586,-4.5586,-4.5586,-4.5586,-4.5528,-4.5374,-4.5509,-4.5475,-4.5149,-4.4931,-4.4682,-4.4337,-4.4318,-4.4065,-4.3513,-4.3497,-4.3497,-4.3497,-4.3497,-4.3497,-4.3497,-4.3497,-4.3497,-1.8532,-2.0196,-2.1779,-2.4117,-2.6167,-2.7794,-2.8347,-2.9537,-3.0781,-3.1781,-3.2892,-3.3707,-3.3807,-3.4357,-3.477,-3.477,-3.5404,-3.5917,-3.6064,-3.6083,-3.6138,-3.6266,-3.689,-3.7276,-3.7276,-3.801,-3.8487,-3.8487,-3.8615,-3.8707,-3.8707,-3.8707,-3.8707,-3.8707,-3.8707,-3.8707,-3.8707,-3.8707,-3.8707,-3.8707,-3.8707,-3.8707,-3.8707,-3.8707,-3.8707,-3.8707,-3.8707,-3.8707,-3.8707,-3.8707,-3.8707,-3.8707,-3.8707,-3.8855,-3.9227,-4.0277,-4.0865,-4.1246,-4.246,-4.2874,-4.3008,-4.3835,-4.4085,-4.4239,-4.5105,-4.5374,-4.5413,-4.5547,-4.5586,-4.5586,-4.5586,-4.5586,-4.5586,-4.5586,-4.5586,-4.5586,-4.5586,-4.5586,-4.5586,-4.5586,-4.5586,-4.5586,-4.5586,-4.5586,-4.5586,-4.5586,-4.5586,-4.5586,-4.5586,-4.5586,-4.5586,-4.5586,-4.5586,-4.5451,-4.5143,-4.5343,-4.5256,-4.4649,-4.4805,-4.4644,-4.4046,-4.3955,-4.3772,-4.3532,-4.3497,-4.3497,-4.3497,-4.3497,-4.3497,-4.3497,-4.3497,-4.3497,-1.5917,-1.8623,-2.1898,-2.4746,-2.6167,-2.7131,-2.8259,-2.9171,-3.0086,-3.1239,-3.2457,-3.339,-3.3734,-3.3899,-3.3972,-3.3972,-3.4064,-3.4376,-3.5092,-3.5155,-3.5459,-3.6211,-3.6376,-3.645,-3.645,-3.7184,-3.7643,-3.7643,-3.8303,-3.8707,-3.8707,-3.8707,-3.8707,-3.8707,-3.8707,-3.8707,-3.8707,-3.8707,-3.8707,-3.8707,-3.8707,-3.8707,-3.8707,-3.8707,-3.8707,-3.8707,-3.8707,-3.8707,-3.8707,-3.8707,-3.8707,-3.8707,-3.8707,-3.8855,-3.9152,-3.9594,-3.9989,-4.0425,-4.1579,-4.197,-4.2124,-4.2989,-4.3258,-4.3412,-4.422,-4.447,-4.4624,-4.5374,-4.5586,-4.5586,-4.5586,-4.5586,-4.5586,-4.5586,-4.5586,-4.5586,-4.5586,-4.5586,-4.5586,-4.5586,-4.5586,-4.5586,-4.5586,-4.5586,-4.5586,-4.5586,-4.5586,-4.5586,-4.5586,-4.5586,-4.5586,-4.5586,-4.5586,-4.5451,-4.5143,-4.5119,-4.5002,-4.4624,-4.4315,-4.4121,-4.3998,-4.3726,-4.3548,-4.3497,-4.3497,-4.3497,-4.3497,-4.3497,-4.3497,-4.3497,-4.3497,-4.3497,-1.6796,-1.9266,-2.1729,-2.3833,-2.5236,-2.6232,-2.6734,-2.7791,-2.8801,-2.961,-3.055,-3.1662,-3.3198,-3.3447,-3.355,-3.3762,-3.3807,-3.3917,-3.4284,-3.4339,-3.4468,-3.4853,-3.5312,-3.5587,-3.5587,-3.6321,-3.6817,-3.6817,-3.7147,-3.7367,-3.7367,-3.7367,-3.7367,-3.7367,-3.779,-3.8028,-3.8028,-3.8469,-3.8707,-3.8707,-3.8707,-3.8707,-3.8707,-3.8707,-3.8707,-3.8707,-3.8707,-3.8707,-3.8707,-3.8707,-3.8707,-3.8707,-3.8707,-3.898,-3.9389,-3.9552,-3.9903,-4.0396,-4.0899,-4.1066,-4.1219,-4.2085,-4.2374,-4.2527,-4.3374,-4.3624,-4.3797,-4.4643,-4.4874,-4.497,-4.547,-4.5586,-4.5586,-4.5586,-4.5586,-4.5586,-4.5586,-4.5586,-4.5586,-4.5586,-4.5586,-4.5586,-4.5586,-4.5586,-4.5586,-4.5586,-4.5586,-4.5586,-4.5586,-4.5432,-4.5316,-4.5316,-4.5163,-4.4895,-4.453,-4.4684,-4.4561,-4.4017,-4.3975,-4.3916,-4.3726,-4.3563,-4.3497,-4.3497,-4.3497,-4.3497,-4.3497,-4.3497,-4.3497,-4.3497,-4.3497,-4.3497,-1.6931,-1.8894,-2.0509,-2.2361,-2.3816,-2.4915,-2.5473,-2.6454,-2.7454,-2.8182,-2.8765,-2.9777,-3.1889,-3.2643,-3.3042,-3.3441,-3.3678,-3.3807,-3.3807,-3.3807,-3.3807,-3.3807,-3.4339,-3.4706,-3.4706,-3.5477,-3.5973,-3.5973,-3.6174,-3.6303,-3.6303,-3.6303,-3.6303,-3.6303,-3.6872,-3.7184,-3.7184,-3.7991,-3.8505,-3.8707,-3.8707,-3.8707,-3.8707,-3.8707,-3.8707,-3.8707,-3.8707,-3.8707,-3.8707,-3.8707,-3.8707,-3.8707,-3.8792,-3.9127,-3.9622,-3.9709,-4.0062,-4.0489,-4.0489,-4.0489,-4.0604,-4.1258,-4.147,-4.1623,-4.2508,-4.2777,-4.2931,-4.3758,-4.4143,-4.4451,-4.5086,-4.5432,-4.5586,-4.5586,-4.5586,-4.5586,-4.5586,-4.5586,-4.5586,-4.5586,-4.5586,-4.5586,-4.5586,-4.5586,-4.5586,-4.5586,-4.5586,-4.5586,-4.5586,-4.5316,-4.5111,-4.5101,-4.481,-4.4446,-4.4043,-4.4285,-4.4189,-4.3516,-4.3712,-4.3757,-4.3513,-4.3497,-4.3497,-4.3497,-4.3497,-4.3497,-4.3497,-4.3497,-4.3497,-4.3497,-4.3497,-4.3497,-1.431,-1.5798,-1.7647,-2.0594,-2.1904,-2.3038,-2.5135,-2.5676,-2.6116,-2.752,-2.7876,-2.827,-2.9554,-3.108,-3.2272,-3.2617,-3.3311,-3.3807,-3.3807,-3.3807,-3.3807,-3.3807,-3.3844,-3.3862,-3.3862,-3.4596,-3.5064,-3.5064,-3.5844,-3.6303,-3.6303,-3.6303,-3.6303,-3.6303,-3.634,-3.6358,-3.6358,-3.7147,-3.7936,-3.8707,-3.8707,-3.8707,-3.8707,-3.8707,-3.8707,-3.8707,-3.8707,-3.8707,-3.8707,-3.8707,-3.8707,-3.8719,-3.8971,-3.9289,-3.9645,-3.9962,-4.025,-4.0489,-4.0489,-4.0489,-4.0508,-4.0546,-4.0566,-4.0719,-4.1604,-4.1873,-4.2047,-4.2912,-4.3701,-4.4316,-4.4355,-4.497,-4.5586,-4.5586,-4.5586,-4.5586,-4.5586,-4.5586,-4.5586,-4.5586,-4.5586,-4.5586,-4.5586,-4.5586,-4.5586,-4.5586,-4.5586,-4.5586,-4.5586,-4.5316,-4.5099,-4.5092,-4.4783,-4.4435,-4.4033,-4.4039,-4.3897,-4.3516,-4.3513,-4.3513,-4.3497,-4.3497,-4.3497,-4.3497,-4.3497,-4.3497,-4.3497,-4.3497,-4.3497,-4.3497,-4.3497,-4.3497,-1.3954,-1.524,-1.6576,-1.9096,-2.0653,-2.1921,-2.3207,-2.4205,-2.5169,-2.6184,-2.6404,-2.674,-2.7915,-2.9634,-3.1004,-3.1438,-3.1934,-3.243,-3.2963,-3.3036,-3.322,-3.3733,-3.3807,-3.3807,-3.3807,-3.4064,-3.4229,-3.4229,-3.4523,-3.4688,-3.4688,-3.4688,-3.4688,-3.4688,-3.5202,-3.5734,-3.6285,-3.6578,-3.7129,-3.7918,-3.7918,-3.8193,-3.8707,-3.8707,-3.8707,-3.8707,-3.8707,-3.8707,-3.8707,-3.8707,-3.8803,-3.8961,-3.9044,-3.9457,-3.9922,-4.0061,-4.0267,-4.0489,-4.0489,-4.0489,-4.0489,-4.0489,-4.0489,-4.0546,-4.0873,-4.0969,-4.1143,-4.2027,-4.247,-4.2951,-4.4028,-4.4528,-4.4913,-4.547,-4.5586,-4.5586,-4.5586,-4.5586,-4.5586,-4.5586,-4.5586,-4.5586,-4.5586,-4.5586,-4.5586,-4.5586,-4.5586,-4.5509,-4.5316,-4.4991,-4.4674,-4.4428,-4.4081,-4.3826,-4.3697,-4.3679,-4.3642,-4.3497,-4.3497,-4.3497,-4.3497,-4.3497,-4.3497,-4.3497,-4.3497,-4.3497,-4.3497,-4.3497,-4.3497,-4.3497,-4.3497,-4.3497,-1.2957,-1.4276,-1.5764,-1.798,-1.9299,-2.0517,-2.2276,-2.3241,-2.4036,-2.5033,-2.5236,-2.5535,-2.6536,-2.7892,-2.9177,-3.0137,-3.0821,-3.1415,-3.1963,-3.2133,-3.2394,-3.2926,-3.3238,-3.3403,-3.3403,-3.3642,-3.3807,-3.3807,-3.3807,-3.3807,-3.3807,-3.3807,-3.3807,-3.3807,-3.4321,-3.5018,-3.5862,-3.5862,-3.6285,-3.7092,-3.7092,-3.7367,-3.79,-3.79,-3.79,-3.7918,-3.8175,-3.845,-3.8707,-3.8803,-3.8933,-3.9107,-3.9339,-3.9709,-4.0101,-4.0195,-4.0356,-4.0489,-4.0489,-4.0489,-4.0489,-4.0489,-4.0489,-4.0489,-4.0489,-4.0489,-4.0623,-4.12,-4.1566,-4.2066,-4.3162,-4.3874,-4.4451,-4.5028,-4.5374,-4.5586,-4.5586,-4.5586,-4.5586,-4.5586,-4.5586,-4.5586,-4.5586,-4.5586,-4.5547,-4.5451,-4.5432,-4.5316,-4.4972,-4.4628,-4.429,-4.4018,-4.3697,-4.3497,-4.3497,-4.3497,-4.3497,-4.3497,-4.3497,-4.3497,-4.3497,-4.3497,-4.3497,-4.3497,-4.3497,-4.3497,-4.3497,-4.3497,-4.3497,-4.3497,-4.3497,-4.341,0.0,0.0,0.0,-1.7185,-1.7726,-1.8707,-2.2395,-2.2699,-2.2632,-2.412,-2.4455,-2.4661,-2.5439,-2.5887,-2.6777,-2.8665,-2.9983,-3.083,-3.0848,-3.1144,-3.1366,-3.1384,-3.2082,-3.2577,-3.2577,-3.3275,-3.3733,-3.3752,-3.3752,-3.377,-3.3807,-3.3807,-3.3807,-3.3807,-3.3807,-3.4174,-3.4954,-3.4954,-3.5404,-3.6266,-3.6266,-3.6266,-3.6303,-3.6303,-3.6303,-3.634,-3.714,-3.793,-3.8646,-3.898,-3.9125,-3.9186,-3.9859,-4.0101,-4.0139,-4.0406,-4.0489,-4.0489,-4.0489,-4.0489,-4.0489,-4.0489,-4.0489,-4.0489,-4.0489,-4.0489,-4.0489,-4.0489,-4.1104,-4.1777,-4.1797,-4.3028,-4.4259,-4.4259,-4.4932,-4.5547,-4.5547,-4.5566,-4.5586,-4.5586,-4.5586,-4.5586,-4.5586,-4.5586,-4.5472,-4.5145,-4.5089,-4.4956,-4.463,-4.4233,-4.4007,-4.3989,-4.3697,-4.3497,-4.3497,-4.3497,-4.3497,-4.3497,-4.3497,-4.3497,-4.3497,-4.3497,-4.3497,-4.3497,-4.3497,-4.3497,-4.3497,-4.3497,-4.3497,-4.3497,-4.3479,-4.3214,-1.2111,0.0,0.0,0.0,0.0,0.0,-1.8877,-1.9604,-2.0416,-2.2479,-2.2919,-2.3291,-2.456,-2.4904,-2.5162,-2.5708,-2.742,-2.893,-2.953,-2.9881,-3.0313,-3.0975,-3.1459,-3.1733,-3.1733,-3.1935,-3.2302,-3.2889,-3.2944,-3.3201,-3.377,-3.3807,-3.3807,-3.3807,-3.3807,-3.3917,-3.4137,-3.4137,-3.4559,-3.5367,-3.5367,-3.5697,-3.6303,-3.6303,-3.6303,-3.6332,-3.6749,-3.7034,-3.7357,-3.8579,-3.9408,-3.984,-4.0022,-4.0213,-4.0389,-4.0473,-4.0489,-4.0489,-4.0489,-4.0489,-4.0489,-4.0489,-4.0489,-4.0489,-4.0489,-4.0489,-4.0489,-4.0489,-4.0662,-4.0989,-4.1643,-4.2604,-4.3431,-4.3431,-4.4066,-4.4662,-4.4662,-4.5143,-4.5586,-4.5586,-4.5586,-4.5586,-4.5586,-4.5413,-4.5209,-4.5096,-4.4881,-4.4603,-4.4218,-4.4054,-4.3915,-4.366,-4.3569,-4.3497,-4.3497,-4.3497,-4.3497,-4.3497,-4.3497,-4.3497,-4.3497,-4.3497,-4.3497,-4.3497,-4.3497,-4.3497,-4.3497,-4.3497,-4.3497,-4.3479,-4.3105,-4.2864,-1.3041,-1.3836,-1.5122,-1.5711,0.0,0.0,-1.8228,-1.8572,-1.9096,-2.1363,-2.1837,-2.2293,-2.3765,-2.4036,-2.415,-2.4455,-2.5601,-2.6819,-2.7766,-2.8454,-2.9125,-2.9773,-3.0329,-3.0702,-3.0889,-3.1201,-3.1586,-3.2063,-3.21,-3.2449,-3.3256,-3.3311,-3.3458,-3.3788,-3.3807,-3.3807,-3.3807,-3.3807,-3.4045,-3.4504,-3.4504,-3.478,-3.5257,-3.5257,-3.5322,-3.5438,-3.598,-3.6315,-3.6644,-3.7905,-3.888,-3.9567,-3.9716,-4.0068,-4.0489,-4.0372,-4.0406,-4.0489,-4.0372,-4.0425,-4.0489,-4.0489,-4.0489,-4.0489,-4.0489,-4.0489,-4.0489,-4.0489,-4.0489,-4.0623,-4.1123,-4.1893,-4.2566,-4.2566,-4.3451,-4.4297,-4.4297,-4.497,-4.5586,-4.5586,-4.5496,-4.5375,-4.5399,-4.5114,-4.4817,-4.4655,-4.4488,-4.4226,-4.3826,-4.3789,-4.3716,-4.3516,-4.3497,-4.3497,-4.3497,-4.3497,-4.3497,-4.3497,-4.3497,-4.3497,-4.3497,-4.3497,-4.3497,-4.3497,-4.3497,-4.341,-4.3178,-4.341,-4.3375,-4.3124,-4.2598,-4.2203,-1.4277,-1.4902,-1.6238,-1.7388,-1.6745,0.0,-1.8937,-1.8616,-1.8369,-2.0399,-2.0899,-2.1363,-2.2767,-2.3105,-2.3325,-2.39,-2.4218,-2.4764,-2.5863,-2.6924,-2.7715,-2.7994,-2.8783,-2.9445,-2.9844,-3.0601,-3.1121,-3.1256,-3.1347,-3.1715,-3.243,-3.2485,-3.2852,-3.3642,-3.3678,-3.3715,-3.3807,-3.3807,-3.3807,-3.3807,-3.3807,-3.3807,-3.3807,-3.3807,-3.3935,-3.4237,-3.5019,-3.5644,-3.6211,-3.6936,-3.7812,-3.8727,-3.901,-3.9592,-4.0271,-4.0005,-4.0137,-4.0406,-4.0177,-4.0286,-4.0489,-4.0489,-4.0489,-4.0489,-4.0489,-4.0489,-4.0489,-4.0489,-4.0489,-4.0489,-4.0489,-4.1066,-4.1662,-4.1662,-4.2838,-4.3993,-4.409,-4.4764,-4.536,-4.5475,-4.5262,-4.5092,-4.5114,-4.4789,-4.4402,-4.4048,-4.3986,-4.3826,-4.3516,-4.3497,-4.3497,-4.3497,-4.3497,-4.3497,-4.3497,-4.3497,-4.3497,-4.3497,-4.3497,-4.3497,-4.3497,-4.3497,-4.3497,-4.3497,-4.3444,-4.3178,-4.2711,-4.3178,-4.3124,-4.2577,-4.1979,-4.1402,-1.7185,-1.7574,-1.8031,-1.7156,-1.7134,0.0,-1.661,-1.7151,-1.7929,-1.8369,-1.8944,-1.9621,-2.0491,-2.1194,-2.1448,-2.0974,-2.2429,-2.3896,-2.4717,-2.5293,-2.5666,-2.575,-2.6684,-2.7486,-2.7822,-2.8547,-2.9384,-3.0351,-3.1017,-3.1458,-3.1623,-3.1623,-3.2008,-3.2816,-3.2834,-3.3146,-3.3788,-3.3807,-3.3807,-3.3807,-3.3807,-3.3807,-3.3807,-3.3807,-3.3935,-3.4218,-3.4386,-3.4779,-3.5353,-3.5505,-3.658,-3.8143,-3.7991,-3.8419,-3.9108,-3.8814,-3.9352,-4.0177,-4.012,-4.0286,-4.0489,-4.0489,-4.0489,-4.0489,-4.0489,-4.0489,-4.0489,-4.0489,-4.0489,-4.0489,-4.0489,-4.0623,-4.0739,-4.0739,-4.1336,-4.2049,-4.2717,-4.3333,-4.3971,-4.4649,-4.4957,-4.5106,-4.5113,-4.4535,-4.4095,-4.4017,-4.3753,-4.3587,-4.3497,-4.3497,-4.3497,-4.3497,-4.3497,-4.3497,-4.3497,-4.3497,-4.3497,-4.3497,-4.3497,-4.3497,-4.3497,-4.3497,-4.3497,-4.3497,-4.3069,-4.2808,-4.2711,-4.2826,-4.2559,-4.1937,-4.1358,-4.0995,-1.8217,-1.8623,-1.9283,-1.8538,-1.8082,0.0,0.0,-1.7253,-1.7557,-1.8667,-1.8623,-1.8809,-2.0331,-2.0602,-2.0602,-2.0602,-2.187,-2.2852,-2.2835,-2.3972,-2.4878,-2.509,-2.5589,-2.6091,-2.6419,-2.7288,-2.836,-2.9507,-2.9989,-3.0375,-3.0779,-3.0797,-3.1164,-3.1971,-3.2394,-3.2797,-3.3201,-3.3605,-3.3807,-3.3807,-3.3807,-3.3807,-3.3807,-3.3807,-3.3935,-3.42,-3.42,-3.4467,-3.4908,-3.4908,-3.5456,-3.64,-3.68,-3.7376,-3.7981,-3.7661,-3.8385,-3.9471,-3.9314,-3.9794,-4.0489,-4.0489,-4.0489,-4.0489,-4.0489,-4.0489,-4.0489,-4.0489,-4.0489,-4.0489,-4.0489,-4.0389,-4.0304,-4.0304,-4.0711,-4.1323,-4.2136,-4.2834,-4.3567,-4.4436,-4.4561,-4.4561,-4.4561,-4.4106,-4.3758,-4.3758,-4.3597,-4.3497,-4.3497,-4.3497,-4.3497,-4.3497,-4.3497,-4.3497,-4.3497,-4.3497,-4.3497,-4.3497,-4.3497,-4.3497,-4.3497,-4.3497,-4.3375,-4.3105,-4.2541,-4.2121,-4.181,-4.181,-4.1664,-4.1358,-4.075,-4.0497,-1.9181,-1.9529,-2.0373,-2.0069,-1.9208,-1.8454,0.0,0.0,0.0,-1.9039,-1.8515,-1.8369,-2.0196,-2.0128,-1.9925,-2.0289,-2.1312,-2.1735,-2.0686,-2.231,-2.3811,-2.4275,-2.4579,-2.492,-2.5243,-2.6236,-2.7266,-2.8351,-2.8494,-2.8906,-2.9696,-2.9879,-3.0338,-3.1127,-3.1806,-3.2302,-3.2614,-3.3238,-3.3642,-3.3807,-3.3807,-3.3807,-3.3807,-3.3807,-3.3935,-3.42,-3.4147,-3.4334,-3.4694,-3.4632,-3.4593,-3.4689,-3.5571,-3.629,-3.6836,-3.6485,-3.7299,-3.8537,-3.8445,-3.9223,-4.0277,-4.045,-4.0489,-4.0473,-4.0353,-4.0406,-4.0489,-4.0441,-4.0406,-4.0406,-4.0406,-4.0194,-4.0002,-4.0002,-4.0306,-4.0753,-4.1575,-4.2333,-4.3133,-4.3998,-4.4024,-4.3924,-4.3986,-4.3726,-4.3497,-4.3497,-4.3497,-4.3497,-4.3497,-4.3497,-4.3497,-4.3497,-4.3497,-4.3497,-4.3497,-4.3497,-4.3497,-4.3497,-4.3393,-4.3393,-4.3497,-4.341,-4.3087,-4.2519,-4.1937,-4.1402,-4.0903,-4.078,-4.075,-4.075,-4.0286,-4.007,-2.187,-2.1921,-2.1691,-2.0339,-2.0416,-2.0154,-1.7545,0.0,-1.8335,-1.7291,0.0,-1.7896,-1.8149,0.0,0.0,-1.741,-1.9544,-2.0585,-1.8488,-1.9529,-2.0788,-2.1545,-2.2802,-2.3756,-2.4137,-2.4795,-2.5525,-2.6367,-2.6702,-2.7218,-2.8026,-2.876,-2.9512,-3.032,-3.043,-3.1164,-3.2596,-3.2706,-3.3091,-3.3807,-3.3807,-3.3807,-3.3807,-3.3807,-3.3935,-3.4195,-3.3935,-3.4184,-3.4674,-3.4379,-3.4265,-3.4265,-3.4386,-3.4965,-3.5658,-3.5319,-3.61,-3.7419,-3.8131,-3.8842,-3.9546,-4.0258,-4.0489,-4.0406,-3.9863,-4.0063,-4.0457,-4.0213,-4.0139,-4.0139,-4.0139,-3.9901,-3.9645,-3.9645,-3.9464,-3.9533,-4.0346,-4.0933,-4.1572,-4.2415,-4.3085,-4.3646,-4.3955,-4.3726,-4.3497,-4.3497,-4.3497,-4.3497,-4.3497,-4.3497,-4.3497,-4.3497,-4.3497,-4.3497,-4.3497,-4.3497,-4.3497,-4.3497,-4.3048,-4.2991,-4.3497,-4.305,-4.2519,-4.1895,-4.1313,-4.0949,-4.0903,-4.04,-4.0204,-4.0204,-4.0121,-4.007,-2.1786,-2.2102,-2.2243,-2.0993,-2.0739,-2.0291,-1.8421,-1.8115,-1.82,-1.8014,0.0,0.0,0.0,0.0,0.0,0.0,-1.8403,-1.8741,-1.7354,-1.8065,-1.9157,-2.0365,-2.067,-2.1464,-2.3128,-2.3678,-2.4526,-2.5989,-2.5969,-2.6447,-2.7732,-2.8117,-2.8668,-2.9494,-2.9971,-3.0522,-3.1201,-3.1678,-3.2302,-3.3109,-3.3109,-3.3348,-3.3807,-3.3807,-3.385,-3.3961,-3.3842,-3.3928,-3.416,-3.4037,-3.3961,-3.3961,-3.3961,-3.4183,-3.4522,-3.453,-3.5338,-3.6547,-3.7583,-3.8422,-3.9122,-3.9757,-3.9984,-3.9925,-3.969,-3.9778,-3.9945,-3.984,-3.9797,-3.9797,-3.9797,-3.9576,-3.9314,-3.9314,-3.9082,-3.9076,-3.9889,-4.0246,-4.0781,-4.2047,-4.2561,-4.2996,-4.3586,-4.3597,-4.3497,-4.3497,-4.3497,-4.3497,-4.3497,-4.3497,-4.3497,-4.3497,-4.3497,-4.3497,-4.3497,-4.3497,-4.3359,-4.3072,-4.2499,-4.2274,-4.2523,-4.1961,-4.1534,-4.1251,-4.0703,-4.0449,-4.0466,-4.0204,-4.007,-4.007,-4.007,-4.007,-2.1761,-2.2134,-2.241,-2.1181,-2.0618,-2.0054,-1.8856,-1.8335,-1.8251,-1.8792,-1.82,0.0,0.0,0.0,-1.7574,-1.7507,0.0,-1.7693,-1.6563,-1.6864,-1.7738,-1.9208,-1.9283,-1.9947,-2.1857,-2.2165,-2.3021,-2.4864,-2.4832,-2.5438,-2.7053,-2.7548,-2.8062,-2.8668,-2.9457,-2.9989,-3.021,-3.0779,-3.1476,-3.2284,-3.2284,-3.2687,-3.3476,-3.3476,-3.3587,-3.3807,-3.3807,-3.3807,-3.3807,-3.3807,-3.3807,-3.3807,-3.3876,-3.3902,-3.3935,-3.4123,-3.4824,-3.5836,-3.7053,-3.8156,-3.9064,-3.9368,-3.9529,-3.9576,-3.9383,-3.9457,-3.9576,-3.9505,-3.9462,-3.9462,-3.9462,-3.9231,-3.8999,-3.8999,-3.8844,-3.8854,-3.9441,-3.9735,-4.0249,-4.1423,-4.1827,-4.2231,-4.302,-4.3332,-4.3497,-4.3497,-4.3497,-4.3497,-4.3497,-4.3497,-4.3497,-4.3497,-4.3497,-4.3442,-4.3296,-4.3296,-4.2975,-4.2264,-4.1947,-4.1682,-4.1331,-4.1041,-4.0827,-4.0703,-4.0286,-4.007,-4.007,-4.007,-4.007,-4.007,-4.007,-4.007,-2.2678,-2.2678,-2.2272,-2.0476,-2.0044,-1.9638,-1.8183,-1.8369,-1.886,-1.8894,-1.9435,-1.99,-1.9951,-1.9917,-1.9191,-1.7088,-1.7912,0.0,0.0,-1.5663,-1.6221,-1.771,-1.9106,-1.9985,-2.0078,-1.9938,-2.0477,-2.21,-2.2767,-2.3786,-2.5403,-2.6943,-2.7805,-2.7842,-2.8631,-2.942,-3.0191,-3.0228,-3.0632,-3.1439,-3.1439,-3.1861,-3.2651,-3.2651,-3.3073,-3.3807,-3.3807,-3.3807,-3.3807,-3.3807,-3.3807,-3.3815,-3.4093,-3.4195,-3.4176,-3.42,-3.4595,-3.5319,-3.6647,-3.8206,-3.9515,-3.9212,-3.9358,-3.9481,-3.8902,-3.9127,-3.9529,-3.9231,-3.9125,-3.9125,-3.9125,-3.8923,-3.8719,-3.8719,-3.8707,-3.8707,-3.8726,-3.935,-3.9918,-3.9955,-4.0616,-4.1405,-4.2194,-4.2983,-4.3497,-4.3497,-4.3497,-4.3497,-4.3497,-4.3497,-4.3497,-4.3497,-4.3497,-4.3296,-4.2768,-4.275,-4.2235,-4.1047,-4.1485,-4.1286,-4.0221,-4.0607,-4.0655,-4.0121,-4.0121,-4.007,-4.007,-4.007,-4.007,-4.007,-4.007,-4.007,-2.2695,-2.3021,-2.2987,-2.1448,-2.0871,-2.0296,-1.8858,-1.8724,-1.8894,-1.8894,-1.9502,-2.0002,-2.0002,-1.9596,-1.8877,-1.7625,-1.7439,-1.683,0.0,-1.4885,-1.5071,-1.5559,-1.7349,-1.8369,-1.7862,-1.8814,-1.9883,-2.0957,-2.1606,-2.2861,-2.4947,-2.5795,-2.6686,-2.7769,-2.8062,-2.8594,-2.9402,-2.942,-2.9824,-3.0613,-3.0613,-3.1035,-3.1825,-3.2375,-3.2761,-3.3054,-3.3568,-3.3807,-3.3807,-3.3807,-3.3807,-3.3807,-3.3902,-3.4043,-3.4246,-3.4656,-3.4925,-3.5299,-3.6625,-3.7822,-3.8747,-3.8823,-3.8913,-3.897,-3.878,-3.8833,-3.897,-3.8873,-3.8844,-3.8844,-3.8844,-3.8762,-3.8707,-3.8707,-3.8707,-3.8707,-3.8707,-3.8909,-3.9258,-3.979,-4.012,-4.0561,-4.1368,-4.1735,-4.2268,-4.3332,-4.3059,-4.2896,-4.3424,-4.3497,-4.3369,-4.3023,-4.2951,-4.275,-4.2168,-4.1724,-4.136,-4.0916,-4.0754,-4.0514,-4.0138,-4.0286,-4.0286,-4.0121,-4.007,-4.007,-4.007,-4.007,-4.007,-4.007,-4.007,-4.007,-2.3069,-2.3369,-2.3386,-2.2095,-2.1577,-2.1078,-1.9911,-1.9832,-2.0039,-2.0039,-2.0618,-2.1152,-2.1152,-2.0436,-1.944,-1.8176,-1.7254,-1.6106,0.0,-1.4325,-1.4393,-1.4141,-1.5832,-1.6931,-1.6733,-1.7346,-1.847,-2.0118,-2.0492,-2.1698,-2.4112,-2.4972,-2.6027,-2.7328,-2.764,-2.8191,-2.8975,-2.8994,-2.925,-2.9769,-2.9769,-3.0191,-3.098,-3.1513,-3.2063,-3.2632,-3.3146,-3.3532,-3.3807,-3.3807,-3.3807,-3.3815,-3.3902,-3.4043,-3.4246,-3.4774,-3.5153,-3.5515,-3.6375,-3.7268,-3.8033,-3.8214,-3.8469,-3.8707,-3.8707,-3.8707,-3.8707,-3.8707,-3.8707,-3.8707,-3.8707,-3.8707,-3.8707,-3.8707,-3.8707,-3.8707,-3.8707,-3.8707,-3.8854,-3.9368,-3.946,-3.9735,-4.0543,-4.0451,-4.0799,-4.2396,-4.2457,-4.2422,-4.2732,-4.3023,-4.3023,-4.2459,-4.239,-4.2123,-4.1542,-4.0938,-4.0629,-4.0629,-4.0273,-4.007,-4.007,-4.007,-4.007,-4.007,-4.007,-4.007,-4.007,-4.007,-4.007,-4.007,-4.007,-4.0121]}]]